[[{"header":{"parameterUnit":"m.s-1","parameterCategory":1,"la1":31.0,"la2":29.5877,"lo1":-88.7671,"lo2":-86.6584,"dx":0.0162,"dy":0.0185,"nx":115,"ny":88,"refTime":"2022-11-09T06:00:00:Z","depth":0,"parameterNumber":2,"parameterNumberName":"U-component_of_WINDS"},"data":[0.0,0.0,0.0,0.0,0.0,0.0,0.0,0.0,0.0,0.0,0.0,0.0,0.0,0.0,0.0,0.0,0.0,0.0,0.0,0.0,0.0,0.0,0.0,0.0,0.0,0.0,0.0,0.0,0.0,0.0,0.0,0.0,0.0,0.0,0.0,0.0,0.0,0.0,0.0,0.0,0.0,0.0,0.0,0.0,0.0,0.0,0.0,0.0,0.0,0.0,0.0,0.0,0.0,0.0,0.0,0.0,0.0,0.0,0.0,0.0,0.0,0.0,0.0,0.0,0.0,0.0,0.0,0.0,0.0,0.0,0.0,0.0,0.0,0.0,0.0,0.0,0.0,0.0,0.0,0.0,0.0,0.0,0.0,0.0,0.0,0.0,0.0,0.0,0.0,0.0,0.0,0.0,0.0,0.0,0.0,0.0,0.0,0.0,0.0,0.0,0.0,0.0,0.0,0.0,0.0,0.0,0.0,0.0,0.0,0.0,0.0,0.0,0.0,0.0,0.0,0.0,0.0,0.0,0.0,0.0,0.0,0.0,0.0,0.0,0.0,0.0,0.0,0.0,0.0,0.0,0.0,0.0,0.0,0.0,0.0,0.0,0.0,0.0,0.0,0.0,0.0,0.0,0.0,0.0,0.0,0.0,0.0,0.0,0.0,0.0,0.0,0.0,0.0,0.0,0.0,0.0,0.0,0.0,0.0,0.0,0.0,0.0,0.0,0.0,0.0,0.0,0.0,0.0,0.0,0.0,0.0,0.0,0.0,0.0,0.0,0.0,0.0,0.0,0.0,0.0,0.0,0.0,0.0,0.0,0.0,0.0,0.0,0.0,0.0,0.0,0.0,0.0,0.0,0.0,0.0,0.0,0.0,0.0,0.0,0.0,0.0,0.0,0.0,0.0,0.0,0.0,0.0,0.0,0.0,0.0,0.0,0.0,0.0,0.0,0.0,0.0,0.0,0.0,0.0,0.0,0.0,0.0,0.0,0.0,0.0,0.0,0.0,0.0,0.0,0.0,0.0,0.0,0.0,0.0,0.0,0.0,0.0,0.0,0.0,0.0,0.0,0.0,0.0,0.0,0.0,0.0,0.0,0.0,0.0,0.0,0.0,0.0,0.0,0.0,0.0,0.0,0.0,0.0,0.0,0.0,0.0,0.0,0.0,0.0,0.0,0.0,0.0,0.0,0.0,0.0,0.0,0.0,0.0,0.0,0.0,0.0,0.0,0.0,0.0,0.0,0.0,0.0,0.0,0.0,0.0,0.0,0.0,0.0,0.0,0.0,0.0,0.0,0.0,0.0,0.0,0.0,0.0,0.0,0.0,0.0,0.0,0.0,0.0,0.0,0.0,0.0,0.0,0.0,0.0,0.0,0.0,0.0,0.0,0.0,0.0,0.0,0.0,0.0,0.0,0.0,0.0,0.0,0.0,0.0,0.0,0.0,0.0,0.0,0.0,0.0,0.0,0.0,0.0,0.0,0.0,0.0,0.0,0.0,0.0,0.0,0.0,0.0,0.0,0.0,0.0,0.0,0.0,0.0,0.0,0.0,0.0,0.0,0.0,0.0,0.0,0.0,0.0,0.0,0.0,0.0,0.0,0.0,0.0,0.0,0.0,0.0,0.0,0.0,0.0,0.0,0.0,0.0,0.0,0.0,0.0,0.0,0.0,0.0,0.0,0.0,0.0,0.0,0.0,0.0,0.0,0.0,0.0,0.0,0.0,0.0,0.0,0.0,0.0,0.0,0.0,0.0,0.0,0.0,0.0,0.0,0.0,0.0,0.0,0.0,0.0,0.0,0.0,0.0,0.0,0.0,0.0,0.0,0.0,0.0,0.0,0.0,0.0,0.0,0.0,0.0,0.0,0.0,0.0,0.0,0.0,0.0,0.0,0.0,0.0,0.0,0.0,0.0,0.0,0.0,0.0,0.0,0.0,0.0,0.0,0.0,0.0,0.0,0.0,0.0,0.0,0.0,0.0,0.0,0.0,0.0,0.0,0.0,0.0,0.0,0.0,0.0,0.0,0.0,0.0,0.0,0.0,0.0,0.0,0.0,0.0,0.0,0.0,0.0,0.0,0.0,0.0,0.0,0.0,0.0,0.0,0.0,0.0,0.0,0.0,0.0,0.0,0.0,0.0,0.0,0.0,0.0,0.0,0.0,0.0,0.0,0.0,0.0,0.0,0.0,0.0,0.0,0.0,0.0,0.0,0.0,0.0,0.0,0.0,0.0,0.0,0.0,0.0,0.0,0.0,0.0,0.0,0.0,0.0,0.0,0.0,0.0,0.0,0.0,0.0,0.0,0.0,0.0,0.0,0.0,0.0,0.0,0.0,0.0,0.0,0.0,0.0,0.0,0.0,0.0,0.0,0.0,0.0,0.0,0.0,0.0,0.0,0.0,0.0,0.0,0.0,0.0,0.0,0.0,0.0,0.0,0.0,0.0,0.0,0.0,0.0,0.0,0.0,0.0,0.0,0.0,0.0,0.0,0.0,0.0,0.0,0.0,0.0,0.0,0.0,0.0,0.0,0.0,0.0,0.0,0.0,0.0,0.0,0.0,0.0,0.0,0.0,0.0,0.0,0.0,0.0,0.0,0.0,0.0,0.0,0.0,0.0,0.0,0.0,0.0,0.0,0.0,0.0,0.0,0.0,0.0,0.0,0.0,0.0,0.0,0.0,0.0,0.0,0.0,0.0,0.0,0.0,0.0,0.0,0.0,0.0,0.0,0.0,0.0,0.0,0.0,0.0,0.0,0.0,0.0,0.0,0.0,0.0,0.0,0.0,0.0,0.0,0.0,0.0,0.0,0.0,0.0,0.0,0.0,0.0,0.0,0.0,0.0,0.0,0.0,0.0,0.0,0.0,0.0,0.0,0.0,0.0,0.0,0.0,0.0,0.0,0.0,0.0,0.0,0.0,0.0,0.0,0.0,0.0,0.0,0.0,0.0,0.0,0.0,0.0,0.0,0.0,0.0,0.0,0.0,0.0,0.0,0.0,0.0,0.0,0.0,0.0,0.0,0.0,0.0,0.0,0.0,0.0,0.0,0.0,0.0,0.0,0.0,0.0,0.0,0.0,0.0,0.0,0.0,0.0,0.0,0.0,0.0,0.0,0.0,0.0,0.0,0.0,0.0,0.0,0.0,0.0,0.0,0.0,0.0,0.0,0.0,0.0,0.0,0.0,0.0,0.0,0.0,0.0,0.0,0.0,0.0,0.0,0.0,0.0,0.0,0.0,0.0,0.0,0.0,0.0,0.0,0.0,0.0,0.0,0.0,0.0,0.0,0.0,0.0,0.0,0.0,0.0,0.0,0.0,0.0,0.0,0.0,0.0,0.0,0.0,0.0,0.0,0.0,0.0,0.0,0.0,0.0,0.0,0.0,0.0,0.0,0.0,0.0,0.0,0.0,0.0,0.0,0.0,0.0,0.0,0.0,0.0,0.0,0.0,0.0,0.0,0.0,0.0,0.0,0.0,0.0,0.0,0.0,0.0,0.0,0.0,0.0,0.0,0.0,0.0,0.0,0.0,0.0,0.0,0.0,0.0,0.0,0.0,0.0,0.0,0.0,0.0,0.0,0.0,0.0,0.0,0.0,0.0,0.0,0.0,0.0,0.0,0.0,0.0,0.0,0.0,0.0,0.0,0.0,0.0,0.0,0.0,0.0,0.0,0.0,0.0,0.0,0.0,0.0,0.0,0.0,0.0,0.0,0.0,0.0,0.0,0.0,0.0,0.0,0.0,0.0,0.0,0.0,0.0,0.0,0.0,0.0,0.0,0.0,0.0,0.0,0.0,0.0,0.0,0.0,0.0,0.0,0.0,0.0,0.0,0.0,0.0,0.0,0.0,0.0,0.0,0.0,0.0,0.0,0.0,0.0,0.0,0.0,0.0,0.0,0.0,0.0,0.0,0.0,0.0,0.0,0.0,0.0,0.0,0.0,0.0,0.0,0.0,0.0,0.0,0.0,0.0,0.0,0.0,0.0,0.0,0.0,0.0,0.0,0.0,0.0,0.0,0.0,0.0,0.0,0.0,0.0,0.0,0.0,0.0,0.0,0.0,0.0,0.0,0.0,0.0,0.0,0.0,0.0,0.0,0.0,0.0,0.0,0.0,0.0,0.0,0.0,0.0,0.0,0.0,0.0,0.0,0.0,0.0,0.0,0.0,0.0,0.0,0.0,0.0,0.0,0.0,0.0,0.0,0.0,0.0,0.0,0.0,0.0,0.0,0.0,0.0,0.0,0.0,0.0,0.0,0.0,2.5645,0.0,0.0,0.0,2.6107,0.0,0.0,0.0,0.0,0.0,0.0,0.0,0.0,0.0,0.0,0.0,0.0,0.0,0.0,0.0,0.0,0.0,0.0,0.0,0.0,0.0,0.0,0.0,0.0,0.0,0.0,0.0,0.0,0.0,0.0,0.0,0.0,0.0,0.0,0.0,0.0,0.0,0.0,0.0,0.0,0.0,0.0,0.0,0.0,0.0,0.0,0.0,0.0,0.0,0.0,0.0,0.0,0.0,0.0,0.0,0.0,0.0,0.0,0.0,0.0,0.0,0.0,0.0,0.0,0.0,0.0,0.0,0.0,0.0,0.0,0.0,0.0,0.0,0.0,0.0,0.0,0.0,0.0,0.0,0.0,0.0,0.0,0.0,0.0,0.0,0.0,0.0,0.0,0.0,0.0,0.0,0.0,0.0,0.0,0.0,0.0,0.0,0.0,0.0,0.0,0.0,0.0,0.0,0.0,0.0,0.0,0.0,0.0,0.0,0.0,2.5345,2.4542,2.7116,2.7536,2.55,0.0,0.0,0.0,0.0,0.0,0.0,0.0,0.0,0.0,0.0,0.0,0.0,0.0,0.0,0.0,0.0,0.0,0.0,0.0,0.0,0.0,0.0,0.0,0.0,0.0,0.0,0.0,0.0,0.0,0.0,0.0,0.0,0.0,0.0,0.0,0.0,0.0,0.0,0.0,0.0,0.0,0.0,0.0,0.0,0.0,0.0,0.0,0.0,0.0,0.0,0.0,0.0,0.0,0.0,0.0,0.0,0.0,0.0,0.0,0.0,0.0,0.0,0.0,0.0,0.0,0.0,0.0,0.0,0.0,0.0,0.0,0.0,0.0,0.0,0.0,0.0,0.0,0.0,0.0,0.0,0.0,0.0,0.0,0.0,0.0,0.0,0.0,0.0,0.0,0.0,0.0,0.0,0.0,0.0,0.0,0.0,0.0,0.0,0.0,0.0,0.0,0.0,0.0,0.0,0.0,0.0,0.0,0.0,0.0,0.0,0.0,0.0,2.7123,2.7528,2.5764,0.0,0.0,0.0,0.0,0.0,0.0,0.0,0.0,0.0,0.0,0.0,0.0,0.0,0.0,0.0,0.0,0.0,0.0,0.0,0.0,0.0,0.0,0.0,0.0,0.0,0.0,0.0,0.0,0.0,0.0,0.0,0.0,0.0,0.0,0.0,0.0,0.0,0.0,0.0,0.0,0.0,0.0,0.0,0.0,0.0,0.0,0.0,0.0,0.0,0.0,0.0,0.0,0.0,0.0,0.0,0.0,0.0,0.0,0.0,0.0,0.0,0.0,0.0,0.0,0.0,0.0,0.0,0.0,0.0,0.0,0.0,0.0,0.0,0.0,0.0,0.0,0.0,0.0,0.0,0.0,0.0,0.0,0.0,0.0,0.0,0.0,0.0,0.0,0.0,0.0,0.0,0.0,0.0,0.0,0.0,0.0,0.0,0.0,0.0,0.0,0.0,0.0,0.0,0.0,0.0,0.0,0.0,0.0,0.0,0.0,2.6264,2.5559,2.773,0.0,2.6638,0.0,0.0,0.0,0.0,0.0,0.0,0.0,0.0,0.0,0.0,0.0,0.0,0.0,0.0,0.0,0.0,0.0,0.0,0.0,0.0,0.0,0.0,0.0,0.0,0.0,0.0,0.0,0.0,0.0,0.0,0.0,0.0,0.0,0.0,0.0,0.0,0.0,0.0,0.0,0.0,0.0,0.0,0.0,0.0,0.0,0.0,0.0,0.0,0.0,0.0,0.0,0.0,0.0,0.0,0.0,0.0,0.0,0.0,0.0,0.0,0.0,0.0,0.0,0.0,0.0,0.0,0.0,0.0,0.0,0.0,0.0,0.0,0.0,0.0,0.0,0.0,0.0,0.0,0.0,0.0,0.0,0.0,0.0,0.0,0.0,0.0,0.0,0.0,0.0,0.0,0.0,0.0,0.0,0.0,0.0,0.0,0.0,0.0,0.0,0.0,0.0,0.0,0.0,0.0,0.0,0.0,0.0,0.0,0.0,0.0,2.6847,2.7132,2.7895,2.7856,0.0,0.0,0.0,0.0,0.0,0.0,0.0,0.0,0.0,0.0,0.0,0.0,0.0,0.0,0.0,0.0,0.0,0.0,0.0,0.0,0.0,0.0,0.0,0.0,0.0,0.0,0.0,0.0,0.0,0.0,0.0,0.0,0.0,0.0,0.0,0.0,0.0,0.0,0.0,0.0,0.0,0.0,0.0,0.0,0.0,0.0,0.0,0.0,0.0,0.0,0.0,0.0,0.0,0.0,0.0,0.0,0.0,0.0,0.0,0.0,0.0,0.0,0.0,0.0,0.0,0.0,0.0,0.0,0.0,0.0,0.0,0.0,0.0,0.0,0.0,0.0,0.0,0.0,0.0,0.0,0.0,0.0,0.0,0.0,0.0,0.0,0.0,0.0,0.0,0.0,0.0,0.0,0.0,0.0,0.0,0.0,0.0,0.0,0.0,0.0,0.0,0.0,0.0,0.0,0.0,0.0,0.0,0.0,0.0,0.0,2.7862,2.8379,2.9241,2.8553,2.8069,2.7916,0.0,0.0,0.0,0.0,0.0,0.0,0.0,0.0,0.0,0.0,0.0,0.0,0.0,0.0,0.0,0.0,0.0,0.0,0.0,0.0,0.0,0.0,0.0,0.0,0.0,0.0,0.0,0.0,0.0,0.0,0.0,0.0,0.0,0.0,0.0,0.0,0.0,0.0,0.0,0.0,0.0,0.0,0.0,0.0,0.0,0.0,0.0,0.0,0.0,0.0,0.0,0.0,0.0,0.0,0.0,0.0,0.0,0.0,0.0,0.0,0.0,0.0,0.0,0.0,0.0,0.0,0.0,0.0,0.0,0.0,0.0,0.0,0.0,0.0,0.0,0.0,0.0,0.0,0.0,0.0,0.0,0.0,0.0,0.0,0.0,0.0,0.0,0.0,0.0,0.0,0.0,0.0,0.0,0.0,0.0,0.0,0.0,0.0,0.0,0.0,0.0,0.0,0.0,0.0,0.0,0.0,0.0,0.0,3.0871,3.0978,3.134,3.2019,3.0059,2.9276,0.0,0.0,0.0,0.0,0.0,0.0,0.0,0.0,0.0,0.0,0.0,0.0,0.0,0.0,0.0,0.0,0.0,0.0,0.0,0.0,0.0,0.0,0.0,0.0,0.0,0.0,0.0,0.0,0.0,0.0,0.0,0.0,0.0,0.0,0.0,0.0,0.0,0.0,0.0,0.0,0.0,0.0,0.0,0.0,0.0,0.0,0.0,0.0,0.0,0.0,0.0,0.0,0.0,0.0,0.0,0.0,0.0,0.0,0.0,0.0,0.0,0.0,0.0,0.0,0.0,0.0,0.0,0.0,0.0,0.0,0.0,0.0,0.0,0.0,0.0,0.0,0.0,0.0,0.0,0.0,0.0,0.0,0.0,0.0,0.0,0.0,0.0,0.0,0.0,0.0,0.0,0.0,0.0,0.0,0.0,0.0,0.0,0.0,0.0,0.0,0.0,0.0,0.0,0.0,0.0,0.0,0.0,0.0,0.0,3.0509,3.1398,3.2249,3.2921,3.1785,3.1437,0.0,0.0,0.0,0.0,0.0,0.0,0.0,0.0,0.0,0.0,0.0,0.0,0.0,0.0,0.0,0.0,0.0,0.0,0.0,0.0,0.0,0.0,0.0,0.0,0.0,0.0,0.0,0.0,0.0,0.0,0.0,0.0,0.0,0.0,0.0,0.0,0.0,0.0,0.0,0.0,0.0,0.0,0.0,0.0,0.0,0.0,0.0,0.0,0.0,0.0,0.0,0.0,0.0,0.0,0.0,0.0,0.0,0.0,0.0,0.0,0.0,0.0,0.0,0.0,0.0,0.0,0.0,0.0,0.0,0.0,0.0,0.0,0.0,0.0,0.0,0.0,0.0,0.0,0.0,0.0,0.0,0.0,0.0,0.0,0.0,0.0,0.0,0.0,0.0,0.0,0.0,0.0,0.0,0.0,0.0,0.0,0.0,0.0,0.0,0.0,0.0,0.0,0.0,0.0,0.0,0.0,0.0,0.0,0.0,3.1214,3.2385,3.3259,3.3694,3.3028,3.2791,0.0,0.0,0.0,0.0,0.0,0.0,0.0,0.0,0.0,0.0,0.0,0.0,0.0,0.0,0.0,0.0,0.0,0.0,0.0,0.0,0.0,0.0,0.0,0.0,0.0,0.0,0.0,0.0,0.0,0.0,0.0,0.0,0.0,0.0,0.0,0.0,0.0,0.0,0.0,0.0,0.0,0.0,0.0,0.0,0.0,0.0,0.0,0.0,0.0,0.0,0.0,0.0,0.0,0.0,0.0,0.0,0.0,0.0,0.0,0.0,0.0,0.0,0.0,0.0,0.0,0.0,0.0,0.0,0.0,0.0,0.0,0.0,0.0,0.0,0.0,0.0,0.0,0.0,0.0,0.0,0.0,0.0,0.0,0.0,0.0,0.0,0.0,0.0,0.0,0.0,0.0,0.0,0.0,0.0,0.0,0.0,0.0,0.0,0.0,0.0,0.0,0.0,0.0,0.0,0.0,0.0,0.0,0.0,3.1968,3.3316,3.4105,3.4483,3.4483,3.3761,3.3056,0.0,0.0,0.0,0.0,0.0,0.0,0.0,0.0,0.0,0.0,0.0,0.0,0.0,0.0,0.0,0.0,0.0,0.0,0.0,0.0,0.0,0.0,0.0,0.0,0.0,0.0,0.0,0.0,0.0,0.0,0.0,0.0,0.0,0.0,0.0,0.0,0.0,0.0,0.0,0.0,0.0,0.0,0.0,0.0,0.0,0.0,0.0,0.0,0.0,0.0,0.0,0.0,0.0,0.0,0.0,0.0,0.0,0.0,0.0,0.0,0.0,0.0,0.0,0.0,0.0,0.0,0.0,0.0,0.0,0.0,0.0,0.0,0.0,0.0,0.0,0.0,0.0,0.0,0.0,0.0,0.0,0.0,0.0,0.0,0.0,0.0,0.0,0.0,0.0,0.0,0.0,0.0,0.0,0.0,0.0,0.0,0.0,0.0,0.0,0.0,0.0,0.0,0.0,0.0,0.0,0.0,0.0,0.0,0.0,3.3452,3.463,3.5278,3.5205,3.406,3.3519,0.0,0.0,0.0,0.0,0.0,0.0,0.0,0.0,0.0,0.0,0.0,0.0,0.0,0.0,0.0,0.0,0.0,0.0,0.0,0.0,0.0,0.0,0.0,0.0,0.0,0.0,0.0,0.0,0.0,0.0,0.0,0.0,0.0,0.0,0.0,0.0,0.0,0.0,0.0,0.0,0.0,0.0,0.0,0.0,0.0,0.0,0.0,0.0,0.0,0.0,0.0,0.0,0.0,0.0,0.0,0.0,0.0,0.0,0.0,0.0,0.0,0.0,0.0,0.0,0.0,0.0,0.0,0.0,0.0,0.0,0.0,0.0,0.0,0.0,0.0,0.0,0.0,0.0,0.0,0.0,0.0,0.0,0.0,0.0,0.0,0.0,0.0,0.0,0.0,0.0,0.0,0.0,0.0,0.0,0.0,0.0,0.0,0.0,0.0,0.0,0.0,0.0,0.0,0.0,0.0,0.0,0.0,0.0,0.0,3.5949,3.6253,3.6456,3.6456,3.5278,3.4613,3.4483,0.0,0.0,0.0,0.0,0.0,0.0,0.0,0.0,0.0,0.0,0.0,0.0,0.0,0.0,0.0,0.0,0.0,0.0,0.0,0.0,0.0,0.0,0.0,0.0,0.0,0.0,0.0,0.0,0.0,0.0,0.0,0.0,0.0,0.0,0.0,0.0,0.0,0.0,0.0,0.0,0.0,0.0,0.0,0.0,0.0,0.0,0.0,0.0,0.0,0.0,0.0,0.0,0.0,0.0,0.0,0.0,0.0,0.0,0.0,0.0,0.0,0.0,0.0,0.0,0.0,0.0,0.0,0.0,0.0,0.0,0.0,0.0,0.0,0.0,0.0,0.0,0.0,0.0,0.0,0.0,0.0,0.0,0.0,0.0,0.0,0.0,0.0,0.0,0.0,0.0,0.0,0.0,0.0,0.0,0.0,0.0,0.0,0.0,0.0,0.0,0.0,0.0,0.0,0.0,0.0,0.0,0.0,0.0,4.017,3.8857,3.8079,3.791,3.7156,3.6079,0.0,0.0,0.0,0.0,0.0,0.0,0.0,0.0,0.0,0.0,0.0,0.0,0.0,0.0,0.0,0.0,0.0,0.0,0.0,0.0,0.0,0.0,0.0,0.0,0.0,0.0,0.0,0.0,0.0,0.0,0.0,0.0,0.0,0.0,0.0,0.0,0.0,0.0,0.0,0.0,0.0,0.0,0.0,0.0,0.0,0.0,0.0,0.0,0.0,0.0,0.0,0.0,0.0,0.0,0.0,0.0,0.0,0.0,0.0,0.0,0.0,0.0,0.0,0.0,0.0,0.0,0.0,0.0,0.0,0.0,0.0,0.0,0.0,0.0,0.0,0.0,0.0,0.0,0.0,0.0,0.0,0.0,0.0,0.0,0.0,0.0,0.0,0.0,0.0,0.0,0.0,0.0,0.0,0.0,0.0,0.0,0.0,0.0,0.0,0.0,0.0,0.0,0.0,0.0,0.0,0.0,0.0,0.0,0.0,4.0893,4.1068,4.0358,3.8768,3.7466,3.6344,0.0,0.0,0.0,0.0,0.0,0.0,0.0,0.0,0.0,0.0,0.0,0.0,0.0,0.0,0.0,0.0,0.0,0.0,0.0,0.0,0.0,0.0,0.0,0.0,0.0,0.0,0.0,0.0,0.0,0.0,0.0,0.0,0.0,0.0,0.0,0.0,0.0,0.0,0.0,0.0,0.0,0.0,0.0,0.0,0.0,0.0,0.0,0.0,0.0,0.0,0.0,0.0,0.0,0.0,0.0,0.0,0.0,0.0,0.0,0.0,0.0,0.0,0.0,0.0,0.0,0.0,0.0,0.0,0.0,0.0,0.0,0.0,0.0,0.0,0.0,0.0,0.0,0.0,0.0,0.0,0.0,0.0,0.0,0.0,0.0,0.0,0.0,0.0,0.0,0.0,0.0,0.0,0.0,0.0,0.0,0.0,0.0,0.0,0.0,0.0,0.0,0.0,0.0,0.0,0.0,0.0,0.0,0.0,4.1413,4.3024,4.2564,4.1988,4.1379,3.9316,3.7686,0.0,0.0,0.0,0.0,0.0,0.0,0.0,0.0,0.0,0.0,0.0,0.0,0.0,0.0,0.0,0.0,0.0,0.0,0.0,0.0,0.0,0.0,0.0,0.0,0.0,0.0,0.0,0.0,0.0,0.0,0.0,0.0,0.0,0.0,0.0,0.0,0.0,0.0,0.0,0.0,0.0,0.0,0.0,0.0,0.0,0.0,0.0,0.0,0.0,0.0,0.0,0.0,0.0,0.0,0.0,0.0,0.0,0.0,0.0,0.0,0.0,0.0,0.0,0.0,0.0,0.0,0.0,0.0,0.0,0.0,0.0,0.0,0.0,0.0,0.0,0.0,0.0,0.0,0.0,0.0,0.0,0.0,0.0,0.0,0.0,0.0,0.0,0.0,0.0,0.0,0.0,0.0,0.0,0.0,0.0,0.0,0.0,0.0,0.0,0.0,0.0,0.0,0.0,0.0,0.0,0.0,0.0,0.0,4.2963,4.5696,4.3815,4.3416,4.4668,4.1914,3.9601,0.0,0.0,0.0,0.0,0.0,0.0,0.0,0.0,0.0,0.0,0.0,0.0,0.0,0.0,0.0,0.0,0.0,0.0,0.0,0.0,0.0,0.0,0.0,0.0,0.0,0.0,0.0,0.0,0.0,0.0,0.0,0.0,0.0,0.0,0.0,0.0,0.0,0.0,0.0,0.0,0.0,0.0,0.0,0.0,0.0,0.0,0.0,0.0,0.0,0.0,0.0,0.0,0.0,0.0,0.0,0.0,0.0,0.0,0.0,0.0,0.0,0.0,0.0,0.0,0.0,0.0,0.0,0.0,0.0,0.0,0.0,0.0,0.0,0.0,0.0,0.0,0.0,0.0,0.0,0.0,0.0,0.0,0.0,0.0,0.0,0.0,0.0,0.0,0.0,0.0,0.0,0.0,0.0,0.0,0.0,0.0,0.0,0.0,0.0,0.0,0.0,0.0,0.0,0.0,0.0,0.0,0.0,0.0,4.4729,4.6488,4.6082,4.5981,4.6319,4.3409,4.0872,0.0,0.0,0.0,0.0,0.0,0.0,0.0,0.0,0.0,0.0,0.0,0.0,0.0,0.0,0.0,0.0,0.0,0.0,0.0,0.0,0.0,0.0,0.0,0.0,0.0,0.0,0.0,0.0,0.0,0.0,0.0,0.0,0.0,0.0,0.0,0.0,0.0,0.0,0.0,0.0,0.0,0.0,0.0,0.0,0.0,0.0,0.0,0.0,3.5986,0.0,0.0,0.0,0.0,0.0,0.0,0.0,0.0,0.0,0.0,0.0,0.0,0.0,0.0,0.0,0.0,0.0,0.0,0.0,0.0,0.0,0.0,0.0,0.0,0.0,0.0,0.0,0.0,0.0,0.0,0.0,0.0,0.0,0.0,0.0,0.0,0.0,0.0,0.0,0.0,0.0,0.0,0.0,0.0,0.0,0.0,0.0,0.0,0.0,0.0,0.0,0.0,0.0,0.0,0.0,0.0,0.0,0.0,0.0,4.5846,4.7218,4.6881,4.6802,4.7106,4.5541,4.3386,0.0,0.0,0.0,0.0,0.0,0.0,0.0,0.0,0.0,0.0,0.0,0.0,0.0,0.0,0.0,0.0,0.0,0.0,0.0,0.0,0.0,0.0,0.0,0.0,0.0,0.0,0.0,0.0,0.0,0.0,0.0,0.0,0.0,0.0,0.0,0.0,0.0,0.0,0.0,0.0,0.0,0.0,0.0,0.0,0.0,0.0,0.0,0.0,0.0,0.0,0.0,0.0,0.0,0.0,0.0,0.0,0.0,0.0,0.0,0.0,0.0,0.0,0.0,0.0,0.0,0.0,0.0,0.0,0.0,0.0,0.0,0.0,0.0,0.0,0.0,0.0,0.0,0.0,0.0,0.0,0.0,0.0,0.0,0.0,0.0,0.0,0.0,0.0,0.0,0.0,0.0,0.0,0.0,0.0,0.0,0.0,0.0,0.0,0.0,0.0,0.0,0.0,0.0,0.0,0.0,0.0,0.0,4.6271,4.6899,4.8247,4.7593,4.7475,4.8027,4.7734,4.6126,4.3051,0.0,0.0,0.0,0.0,0.0,0.0,0.0,0.0,0.0,0.0,0.0,0.0,0.0,0.0,0.0,0.0,0.0,0.0,0.0,0.0,0.0,0.0,0.0,0.0,0.0,0.0,0.0,0.0,0.0,0.0,0.0,0.0,0.0,0.0,0.0,0.0,0.0,0.0,3.3987,3.4888,0.0,0.0,0.0,0.0,0.0,0.0,0.0,0.0,3.7409,0.0,0.0,0.0,0.0,0.0,0.0,0.0,0.0,0.0,0.0,0.0,0.0,0.0,0.0,0.0,0.0,0.0,0.0,0.0,0.0,0.0,0.0,0.0,0.0,0.0,0.0,0.0,0.0,0.0,0.0,0.0,0.0,0.0,0.0,0.0,0.0,0.0,0.0,0.0,0.0,0.0,0.0,0.0,0.0,0.0,0.0,0.0,0.0,0.0,0.0,0.0,0.0,0.0,0.0,0.0,0.0,4.9297,4.8781,4.911,5.0442,5.0342,5.0245,5.0149,4.8978,4.7533,4.5827,0.0,0.0,0.0,0.0,0.0,0.0,0.0,0.0,0.0,0.0,0.0,0.0,0.0,0.0,0.0,0.0,0.0,0.0,0.0,0.0,0.0,0.0,0.0,0.0,0.0,0.0,0.0,0.0,0.0,0.0,0.0,0.0,0.0,0.0,0.0,0.0,0.0,0.0,0.0,3.7143,3.7813,0.0,0.0,0.0,0.0,0.0,0.0,0.0,0.0,3.7939,0.0,0.0,0.0,0.0,0.0,0.0,0.0,0.0,0.0,0.0,0.0,0.0,0.0,0.0,0.0,0.0,0.0,0.0,0.0,0.0,0.0,0.0,0.0,0.0,0.0,0.0,0.0,0.0,0.0,0.0,0.0,0.0,0.0,0.0,0.0,0.0,0.0,0.0,0.0,0.0,0.0,0.0,0.0,0.0,0.0,0.0,0.0,0.0,0.0,0.0,0.0,0.0,0.0,0.0,0.0,4.9276,4.9694,5.0186,5.0809,5.035,5.0215,5.0485,4.8915,4.7662,0.0,0.0,0.0,0.0,0.0,0.0,0.0,0.0,0.0,0.0,0.0,0.0,0.0,0.0,0.0,0.0,0.0,0.0,0.0,0.0,0.0,0.0,0.0,0.0,0.0,0.0,0.0,0.0,0.0,0.0,0.0,0.0,0.0,0.0,0.0,0.0,0.0,0.0,0.0,0.0,3.8239,3.8951,4.0301,0.0,0.0,0.0,0.0,0.0,0.0,4.0318,3.9614,0.0,0.0,0.0,0.0,0.0,0.0,0.0,0.0,0.0,0.0,0.0,0.0,0.0,0.0,0.0,0.0,0.0,0.0,0.0,0.0,0.0,0.0,0.0,0.0,0.0,0.0,0.0,0.0,0.0,0.0,0.0,0.0,0.0,0.0,0.0,0.0,0.0,0.0,0.0,0.0,0.0,0.0,0.0,0.0,0.0,0.0,0.0,0.0,0.0,0.0,0.0,0.0,0.0,0.0,0.0,4.8854,4.9867,5.0479,5.0543,4.98,4.9675,5.0224,4.8698,4.7593,0.0,0.0,0.0,0.0,0.0,0.0,0.0,0.0,0.0,0.0,0.0,0.0,0.0,0.0,0.0,0.0,0.0,0.0,0.0,0.0,0.0,0.0,0.0,0.0,0.0,0.0,0.0,0.0,0.0,0.0,0.0,0.0,0.0,0.0,0.0,0.0,0.0,0.0,0.0,0.0,0.0,4.0262,4.128,4.3477,0.0,0.0,0.0,0.0,4.2422,4.1975,0.0,0.0,0.0,0.0,0.0,0.0,0.0,0.0,0.0,0.0,0.0,0.0,0.0,0.0,0.0,0.0,0.0,0.0,0.0,0.0,0.0,0.0,0.0,0.0,0.0,0.0,0.0,0.0,0.0,0.0,0.0,0.0,0.0,0.0,0.0,0.0,0.0,0.0,0.0,0.0,0.0,0.0,0.0,0.0,0.0,0.0,0.0,0.0,0.0,0.0,0.0,0.0,0.0,0.0,0.0,0.0,4.9243,4.9418,4.9703,5.0119,5.0067,4.9961,4.9864,4.902,4.8048,0.0,0.0,0.0,0.0,0.0,0.0,0.0,0.0,0.0,0.0,0.0,0.0,0.0,0.0,0.0,0.0,0.0,0.0,0.0,0.0,0.0,0.0,0.0,0.0,0.0,0.0,0.0,0.0,0.0,0.0,0.0,0.0,0.0,0.0,0.0,0.0,0.0,0.0,0.0,0.0,0.0,4.2732,4.2239,4.4668,4.5988,0.0,0.0,4.6252,4.5331,4.4628,0.0,0.0,0.0,0.0,0.0,0.0,0.0,0.0,0.0,0.0,0.0,0.0,0.0,0.0,0.0,0.0,0.0,0.0,0.0,0.0,0.0,0.0,0.0,0.0,0.0,0.0,0.0,0.0,0.0,0.0,0.0,0.0,0.0,0.0,0.0,0.0,0.0,0.0,0.0,0.0,0.0,0.0,0.0,0.0,0.0,0.0,0.0,0.0,0.0,0.0,0.0,0.0,0.0,0.0,0.0,4.7636,4.8587,4.9231,4.9704,4.9901,4.9487,4.9427,4.9775,4.8583,4.7711,0.0,0.0,0.0,0.0,0.0,0.0,0.0,0.0,0.0,0.0,0.0,0.0,0.0,0.0,0.0,0.0,0.0,0.0,0.0,0.0,0.0,0.0,0.0,0.0,0.0,0.0,0.0,0.0,0.0,0.0,0.0,0.0,0.0,0.0,0.0,0.0,0.0,0.0,0.0,0.0,0.0,0.0,4.473,4.6691,0.0,0.0,0.0,4.753,4.5933,0.0,0.0,0.0,0.0,0.0,0.0,0.0,0.0,0.0,0.0,0.0,0.0,0.0,0.0,0.0,0.0,0.0,0.0,0.0,0.0,0.0,0.0,0.0,0.0,0.0,0.0,0.0,0.0,0.0,0.0,0.0,0.0,0.0,0.0,0.0,0.0,0.0,0.0,0.0,0.0,0.0,0.0,0.0,0.0,0.0,0.0,0.0,0.0,0.0,0.0,0.0,0.0,0.0,0.0,0.0,0.0,0.0,4.8122,4.8983,4.9489,4.9655,4.9087,4.9055,4.9625,4.8289,0.0,0.0,0.0,0.0,0.0,0.0,0.0,0.0,0.0,0.0,0.0,0.0,0.0,0.0,0.0,0.0,0.0,0.0,0.0,0.0,0.0,0.0,0.0,0.0,0.0,0.0,0.0,2.9739,0.0,0.0,0.0,0.0,0.0,0.0,0.0,0.0,0.0,0.0,0.0,0.0,0.0,0.0,4.5132,4.6837,4.8173,4.8808,0.0,0.0,4.8436,4.6778,4.6959,4.7143,0.0,0.0,0.0,0.0,0.0,0.0,0.0,0.0,0.0,0.0,0.0,0.0,0.0,0.0,0.0,0.0,0.0,0.0,0.0,0.0,0.0,0.0,0.0,0.0,0.0,0.0,0.0,0.0,0.0,0.0,0.0,0.0,0.0,0.0,0.0,0.0,0.0,0.0,0.0,0.0,0.0,0.0,0.0,0.0,0.0,0.0,0.0,0.0,0.0,0.0,0.0,0.0,0.0,0.0,4.7793,4.843,4.8425,4.8738,4.9317,4.9261,4.928,4.9306,4.8614,4.7951,0.0,0.0,0.0,0.0,0.0,0.0,0.0,0.0,0.0,0.0,0.0,0.0,0.0,0.0,0.0,0.0,0.0,0.0,0.0,0.0,0.0,0.0,0.0,0.0,0.0,0.0,0.0,0.0,0.0,0.0,0.0,0.0,0.0,0.0,0.0,0.0,0.0,0.0,0.0,0.0,0.0,4.6138,4.7624,4.8503,4.8977,0.0,4.8984,4.8943,4.8808,4.8726,4.8923,4.9664,0.0,0.0,0.0,0.0,0.0,0.0,0.0,0.0,0.0,0.0,0.0,0.0,0.0,0.0,0.0,0.0,0.0,0.0,0.0,0.0,0.0,0.0,0.0,0.0,0.0,0.0,0.0,0.0,0.0,0.0,0.0,0.0,0.0,0.0,0.0,0.0,0.0,0.0,0.0,0.0,0.0,0.0,0.0,0.0,0.0,0.0,0.0,0.0,0.0,0.0,0.0,0.0,0.0,4.8341,4.7773,4.8544,4.9217,4.9811,4.9871,4.9841,4.9841,4.9602,4.8974,0.0,0.0,0.0,0.0,0.0,0.0,0.0,0.0,0.0,0.0,0.0,0.0,0.0,0.0,0.0,0.0,0.0,0.0,0.0,0.0,0.0,0.0,0.0,0.0,0.0,0.0,0.0,0.0,3.538,3.6293,3.6569,0.0,0.0,0.0,0.0,0.0,0.0,0.0,0.0,0.0,0.0,4.8105,4.912,4.9811,0.0,0.0,5.0149,5.0043,5.0069,5.0381,5.0868,5.1522,5.1682,0.0,0.0,0.0,0.0,0.0,0.0,0.0,0.0,0.0,0.0,0.0,0.0,0.0,0.0,0.0,0.0,0.0,0.0,0.0,0.0,0.0,0.0,0.0,0.0,0.0,0.0,0.0,0.0,0.0,0.0,0.0,0.0,0.0,0.0,0.0,0.0,0.0,0.0,0.0,0.0,0.0,0.0,0.0,0.0,0.0,0.0,0.0,0.0,0.0,0.0,0.0,0.0,4.9453,4.8476,4.9595,5.0463,5.1086,5.1086,5.1086,5.1098,5.0727,5.0081,0.0,0.0,0.0,0.0,0.0,0.0,0.0,0.0,0.0,0.0,0.0,0.0,0.0,0.0,0.0,0.0,0.0,0.0,0.0,0.0,0.0,0.0,0.0,0.0,0.0,0.0,0.0,0.0,3.8294,3.9737,4.0176,0.0,0.0,0.0,0.0,0.0,0.0,0.0,0.0,0.0,0.0,4.92,5.0145,5.1082,5.1563,5.1287,5.1749,5.2017,5.1714,5.1889,5.2272,5.2927,0.0,0.0,0.0,0.0,0.0,0.0,0.0,0.0,0.0,0.0,0.0,0.0,0.0,0.0,0.0,0.0,0.0,0.0,0.0,0.0,0.0,0.0,0.0,0.0,0.0,0.0,0.0,3.6476,0.0,0.0,3.749,0.0,0.0,0.0,0.0,0.0,0.0,0.0,0.0,0.0,0.0,0.0,0.0,0.0,0.0,0.0,0.0,0.0,0.0,0.0,0.0,0.0,0.0,5.1151,5.1116,5.1768,5.2456,5.3097,5.3126,5.3139,5.3109,5.1887,5.1176,5.1098,0.0,0.0,0.0,0.0,0.0,0.0,0.0,0.0,0.0,0.0,0.0,0.0,0.0,0.0,0.0,0.0,0.0,0.0,0.0,0.0,0.0,0.0,0.0,0.0,0.0,0.0,3.5938,4.0238,4.3822,0.0,0.0,0.0,0.0,0.0,0.0,0.0,0.0,0.0,5.0603,4.9542,4.9078,5.0534,5.2093,5.2765,5.1907,5.3694,5.4897,5.3946,5.3152,5.2892,0.0,0.0,0.0,0.0,0.0,0.0,0.0,0.0,0.0,0.0,0.0,0.0,0.0,0.0,0.0,0.0,0.0,0.0,0.0,0.0,0.0,0.0,0.0,0.0,0.0,0.0,0.0,3.9802,4.0622,0.0,0.0,0.0,0.0,0.0,0.0,0.0,0.0,0.0,0.0,0.0,4.5272,4.7845,0.0,0.0,0.0,0.0,0.0,0.0,0.0,0.0,0.0,0.0,0.0,0.0,5.2528,5.2546,5.3204,5.4084,5.5144,5.5204,5.4982,5.4563,5.4072,5.3234,5.1876,0.0,0.0,0.0,0.0,0.0,0.0,0.0,0.0,0.0,0.0,0.0,0.0,0.0,0.0,0.0,0.0,0.0,0.0,0.0,0.0,0.0,0.0,0.0,0.0,0.0,3.965,0.0,0.0,0.0,0.0,0.0,0.0,0.0,0.0,0.0,0.0,4.9901,5.0676,5.143,5.1464,5.1614,5.2091,5.2391,5.2503,0.0,0.0,0.0,0.0,0.0,0.0,0.0,0.0,0.0,0.0,0.0,0.0,0.0,0.0,5.1521,5.2983,5.3656,5.4075,5.4389,0.0,0.0,0.0,0.0,0.0,0.0,0.0,0.0,0.0,0.0,0.0,0.0,0.0,0.0,4.2523,4.3329,4.4028,0.0,0.0,0.0,0.0,0.0,0.0,0.0,0.0,4.8078,4.7931,4.7246,4.9749,5.0048,4.8553,4.9852,4.947,0.0,0.0,0.0,0.0,0.0,0.0,0.0,0.0,5.4246,5.4276,5.488,5.5628,5.6462,5.6521,5.6222,5.5551,5.5102,5.4012,5.2247,5.0762,5.0032,0.0,0.0,0.0,0.0,0.0,0.0,0.0,0.0,0.0,0.0,0.0,0.0,0.0,0.0,0.0,0.0,0.0,0.0,0.0,0.0,0.0,0.0,0.0,4.3654,0.0,0.0,0.0,0.0,0.0,0.0,0.0,0.0,0.0,5.0791,5.1402,5.193,5.1664,5.1915,5.2238,5.2449,0.0,0.0,0.0,0.0,0.0,0.0,0.0,5.5144,5.4103,5.4401,5.4494,5.3724,5.3196,5.286,5.286,0.0,0.0,5.3878,5.4343,5.47,5.4767,5.4348,5.4254,5.528,5.4687,5.4432,0.0,0.0,0.0,0.0,4.2618,0.0,0.0,0.0,4.4163,4.4511,0.0,4.5337,0.0,0.0,0.0,0.0,4.762,4.742,0.0,0.0,5.0744,5.0769,5.017,5.0833,5.0858,5.0267,5.0343,5.0714,5.1228,5.1463,0.0,0.0,0.0,0.0,0.0,0.0,5.6222,5.6252,5.6808,5.7124,5.7137,5.7124,5.6838,5.6192,5.4952,5.3623,5.2336,5.1636,5.0936,5.0267,4.8375,0.0,0.0,0.0,0.0,0.0,0.0,0.0,0.0,0.0,0.0,0.0,0.0,0.0,0.0,0.0,0.0,0.0,0.0,0.0,0.0,4.5351,0.0,0.0,0.0,0.0,0.0,0.0,0.0,0.0,0.0,5.2949,5.2198,5.226,5.2102,5.1443,0.0,0.0,0.0,0.0,5.5182,5.4877,5.675,5.7799,5.6917,5.6273,5.583,5.5754,0.0,0.0,5.4694,5.4799,5.4724,5.483,5.5173,5.4958,5.2398,5.2187,5.2258,5.2412,5.2403,5.208,5.2245,5.2644,5.2564,4.6632,0.0,0.0,0.0,0.0,4.5892,4.6192,4.6172,4.6363,4.6739,4.7232,4.7916,0.0,0.0,0.0,0.0,0.0,0.0,4.859,4.9564,4.9277,4.9254,4.9595,5.0679,5.1086,5.0966,5.2372,5.315,5.3384,5.4349,5.498,5.5324,0.0,0.0,0.0,0.0,5.7064,5.753,5.7739,5.7829,5.7799,5.7829,5.7304,5.6222,5.5371,5.4491,5.3653,5.2995,5.2097,5.0936,4.9535,0.0,0.0,0.0,0.0,0.0,0.0,0.0,0.0,0.0,0.0,0.0,0.0,0.0,0.0,0.0,0.0,0.0,0.0,0.0,4.5991,4.8732,5.0735,0.0,0.0,0.0,0.0,0.0,0.0,0.0,0.0,0.0,5.2899,5.2305,5.2079,0.0,0.0,5.3238,5.3879,5.4454,5.4755,5.4694,5.4712,0.0,5.4349,5.5125,5.5336,5.4177,5.364,5.3445,5.3651,5.367,5.37,5.3694,5.3822,5.3682,5.309,5.3867,5.4634,5.4807,5.4774,5.4752,5.4807,5.4732,5.4888,4.9183,4.8794,4.8188,4.7578,4.7149,4.7519,4.7859,4.8098,4.8109,4.8308,4.8708,4.9108,4.9067,4.8741,4.9819,0.0,0.0,0.0,4.9673,5.0815,5.0403,5.0463,5.0893,5.1905,5.2384,5.2444,5.3611,5.4341,5.461,5.5401,5.6209,5.6915,0.0,5.7274,5.9026,5.8291,5.8112,5.8487,5.8487,5.8487,5.8487,5.7979,5.7334,5.6568,5.5671,5.5012,5.461,5.3952,5.3234,5.2402,5.1139,5.0074,0.0,0.0,0.0,0.0,0.0,0.0,0.0,0.0,0.0,0.0,0.0,4.2297,4.4112,0.0,0.0,0.0,4.9155,4.9659,4.9781,5.1629,0.0,0.0,0.0,0.0,0.0,0.0,0.0,5.0016,5.234,5.397,5.3235,5.2708,5.2524,5.3031,5.339,5.3857,5.4545,0.0,5.4538,5.4812,5.4345,5.3994,5.4007,5.4836,5.5122,5.4165,5.3994,5.3994,5.4007,5.4007,5.3994,5.3994,5.3994,5.3994,5.3994,5.492,5.5433,5.4962,5.4838,5.4838,5.4838,5.4827,5.4962,5.1355,5.1158,4.8794,4.8117,4.8607,4.8678,4.9067,4.9587,4.9617,4.9587,4.9606,4.9617,4.9587,4.9587,4.8966,0.0,5.1325,5.0715,5.1427,5.3198,5.3198,5.3198,5.3228,5.3862,5.4209,5.4179,5.4359,5.473,5.5341,5.5478,5.6406,5.8145,5.8248,5.8607,5.9219,5.9219,5.9205,5.9279,5.9205,5.9129,5.8996,5.7752,5.7094,5.7094,5.591,5.5281,5.5281,5.464,5.4269,5.4149,5.3084,5.2408,5.2247,0.0,0.0,0.0,0.0,0.0,0.0,0.0,0.0,0.0,0.0,0.0,0.0,0.0,0.0,5.0538,5.1951,0.0,5.3256,5.3883,0.0,0.0,0.0,5.3776,5.3112,5.4184,5.4357,5.2742,0.0,0.0,5.3398,5.3276,5.3411,5.3694,5.3476,5.3558,5.4251,5.4408,5.461,5.5302,5.5371,5.5371,5.5329,5.5422,5.5447,5.5354,5.5341,5.5341,5.5341,5.5341,5.5329,5.5329,5.5341,5.5371,5.5329,5.5417,5.4982,5.3913,5.3571,5.3469,5.3692,5.3747,5.3843,5.2725,5.2677,5.2049,5.16,5.1319,5.1839,5.2109,5.227,5.2258,5.227,5.227,5.2258,5.2258,5.2258,5.2121,5.2288,5.2707,5.2558,5.2737,5.3169,5.3198,5.3198,5.3228,5.3892,5.4209,5.4299,5.573,5.6509,5.6718,5.7663,5.8397,5.886,5.9368,5.9967,6.0581,6.0116,6.0116,6.0611,6.0116,5.9368,5.8367,5.7513,5.7094,5.7107,5.6359,5.5983,5.5953,5.5311,5.473,5.4251,5.4371,5.4024,5.3037,5.3623,0.0,0.0,0.0,0.0,0.0,0.0,0.0,0.0,0.0,4.8499,5.0239,0.0,5.2992,0.0,5.3812,5.4462,5.4136,5.4064,0.0,0.0,5.4618,5.4607,5.4233,5.4494,5.4291,5.3163,5.3326,5.3664,5.3917,5.3982,5.4368,5.5373,5.461,5.4401,5.5521,5.5743,5.594,5.6509,5.6628,5.6658,5.6645,5.6645,5.6658,5.6658,5.6645,5.6658,5.6628,5.6658,5.6658,5.6645,5.6645,5.6658,5.6658,5.6658,5.6568,5.6179,5.5401,5.4892,5.5354,5.5486,5.5611,5.4773,5.4533,5.4546,5.4144,5.3516,5.3294,5.3198,5.3198,5.3198,5.3198,5.3198,5.3198,5.3198,5.3198,5.3198,5.3366,5.3623,5.3653,5.3964,5.4516,5.4546,5.4683,5.4952,5.5299,5.5495,5.5525,5.6585,5.7094,5.7184,5.8427,5.9099,5.9115,6.0086,6.0864,6.1479,6.0579,6.0579,6.1523,6.0894,6.0162,5.9444,5.8501,5.8411,5.9219,5.7556,5.703,5.7885,5.6462,5.573,5.5914,5.6017,5.5688,5.5012,5.5641,5.5641,0.0,0.0,0.0,0.0,0.0,0.0,0.0,0.0,0.0,0.0,0.0,5.4702,5.4918,5.5016,5.4911,5.4528,5.4332,5.4174,5.4137,5.4156,5.4156,5.3991,5.4235,5.4219,5.3697,5.4186,5.4665,5.5029,5.5341,5.5748,5.6509,5.6226,5.6213,5.6868,5.7034,5.7184,5.7513,5.7782,5.7992,5.7979,5.7992,5.8005,5.7992,5.7992,5.7992,5.8005,5.7992,5.7992,5.7992,5.7992,5.7992,5.7992,5.7992,5.7992,5.7902,5.7423,5.7004,5.7034,5.7034,5.7214,5.6791,5.6312,5.6312,5.597,5.5359,5.4174,5.3605,5.3468,5.3456,5.3456,5.3468,5.3558,5.3575,5.3575,5.3665,5.4012,5.4538,5.4568,5.5209,5.6282,5.6312,5.6611,5.7094,5.7197,5.7214,5.7244,5.7406,5.7496,5.7526,5.8726,5.9257,5.9167,6.0345,6.1184,6.1562,6.0434,6.0587,6.2061,6.1598,6.1313,6.121,6.0073,6.0326,6.1882,5.9009,5.8185,5.9831,5.7629,5.6838,5.7876,5.7423,5.7064,5.6987,5.7047,5.6555,0.0,5.5401,0.0,0.0,0.0,0.0,0.0,0.0,0.0,0.0,5.4417,5.5356,5.6854,5.5776,5.4931,5.473,5.4646,5.4263,5.356,5.3378,5.3408,5.3588,5.4114,5.4491,5.4568,5.5611,5.6312,5.6312,5.6778,5.7107,5.7393,5.7919,5.8414,5.8726,5.8577,5.8427,5.8547,5.9175,5.9787,5.9727,5.9697,5.9697,5.9668,5.9727,5.9608,5.9697,5.9697,5.9638,5.9668,5.9697,5.9668,5.9608,5.9638,5.9638,5.9697,5.9668,5.9338,5.8607,5.8487,5.8683,5.7047,5.6915,5.6928,5.6868,5.6705,5.6479,5.5777,5.4845,5.4832,5.4803,5.4862,5.5414,5.5623,5.5683,5.6149,5.6419,5.6555,5.6568,5.6675,5.6928,5.6928,5.6987,5.7137,5.7649,5.7919,5.7979,5.9009,5.9532,5.9561,6.0326,6.0168,5.9129,5.9903,5.9925,5.92,0.0,0.0,0.0,6.2525,6.2465,6.1926,6.1672,6.1702,6.2032,5.9907,0.0,5.9219,5.7752,5.7034,5.7274,5.7154,0.0,0.0,0.0,0.0,0.0,0.0,0.0,0.0,0.0,0.0,0.0,5.385,5.3898,5.4422,5.4561,5.5287,5.6777,5.6053,5.5463,5.5397,5.4728,5.4432,5.4768,5.4341,5.4431,5.5474,5.573,5.6013,5.6496,5.6765,5.6915,5.6987,5.7034,5.7556,5.862,5.9279,6.037,6.191,6.0715,6.0176,6.1134,6.1806,6.2285,6.2359,6.2285,6.2225,6.2345,6.2345,6.2315,6.2255,6.2285,6.2315,6.2285,6.2359,6.2329,6.2315,6.2345,6.2269,6.2329,6.2315,6.1806,6.013,6.0176,6.0731,5.889,5.8604,5.8574,5.8394,0.0,5.8082,5.7723,5.7094,5.6406,5.6149,5.6137,5.6192,5.6359,5.6641,5.6628,5.6808,5.7094,5.744,5.7782,5.8082,5.8424,5.8753,5.9085,5.9415,5.9512,5.9375,6.0183,6.0105,5.9184,5.9943,5.9683,5.8492,5.913,5.9333,5.9053,5.8915,5.9269,6.0104,6.1439,6.1968,6.1629,6.1941,6.257,6.3423,6.1299,0.0,0.0,0.0,0.0,0.0,0.0,0.0,0.0,5.8095,0.0,5.6688,5.6641,5.6521,5.6209,5.588,5.5551,5.5222,5.5179,5.4973,5.4449,5.4686,5.5219,5.6,5.567,5.5547,5.5838,5.5463,5.5431,5.603,5.5837,5.5927,5.6509,5.6628,5.6791,5.7107,5.7693,5.8082,5.8082,5.871,5.9458,6.0416,6.1178,6.206,6.3168,6.2704,6.2421,6.3334,6.3482,6.3662,6.3962,6.4036,6.4036,6.4036,6.4036,6.4036,6.4036,6.4036,6.4036,6.4036,6.4036,6.4036,6.4036,6.4036,6.4036,6.4036,6.4036,6.3782,6.2675,6.2526,6.275,6.055,6.0266,6.0266,5.9967,5.9458,5.9458,5.9458,5.9368,5.8008,0.0,0.0,5.7047,5.718,5.7616,5.7227,5.7317,5.7842,5.8397,5.8936,5.9474,5.9985,6.051,6.1076,6.0928,6.0719,6.0595,6.0742,5.9947,5.8432,5.9157,5.8907,5.7914,5.8323,5.8685,5.8869,5.8841,5.8418,5.7791,5.9882,6.1145,6.1389,6.1983,6.3147,6.4875,6.2677,6.2151,6.3558,6.0954,5.9953,6.1,5.9923,5.9458,5.9861,5.9279,5.8381,5.7184,5.6628,5.6149,5.5748,5.5718,5.5718,5.573,5.609,5.585,5.464,5.5149,5.5551,5.5551,5.5508,5.576,5.6312,5.6372,5.6551,5.7034,5.7094,5.7167,5.7423,5.7453,5.7573,5.7842,5.883,5.9444,5.9474,6.0475,6.1523,6.2195,6.2854,6.3722,6.4336,6.4425,6.4425,6.4889,6.4829,6.4784,6.5188,6.5368,6.5353,6.5368,6.5368,6.5368,6.5353,6.5353,6.5353,6.5368,6.5353,6.5368,6.5353,6.5368,6.5368,6.5323,6.5353,6.5353,6.5293,6.4919,6.4665,6.0011,6.094,6.097,6.091,6.0821,6.0821,6.0807,6.0701,5.9415,5.8816,5.886,5.9352,5.9591,5.9711,6.0176,6.0475,6.0551,6.0627,6.0731,6.0807,6.0615,6.0718,6.105,6.0224,6.0027,6.0353,5.9861,5.9479,5.9409,5.9488,5.8931,5.7772,5.7728,5.7254,5.6219,5.5863,5.5787,5.6029,5.9075,6.13,6.2527,6.2946,6.3581,6.4456,6.3456,6.2644,6.2361,6.1359,6.091,6.106,6.0386,5.9771,5.9249,5.8667,5.7889,5.7167,5.7047,5.7184,5.7636,5.7696,5.7709,5.7679,5.7244,5.6658,5.6013,5.6479,5.6825,5.6838,5.6795,5.6868,5.6987,5.7017,5.7107,5.7184,5.7154,5.7543,5.868,5.883,5.9205,6.0222,6.0671,6.0791,6.0894,6.1523,6.2331,6.2974,6.4066,6.5159,6.6071,6.6071,6.5787,6.5906,6.6281,6.6565,6.655,6.67,6.667,6.6715,6.67,6.6729,6.6729,6.6729,6.6729,6.6745,6.6745,6.6729,6.6729,6.6745,6.6729,6.6729,6.6729,6.67,6.67,6.6595,6.64,6.056,6.1086,6.1115,6.0677,6.0044,6.0779,6.11,6.1129,6.1225,6.0835,6.0192,6.0116,6.0296,6.0542,5.9654,5.9373,5.9667,5.9129,5.8873,5.8931,5.9395,5.9695,5.9828,5.9675,5.9657,5.9731,5.9554,5.8937,5.8063,5.8157,5.7635,5.652,5.6689,5.6534,5.5943,5.5789,5.5771,5.5979,5.794,5.9697,6.1134,6.2022,6.3132,6.4426,6.407,6.3801,6.3693,6.272,6.2195,6.2181,6.1194,6.0492,6.0192,5.9578,5.9039,5.8753,5.8381,5.8321,5.8607,5.8667,5.8637,5.8637,5.8367,5.8231,5.8318,5.7556,5.7094,5.7124,5.741,5.7782,5.8141,5.8514,5.886,5.9249,5.9279,5.9504,6.0013,6.0192,6.0432,6.103,6.1419,6.1792,6.2151,6.3034,6.3917,6.4605,6.5533,6.646,6.7403,6.7284,6.6954,6.667,6.6805,6.6939,6.7029,6.7343,6.7493,6.7553,6.7852,6.8062,6.8076,6.8092,6.8076,6.8076,6.8076,6.8076,6.8076,6.8076,6.8076,6.8076,6.8092,6.8076,6.8076,6.8092,6.7717,6.0495,6.0769,6.0769,6.0171,5.9317,6.031,6.074,6.0876,6.1815,6.1718,6.0792,6.037,6.0281,6.0192,5.8477,5.8016,5.842,5.7769,5.7496,5.7685,5.8475,5.8916,5.8943,5.9084,5.9005,5.8908,5.8831,5.7987,5.6678,5.6765,5.6465,5.5692,5.5993,5.6219,5.6219,5.6219,5.6219,5.6253,5.6917,5.801,5.9459,6.0575,6.206,6.3844,6.4058,6.4347,6.4785,6.3934,6.344,6.3482,6.2391,6.1688,6.1553,6.0894,6.0489,6.031,5.9847,5.9548,5.9548,5.9564,5.9534,5.9534,5.9548,5.9744,6.0116,5.8919,5.7992,5.8052,5.8577,5.9012,5.9504,5.998,6.0535,6.103,6.109,6.106,6.1299,6.1449,6.1642,6.1778,6.248,6.3243,6.3797,6.4874,6.5922,6.658,6.7148,6.7673,6.8107,6.8227,6.7972,6.7627,6.7463,6.7523,6.7478,6.7882,6.8181,6.8241,6.863,6.884,6.8884,6.8944,6.8974,6.8868,6.8819,6.8712,6.8817,6.8722,6.8615,6.8554,6.8508,6.8599,6.8584,6.8554,6.847,5.8667,5.9651,5.9737,5.9683,5.9525,5.9672,5.9709,5.9753,5.991,5.9882,5.9682,6.0236,5.96,5.8404,5.807,5.8206,5.8681,5.8647,5.8757,5.9083,5.9216,5.9287,5.921,5.8077,5.765,5.7823,5.6918,5.6441,5.628,5.632,5.625,5.6143,5.6175,5.6244,5.6244,5.6244,5.6244,5.6219,5.6275,5.7041,5.8455,5.8963,6.0233,6.2441,6.2825,6.3466,6.4589,6.4427,6.4517,6.4725,6.4082,6.3468,6.2914,6.2285,6.1672,6.112,6.097,6.091,6.094,6.091,6.091,6.091,6.094,6.097,6.106,6.088,6.0731,6.0731,6.0791,6.0747,6.091,6.1014,6.118,6.1329,6.1329,6.1343,6.2032,6.2555,6.3123,6.3707,6.4665,6.5667,6.5742,6.6775,6.7852,6.8405,6.8495,6.8645,6.8854,6.893,6.8944,6.8824,6.8778,6.8733,6.8703,6.8824,6.8851,6.8867,6.8974,6.9106,6.9134,6.9136,6.9018,6.9156,6.8854,6.8724,6.8537,6.8213,6.8154,6.8444,6.8399,6.8125,6.8018,6.8171,6.8194,5.7906,5.8442,5.8425,5.8398,5.8425,5.8442,5.8425,5.8508,5.926,5.8625,5.7178,5.8018,5.865,5.8888,5.7927,5.7583,5.7715,5.6777,5.6432,5.6659,5.686,5.7016,5.706,5.6836,5.6711,5.6854,5.6331,5.6138,5.6237,5.6502,5.6853,5.7173,5.7198,5.7223,5.7179,5.7223,5.7223,5.7223,5.7198,5.7513,5.8049,5.8419,5.9977,6.2556,6.3029,6.383,6.5167,6.5196,6.514,6.5261,6.483,6.447,6.4231,6.3962,6.3693,6.3409,6.3034,6.2975,6.3393,6.2705,6.2421,6.2765,6.281,6.2795,6.2825,6.3184,6.3409,6.3274,6.2376,6.1688,6.1762,6.2361,6.2795,6.2855,6.3154,6.3469,6.3782,6.4052,6.447,6.5099,6.5652,6.637,6.7104,6.8002,6.884,6.9363,6.9303,6.9152,6.9482,6.9588,6.9752,7.0019,6.998,6.9448,6.8925,6.9015,6.9099,6.909,6.9454,6.9789,6.9581,6.9902,7.0028,6.9611,6.9441,6.9344,6.9361,6.9221,6.9073,6.8982,6.9073,6.9073,6.9073,6.9073,6.909,5.7224,5.7224,5.7224,5.7224,5.7224,5.7198,5.7224,5.7327,5.8268,5.7431,5.5637,5.6441,5.7508,5.8333,5.7072,5.647,5.6479,5.5383,5.4881,5.5056,5.544,5.5634,5.5666,5.6018,5.6276,5.6401,5.6445,5.6502,5.6696,5.7029,5.7455,5.7851,5.7901,5.7901,5.7901,5.7901,5.7901,5.7876,5.7901,5.7901,5.7944,5.8152,5.9704,6.2443,6.2782,6.3793,6.5853,6.5737,6.5731,6.5885,6.5502,6.5278,6.5278,6.5114,6.4994,6.4964,6.456,6.447,6.4964,6.4111,6.3812,6.4216,6.4276,6.4276,6.4366,6.474,6.4964,6.4845,6.3693,6.2929,6.3005,6.3723,6.4231,6.4291,6.474,6.4994,6.4964,6.5114,6.5518,6.6161,6.67,6.7282,6.8369,6.9021,6.9464,6.9904,6.9647,6.9438,6.9934,7.0051,7.0103,7.0553,7.0383,6.9945,6.9131,6.926,6.9394,6.9385,6.9825,7.0065,6.9952,7.0367,7.0563,6.9779,7.0061,6.9959,6.9488,6.954,6.9545,6.9558,6.9524,6.9432,6.9311,6.9524,6.9178,5.6246,5.6275,5.6282,5.6316,5.63,5.6305,5.6293,5.6374,5.6424,5.6275,5.6123,5.6232,5.6312,5.6421,5.5456,5.5059,5.5451,5.543,5.5616,5.6018,5.6143,5.6194,5.615,5.62,5.6477,5.6953,5.6979,5.7255,5.775,5.7851,5.7876,5.7951,5.7976,5.7951,5.7976,5.8001,5.7926,5.8027,5.8027,5.7951,5.7951,5.797,5.9156,6.1298,6.1528,6.2967,6.5529,6.5976,6.6229,6.6878,6.6265,6.5966,6.5922,6.5398,6.5084,6.5054,6.4994,6.4964,6.5054,6.4904,6.4874,6.4934,6.4964,6.4934,6.4979,6.5084,6.5174,6.5054,6.5024,6.4874,6.4874,6.4889,6.5009,6.5024,6.5054,6.5144,6.5144,6.5906,6.6251,6.7028,6.8028,6.8901,7.0016,7.0015,6.9976,7.015,7.0048,6.9936,7.0123,7.0065,6.9992,6.9959,7.0002,7.0005,7.0163,6.9835,6.9742,6.9639,6.9573,6.9869,6.9903,6.9936,6.9903,6.9803,6.9654,6.9487,6.9303,6.9152,6.9001,6.89,6.8731,6.8714,6.855,6.8714,6.8176,5.6219,5.6219,5.6219,5.6219,5.6219,5.6219,5.6219,5.6219,5.6219,5.6219,5.6219,5.6219,5.6219,5.6175,5.5817,5.5742,5.5917,5.5917,5.6,5.6226,5.6552,5.6728,5.6734,5.7097,5.7374,5.7531,5.76,5.7857,5.8359,5.8409,5.8604,5.888,5.893,5.8924,5.893,5.8905,5.893,5.893,5.893,5.895,5.888,5.893,5.9619,6.0963,6.1306,6.2543,6.5029,6.5483,6.6061,6.6898,6.6552,6.6426,6.6579,6.643,6.6281,6.6251,6.5877,6.5817,6.6086,6.5458,6.5203,6.5607,6.5637,6.5622,6.5727,6.5996,6.6281,6.6325,6.67,6.6879,6.6729,6.6191,6.5817,6.6236,6.667,6.7013,6.7478,6.7807,6.8088,6.8554,6.9195,6.9726,6.9894,6.9969,6.9952,7.0035,6.9969,6.9952,7.0018,6.9969,6.9853,6.9836,6.9687,6.9554,6.9637,6.9591,6.9487,6.9337,6.927,6.9253,6.927,6.952,6.9541,6.877,6.8685,6.8635,6.838,6.8312,6.8239,6.8227,6.8056,6.7374,6.734,6.7034,6.6202,5.6219,5.6219,5.6219,5.6219,5.6219,5.6219,5.6219,5.6219,5.6219,5.6219,5.6219,5.6219,5.6219,5.6244,5.6376,5.6477,5.6426,5.6301,5.6294,5.6477,5.6853,5.7085,5.733,5.77,5.7983,5.8177,5.8353,5.8629,5.8911,5.8961,5.9137,5.9458,5.9527,5.9527,5.9527,5.9527,5.9527,5.9527,5.9527,5.9502,5.9527,5.9527,5.9788,6.0413,6.0946,6.2367,6.4645,6.5155,6.5847,6.6722,6.6837,6.6853,6.6983,6.6999,6.6953,6.6801,6.6412,6.6306,6.6512,6.5827,6.5574,6.6098,6.6143,6.6204,6.631,6.6729,6.7074,6.7343,6.7688,6.8016,6.7951,6.7292,6.6979,6.7396,6.7767,6.8151,6.8566,6.858,6.8752,6.9061,6.9418,6.9648,6.9687,6.9587,6.9587,6.967,6.962,6.957,6.967,6.9587,6.9537,6.952,6.9287,6.882,6.8436,6.813,6.8702,6.8731,6.8596,6.8596,6.8295,6.8639,6.8538,6.7805,6.7495,6.7467,6.7449,6.7409,6.7374,6.7391,6.664,6.5751,6.5467,6.5039,6.4319,5.6219,5.6219,5.6219,5.6219,5.6219,5.6219,5.6219,5.6219,5.6219,5.6219,5.6219,5.6219,5.6226,5.6326,5.6709,5.696,5.6953,5.6577,5.6627,5.701,5.7111,5.743,5.7901,5.8027,5.8284,5.871,5.9207,5.9452,5.9433,5.9408,5.9458,5.9483,5.9527,5.9527,5.9527,5.9527,5.9508,5.9558,5.9583,5.9603,5.9527,5.9583,5.9636,5.9741,6.0428,6.2067,6.4757,6.5024,6.563,6.6731,6.7155,6.7237,6.7084,6.6966,6.683,6.6612,6.649,6.6305,6.6086,6.5981,6.6035,6.6309,6.6446,6.6495,6.6695,6.6861,6.7146,6.7638,6.7923,6.8099,6.8349,6.8327,6.8268,6.8343,6.8181,6.8079,6.7945,6.7867,6.8121,6.8618,6.879,6.9157,6.9119,6.8816,6.8697,6.8854,6.8787,6.8714,6.8787,6.8516,6.8596,6.8562,6.8107,6.7449,6.6947,6.657,6.7443,6.8056,6.7936,6.7782,6.686,6.6762,6.6454,6.5839,6.5662,6.5662,6.5715,6.5627,6.5396,6.5235,6.4572,6.4202,6.3875,6.3492,6.2839,5.6527,5.6219,5.6219,5.6219,5.6219,5.6219,5.6219,5.6219,5.6219,5.6219,5.6219,5.6219,5.6401,5.6728,5.6935,5.723,5.76,5.7449,5.7474,5.7656,5.8008,5.8234,5.8459,5.883,5.9081,5.9257,5.9408,5.9527,5.9527,5.9527,5.9527,5.9527,5.9527,5.9527,5.9527,5.9508,5.9659,6.0035,6.006,6.0261,6.0563,6.0242,6.006,6.0069,6.0009,6.0878,6.2728,6.4048,6.521,6.6228,6.7009,6.746,6.7468,6.6778,6.6494,6.6696,6.6355,6.6132,6.6007,6.5992,6.6007,6.6132,6.6148,6.6195,6.6288,6.6365,6.6616,6.7192,6.7636,6.8119,6.8614,6.89,6.8769,6.8745,6.8634,6.8225,6.7593,6.6532,6.6405,6.7153,6.6551,6.5882,6.6051,6.6413,6.7259,6.7363,6.7277,6.7277,6.7225,6.6553,6.5662,6.5627,6.5556,6.5814,6.5217,6.4796,6.5182,6.5849,6.6026,6.6149,6.5378,6.4842,6.45,6.402,6.3884,6.3829,6.3884,6.3847,6.3592,6.3501,6.3244,6.2894,6.2543,6.1984,6.1354,5.7129,5.6846,5.6846,5.6846,5.6828,5.6828,5.6846,5.6846,5.6846,5.6846,5.6828,5.6846,5.7004,5.733,5.7556,5.7832,5.8183,5.8378,5.8497,5.8478,5.856,5.8786,5.8987,5.9332,5.9527,5.9527,5.9527,5.9527,5.9527,5.9527,5.9527,5.9527,5.9527,5.9653,5.9759,5.9809,6.0066,6.0563,6.0618,6.0833,6.1059,6.0814,6.0638,6.0588,6.0311,6.0535,6.1361,6.297,6.4496,6.5729,6.6809,6.7546,6.78,6.7171,6.6724,6.6584,6.6376,6.6021,6.5721,6.5583,6.5694,6.5772,6.5819,6.5882,6.6019,6.6139,6.6468,6.6465,6.7009,6.7401,6.736,6.7427,6.7433,6.7152,6.7581,6.7732,6.7025,6.5616,6.5358,6.6065,6.5386,6.4446,6.45,6.486,6.5627,6.5644,6.5627,6.5644,6.5467,6.4895,6.4373,6.4129,6.4536,6.4337,6.3492,6.3162,6.3023,6.3372,6.3738,6.3884,6.3629,6.3327,6.3015,6.2115,6.1711,6.1617,6.1673,6.1861,6.1786,6.1786,6.1823,6.1316,6.0869,6.0526,6.0105,5.7926,5.7901,5.7876,5.7826,5.7801,5.7801,5.7775,5.7826,5.7826,5.7775,5.7801,5.7725,5.7851,5.8052,5.8334,5.8585,5.8811,5.9156,5.9351,5.9232,5.9081,5.9012,5.9382,5.9483,5.9502,5.9527,5.9527,5.9527,5.9527,5.9527,5.9527,5.9527,5.9527,5.9759,6.0116,6.0267,6.0568,6.114,6.1235,6.1285,6.1366,6.126,6.126,6.1235,6.111,6.0893,6.0882,6.2118,6.3734,6.5418,6.667,6.7353,6.7828,6.7886,6.7281,6.6672,6.6509,6.606,6.5398,6.5414,6.551,6.5749,6.5797,6.5703,6.6156,6.6268,6.6219,6.5796,6.6019,6.5886,6.5119,6.501,6.4813,6.4355,6.5267,6.5907,6.6219,6.4824,6.4274,6.5217,6.4895,6.3866,6.3537,6.3793,6.402,6.4057,6.4066,6.4066,6.3938,6.3665,6.3811,6.3574,6.306,6.2654,6.176,6.1692,6.1523,6.1561,6.1861,6.1973,6.2048,6.1816,6.1591,6.066,6.015,5.9907,5.9888,6.0361,6.0437,6.0399,6.015,5.9599,5.9527,5.9547,5.9703,5.8278,5.7926,5.7901,5.7901,5.7901,5.7901,5.7901,5.7901,5.7926,5.7976,5.7926,5.7901,5.8177,5.8485,5.8635,5.8886,5.9232,5.9452,5.9527,5.9502,5.9382,5.9357,5.9483,5.9527,5.9527,5.9527,5.9527,5.9527,5.9527,5.9527,5.9527,5.9527,5.9533,5.9784,6.0217,6.0342,6.0844,6.1642,6.1793,6.1994,6.2225,6.1943,6.1793,6.1768,6.1416,6.114,6.1072,6.2065,6.3851,6.5953,6.6019,6.6848,6.8236,6.7777,6.7336,6.7371,6.6952,6.6662,6.6389,6.6188,6.6331,6.6491,6.6159,6.6568,6.6617,6.5737,6.5441,6.5213,6.4812,6.4211,6.4228,6.4229,6.372,6.2709,6.3056,6.3664,6.412,6.2487,6.1316,6.2543,6.1786,6.1165,6.1222,6.1823,6.2413,6.245,6.2431,6.2431,6.232,6.1748,6.1542,6.0983,6.0533,6.0412,6.0227,6.015,6.008,6.0003,6.0131,6.0323,6.038,6.0342,6.0112,5.9676,5.9811,5.9657,5.9599,5.9811,5.9541,5.9527,5.9527,5.9527,5.9527,5.9527,5.9809,5.8855,5.8579,5.8579,5.8579,5.8579,5.8579,5.8579,5.8598,5.8579,5.8579,5.8579,5.8579,5.8755,5.9031,5.9056,5.9207,5.9502,5.9527,5.9527,5.9527,5.9502,5.9483,5.9527,5.9527,5.9527,5.9527,5.9527,5.9527,5.9527,5.9527,5.9527,5.9578,5.9734,6.0136,6.0688,6.0964,6.1421,6.2195,6.2345,6.2526,6.2731,6.2501,6.2375,6.23,6.2019,6.1793,6.1651,6.1681,6.287,6.495,6.5814,6.6804,6.8463,6.8143,6.7783,6.7882,6.6919,6.6201,6.5855,6.5384,6.4951,6.4973,6.5131,6.5295,6.518,6.4597,6.4478,6.3739,6.3233,6.2921,6.2599,6.2768,6.2472,6.1813,6.155,6.2031,6.3103,6.1096,6.045,6.0926,6.0526,5.9527,5.9527,6.0361,6.0698,6.0831,6.0831,6.085,6.0755,5.9926,5.9527,5.9527,5.9527,5.9714,5.983,5.9772,5.9753,5.956,5.9547,5.9527,5.9527,5.9527,5.9527,5.9547,5.9527,5.9527,5.9527,5.9527,5.9527,5.9527,5.9527,5.9527,5.9527,5.9527,5.9809,5.9527,5.9502,5.9502,5.9527,5.9477,5.9502,5.9382,5.9477,5.9402,5.9408,5.9408,5.9477,5.9382,5.9527,5.9427,5.9502,5.9527,5.9527,5.9527,5.9527,5.9527,5.9527,5.9527,5.9527,5.9527,5.9527,5.9527,5.9578,5.9633,5.9633,5.9684,5.9885,6.0236,6.0688,6.1215,6.1692,6.2225,6.2626,6.2701,6.2727,6.2802,6.2727,6.2701,6.2676,6.2676,6.235,6.1843,6.1387,6.1833,6.4045,6.5354,6.6441,6.7908,6.8279,6.8055,6.7421,6.6261,6.5334,6.4798,6.4019,6.3068,6.3401,6.3648,6.3316,6.3757,6.3858,6.3346,6.2281,6.2162,6.1607,6.1022,6.098,6.132,6.1261,6.1243,6.1397,6.1318,6.0418,6.0111,6.1247,6.0227,5.9676,5.9527,5.9527,5.956,6.0112,6.0016,6.0055,6.0055,5.9753,5.9527,5.9527,5.9527,5.9527,5.9541,5.9566,5.9541,5.9527,5.9527,5.9527,5.9527,5.9527,5.9527,5.9527,5.9527,5.9527,5.9527,5.9527,5.9527,5.9527,5.9527,5.9527,5.9527,5.9527,5.9684,5.9527,5.9527,5.9527,5.9527,5.9527,5.9527,5.9527,5.9527,5.9527,5.9527,5.9527,5.9527,5.9527,5.9527,5.9527,5.9527,5.9527,5.9527,5.9527,5.9527,5.9527,5.9527,5.9527,5.9527,5.9527,5.9527,5.9527,5.9709,5.9985,6.0016,6.0337,6.0688,6.0763,6.1285,6.1718,6.1943,6.225,6.2701,6.2802,6.2802,6.2802,6.2802,6.2802,6.2802,6.2802,6.2526,6.2119,6.1768,6.2312,6.3194,6.3319,6.4034,6.5643,6.5718,6.5864,6.6107,6.5663,6.5163,6.5336,6.4933,6.494,6.452,6.4489,6.5049,6.4507,6.3423,6.2682,6.1717,6.0864,6.0459,6.0515,6.0889,6.124,6.1341,6.128,6.1103,6.0703,6.0325,6.0201,5.9995,5.9811,5.9527,5.9527,5.9527,5.9527,5.9527,5.9527,5.9527,5.9527,5.9527,5.9527,5.9527,5.9527,5.9527,5.9527,5.9527,5.9527,5.9527,5.9527,5.9527,5.9527,5.9527,5.9527,5.9527,5.9527,5.9527,5.9527,5.9527,5.9527,5.9527,5.9527,5.9527,5.9527,5.9527,5.9703,5.9527,5.9527,5.9527,5.9527,5.9527,5.9527,5.9527,5.9527,5.9527,5.9527,5.9527,5.9527,5.9527,5.9527,5.9527,5.9527,5.9527,5.9508,5.9659,5.9759,5.9684,5.9633,5.9784,5.9628,5.9527,5.9527,5.9527,5.9684,5.9859,6.001,6.001,6.0462,6.0914,6.124,6.1743,6.2119,6.2501,6.2727,6.2802,6.2802,6.2802,6.2802,6.2802,6.2802,6.2802,6.2651,6.24,6.2119,6.2304,6.2462,6.2064,6.2719,6.4831,6.5105,6.5276,6.5527,6.4806,6.4473,6.4607,6.4059,6.347,6.3747,6.3873,6.3854,6.3489,6.2561,6.1987,6.1409,6.072,6.0186,6.0995,6.1642,6.1893,6.1893,6.1712,6.1316,6.0814,6.0487,6.0091,5.9659,5.9541,5.9527,5.9527,5.9527,5.9527,5.9527,5.9527,5.9527,5.9527,5.9527,5.9527,5.9527,5.9527,5.9527,5.9527,5.9527,5.9527,5.9527,5.9527,5.9527,5.9527,5.9527,5.9527,5.9527,5.9527,5.9527,5.9527,5.9527,5.9527,5.9527,5.9527,5.9527,5.9527,5.9527,5.9759,5.9527,5.9527,5.9527,5.9527,5.9527,5.9527,5.9527,5.9527,5.9527,5.9527,5.9527,5.9527,5.9527,5.9527,5.9527,5.9527,5.9578,5.9854,6.0111,6.0141,6.006,6.0161,6.0286,6.0111,5.9929,5.9778,5.9709,5.9784,6.001,5.991,6.0437,6.0311,6.0964,6.1617,6.1768,6.225,6.2777,6.2802,6.2802,6.2802,6.2802,6.2802,6.2802,6.2802,6.2802,6.2802,6.2651,6.24,6.2185,6.2074,6.1692,6.2914,6.4461,6.5103,6.5264,6.5139,6.3938,6.3486,6.3389,6.2544,6.1836,6.1461,6.1918,6.214,6.2049,6.173,6.1311,6.0986,6.0543,6.0543,6.1622,6.1943,6.2275,6.2325,6.2049,6.1667,6.1115,6.0588,6.0091,5.9633,5.9527,5.9527,5.9527,5.9527,5.9527,5.9527,5.9527,5.9527,5.9527,5.9527,5.9527,5.9527,5.9527,5.9527,5.9527,5.9527,5.9527,5.9527,5.9527,5.9527,5.9527,5.9527,5.9527,5.9527,5.9527,5.9527,5.9527,5.9527,5.9527,5.9527,5.9527,5.9527,5.9527,5.9527,5.9759,5.9527,5.9527,5.9527,5.9527,5.9527,5.9527,5.9527,5.9527,5.9527,5.9527,5.9527,5.9527,5.9527,5.9527,5.9527,5.9527,5.9709,6.0211,6.0588,6.0543,6.0613,6.0909,6.0939,6.0808,6.0788,6.0783,6.0537,6.0638,6.1215,6.1592,6.1366,6.2024,6.2275,6.2375,6.2375,6.2752,6.2802,6.2802,6.2802,6.2802,6.2802,6.2802,6.2802,6.2802,6.2802,6.2802,6.2802,6.2727,6.2676,6.2651,6.2576,6.282,6.323,6.2771,6.2822,6.3191,6.2941,6.2691,6.2815,6.2729,6.2501,6.2551,6.2576,6.2375,6.2044,6.1562,6.1115,6.0613,6.0417,6.0417,6.0543,6.1266,6.1466,6.1466,6.1391,6.1115,6.0618,6.0292,6.0041,5.9583,5.9527,5.9527,5.9527,5.9527,5.9527,5.9527,5.9527,5.9527,5.9527,5.9527,5.9527,5.9527,5.9527,5.9527,5.9527,5.9527,5.9527,5.9527,5.9527,5.9527,5.9527,5.9527,5.9527,5.9527,5.9527,5.9527,5.9527,5.9527,5.9527,5.9527,5.9527,5.9527,5.9527,5.9527,5.9527,5.9527,5.9527,5.9527,5.9527,5.9527,5.9527,5.9527,5.9527,5.9527,5.9527,5.9527,5.9527,5.9527,5.9527,5.9527,5.9653,6.0035,6.0387,6.0869,6.107,6.1235,6.1386,6.1517,6.1366,6.1436,6.1441,6.1341,6.1215,6.1542,6.1537,6.1818,6.1943,6.2225,6.24,6.2476,6.2626,6.2777,6.2802,6.2802,6.2802,6.2802,6.2802,6.2802,6.2802,6.2802,6.2802,6.2752,6.2476,6.2551,6.2676,6.2526,6.2576,6.2551,6.245,6.2245,6.2626,6.2551,6.2501,6.2752,6.2802,6.2777,6.2777,6.2802,6.2701,6.235,6.1918,6.119,6.0518,6.0292,6.0292,6.0367,6.0814,6.1115,6.1135,6.0934,6.0613,6.0317,6.0041,5.9784,5.9533,5.9508,5.9527,5.9527,5.9527,5.9527,5.9527,5.9527,5.9527,5.9527,5.9527,5.9527,5.9527,5.9527,5.9527,5.9527,5.9527,5.9527,5.9527,5.9527,5.9527,5.9527,5.9527,5.9527,5.9527,5.9527,5.9527,5.9527,5.9527,5.9527,5.9527,5.9527,5.9527,5.9527,5.9527,5.9527,5.9527,5.9527,5.9527,5.9527,5.9527,5.9527,5.9527,5.9527,5.9527,5.9527,5.9527,5.9527,5.9527,5.9552,5.9659,5.9859,6.0217,6.0392,6.1165,6.1542,6.1692,6.1818,6.1918,6.1843,6.1793,6.2094,6.1893,6.1843,6.1793,6.1718,6.1592,6.1843,6.2074,6.2149,6.2325,6.2651,6.2777,6.2802,6.2802,6.2802,6.2802,6.2802,6.2802,6.2802,6.2802,6.2752,6.2551,6.2275,6.2149,6.225,6.2199,6.2199,6.2576,6.2752,6.2752,6.2656,6.2752,6.2802,6.2802,6.2802,6.2802,6.2802,6.2802,6.2802,6.2576,6.2024,6.1316,6.0417,6.0116,6.0111,6.0111,6.0537,6.0738,6.0688,6.0387,6.0091,5.9991,5.9834,5.9659,5.9527,5.9527,5.9527,5.9527,5.9527,5.9527,5.9527,5.9527,5.9527,5.9527,5.9527,5.9527,5.9527,5.9527,5.9527,5.9527,5.9527,5.9527,5.9527,5.9527,5.9527,5.9527,5.9527,5.9527,5.9527,5.9527,5.9527,5.9527,5.9527,5.9527,5.9527,5.9527,5.9527,5.9527,5.9527,5.9527,5.9527,5.9527,5.9527,5.9527,5.9527,5.9527,5.9527,5.9527,5.9527,5.9527,5.9527,5.9527,5.9527,5.9583,5.996,5.9935,6.0136,6.0864,6.1416,6.1567,6.2094,6.2425,6.2651,6.2656,6.245,6.2551,6.2245,6.232,6.23,6.2375,6.2476,6.245,6.2425,6.2676,6.2626,6.2727,6.2802,6.2802,6.2802,6.2752,6.2727,6.2727,6.2752,6.2752,6.2777,6.2651,6.2325,6.2094,6.1969,6.1642,6.1893,6.1999,6.2169,6.2576,6.2476,6.24,6.2496,6.2802,6.2752,6.2777,6.2752,6.2727,6.2727,6.2777,6.2425,6.1768,6.0839,5.9753,5.9633,5.9659,5.9728,5.9728,5.9753,5.9829,5.9809,5.9684,5.9608,5.9709,5.9552,5.9527,5.9527,5.9527,5.9527,5.9527,5.9527,5.9527,5.9527,5.9527,5.9527,5.9527,5.9527,5.9527,5.9527,5.9527,5.9527,5.9527,5.9527,5.9527,5.9527,5.9527,5.9527,5.9527,5.9527,5.9527,5.9527,5.9527,5.9527,5.9527,5.9527,5.9527,5.9527,5.9527,5.9527,5.9527,5.9527,5.9527,5.9527,5.9527,5.9527,5.9527,5.9527,5.9527,5.9527,5.9527,5.9527,5.9527,5.9527,5.9527,5.9558,5.9784,5.991,6.0085,6.0744,6.1321,6.1567,6.2099,6.2501,6.2727,6.2802,6.2802,6.2676,6.2601,6.2551,6.2626,6.2199,6.1999,6.2375,6.24,6.2501,6.2752,6.2802,6.2802,6.2727,6.2501,6.2174,6.2049,6.2195,6.237,6.2375,6.2626,6.2576,6.2375,6.2119,6.2099,6.1969,6.2149,6.2149,6.24,6.2676,6.2676,6.2526,6.235,6.235,6.235,6.2601,6.2576,6.24,6.2325,6.2174,6.1823,6.1215,6.0588,6.006,5.9659,5.9533,5.9527,5.9527,5.9527,5.9527,5.9527,5.9527,5.9527,5.9527,5.9527,5.9527,5.9527,5.9527,5.9527,5.9527,5.9527,5.9527,5.9527,5.9527,5.9527,5.9527,5.9527,5.9527,5.9527,5.9527,5.9527,5.9527,5.9527,5.9527,5.9527,5.9527,5.9527,5.9527,5.9527,5.9527,5.9527,5.9527,5.9527,5.9527,5.9527,5.9527,5.9527,5.9527,5.9527,5.9527,5.9527,5.9527,5.9527,5.9527,5.9527,5.9527,5.9527,5.9527,5.9527,5.9527,5.9527,5.9527,5.9527,5.9527,5.9527,5.9533,5.9709,6.0066,6.0242,6.0769,6.1366,6.1768,6.2019,6.2169,6.2325,6.2325,6.24,6.1948,6.1948,6.1723,6.1441,6.124,6.2144,6.235,6.2476,6.2676,6.2626,6.2526,6.2501,6.24,6.2124,6.1893,6.1918,6.2019,6.2094,6.2225,6.2325,6.2149,6.1773,6.1748,6.1572,6.1572,6.1572,6.1873,6.2074,6.2074,6.1918,6.1622,6.1391,6.1517,6.1743,6.2069,6.1969,6.1743,6.1592,6.1065,6.0537,6.0166,5.9991,5.9734,5.9533,5.9527,5.9527,5.9527,5.9527,5.9527,5.9527,5.9502,5.9452,5.9477,5.9527,5.9527,5.9527,5.9527,5.9527,5.9527,5.9527,5.9527,5.9527,5.9527,5.9527,5.9527,5.9527,5.9527,5.9527,5.9527,5.9527,5.9527,5.9527,5.9527,5.9527,5.9527,5.9527,5.9527,5.9527,5.9527,5.9527,5.9527,5.9527,5.9527,5.9527,5.9527,5.9527,5.9527,5.9527,5.9527,5.9527,5.9527,5.9527,5.9527,5.9527,5.9527,5.9527,5.9527,5.9527,5.9527,5.9527,5.9527,5.9527,5.9527,5.9527,5.9533,5.9608,6.0085,6.0367,6.0663,6.0964,6.1311,6.1492,6.1517,6.1441,6.1341,6.1221,6.0919,6.0518,6.0588,6.119,6.2425,6.2174,6.2531,6.2576,6.2199,6.1974,6.2024,6.2074,6.23,6.2074,6.1999,6.1843,6.1793,6.1492,6.1065,6.0563,6.0688,6.0563,6.0317,6.0537,6.0568,6.0844,6.1115,6.109,6.0839,6.0568,6.0286,6.0236,6.0738,6.1185,6.126,6.1059,6.0708,6.0161,6.0242,6.0016,5.9533,5.9232,5.9307,5.9377,5.9502,5.9357,5.9207,5.9182,5.9307,5.9307,5.9332,5.9357,5.9477,5.9527,5.9527,5.9527,5.9527,5.9527,5.9527,5.9527,5.9527,5.9527,5.9527,5.9527,5.9527,5.9527,5.9527,5.9527,5.9527,5.9527,5.9527,5.9527,5.9527,5.9527,5.9527,5.9527,5.9527,5.9527,5.9527,5.9527,5.9527,5.9527,5.9527,5.9527,5.9527,5.9527,5.9527,5.9527,5.9527,5.9527,5.9527,5.9527,5.9527,5.9527,5.9527,5.9527,5.9527,5.9527,5.9527,5.9527,5.9527,5.9527,5.9527,5.9527,5.9552,5.9684,6.001,6.0267,6.0543,6.0839,6.1014,6.1115,6.119,6.111,6.0889,6.0839,6.0864,6.0387,6.0858,6.1567,6.1497,6.1567,6.1542,6.1667,6.1391,6.1095,6.1145,6.117,6.0839,6.097,6.0964,6.0894,6.1266,6.1085,6.0934,6.0864,6.0493,6.0141,6.0116,5.9966,5.9809,6.0035,5.9985,5.9734,5.9514,5.9187,5.9137,5.9633,5.9985,5.9608,5.9357,5.9131,5.9031,5.8905,5.8761,5.8554,5.8623,5.873,5.8554,5.878,5.8886,5.871,5.8755,5.8956,5.9081,5.9131,5.9307,5.9433,5.9502,5.9527,5.9527,5.9527,5.9527,5.9527,5.9527,5.9527,5.9527,5.9527,5.9527,5.9527,5.9527,5.9527,5.9527,5.9527,5.9527,5.9527,5.9527,5.9527,5.9527,5.9527,5.9527,5.9527,5.9527,5.9527,5.9527,5.9527,5.9527,5.9527,5.9527,5.9527,5.9527,5.9527,5.9527,5.9527,5.9527,5.9527,5.9527,5.9527,5.9527,5.9527,5.9527,5.9527,5.9527,5.9527,5.9527,5.9527,5.9527,5.9527,5.9527,5.9527,5.9578,5.9759,5.9935,6.0111,6.0337,6.0563,6.0638,6.0532,6.0708,6.0708,6.0607,6.0487,6.0638,6.0632,6.0507,6.0362,6.0588,6.1115,6.114,6.0889,6.0442,6.0442,6.0412,6.0186,6.0236,6.0211,6.0116,6.0261,6.0085,5.9954,5.9784,5.9709,5.9483,5.9408,5.9288,5.9131,5.9006,5.9006,5.883,5.856,5.8215,5.8334,5.861,5.8855,5.8629,5.8328,5.8102,5.7901,5.8027,5.8409,5.8309,5.8227,5.8102,5.8077,5.8409,5.8409,5.8252,5.8328,5.8485,5.8736,5.8861,5.9156,5.9408,5.9458,5.9527,5.9527,5.9527,5.9527,5.9527,5.9527,5.9527,5.9527,5.9527,5.9527,5.9527,5.9527,5.9527,5.9527,5.9527,5.9527,5.9527,5.9527,5.9527,5.9527,5.9578,5.9552,5.9527,5.9527,5.9527,5.9527,5.9508,5.9527,5.9527,5.9527,5.9527,5.9527,5.9527,5.9527,5.9502,5.9527,5.9527,5.9527,5.9527,5.9527,5.9527,5.9527,5.9527,5.9527,5.9527,5.9527,5.9527,5.9527,5.9527,5.9527,5.9527,5.9527,5.9578,5.9633,5.9684,5.9653,5.9678,5.9778,5.9904,5.9628,5.9753,5.9854,5.9684,5.9854,5.9778,5.9753,5.9784,6.0035,6.104,6.1185,6.0864,6.0442,6.0788,6.0788,6.0663,6.0337,5.996,5.9539,5.9288,5.9087,5.873,5.8629,5.8529,5.8309,5.8234,5.8127,5.7951,5.7901,5.7901,5.7876,5.7405,5.7136,5.7154,5.7656,5.7851,5.7826,5.7549,5.76,5.7876,5.8133,5.8234,5.7857,5.8133,5.8334,5.8334,5.8183,5.7926,5.775,5.7757,5.8058,5.8309,5.851,5.8805,5.9307,5.9477,5.9527,5.9527,5.9527,5.9527,5.9527,5.9527,5.9527,5.9527,5.9527,5.9527,5.9527,5.9527,5.9527,5.9527,5.9527,5.9527,5.9527,5.9628,5.9734,5.9809,5.9935,5.9834,5.9628,5.9608,5.9734,5.9608,5.9508,5.9709,5.991,5.9578,5.9527,5.9527,5.9603,5.9684,5.9182,5.9527,5.9527,5.9527,5.9527,5.9527,5.9527,5.9527,5.9527,5.9527,5.9527,5.9527,5.9527,5.9527,5.9527,5.9527,5.9527,5.9527,5.9527,5.9527,5.9527,5.9527,5.9527,5.9527,5.9527,5.9527,5.9527,5.9527,5.9552,5.9477,5.9502,5.9527,5.9377,5.9684,5.996,6.006,5.991,5.9834,5.996,6.0055,6.006,5.9859,5.9489,5.8987,5.8736,5.8334,5.7826,5.775,5.7606,5.7355,5.7305,5.7198,5.6972,5.6897,5.6846,5.6846,5.6527,5.6677,5.6878,5.723,5.7104,5.6979,5.6947,5.6972,5.6846,5.6922,5.7004,5.7154,5.7355,5.7305,5.6922,5.7255,5.7154,5.6878,5.6979,5.7556,5.7882,5.8077,5.8372,5.9125,5.9527,5.9527,5.9527,5.9527,5.9527,5.9527,5.9527,5.9527,5.9527,5.9527,5.9527,5.9527,5.9527,5.9527,5.9527,5.9527,5.9653,5.9759,6.001,6.0292,6.0362,6.0186,6.0136,5.991,5.9935,5.996,5.9834,5.9809,6.0236,6.0362,6.0035,5.9778,5.9759,5.991,6.0085,5.861,5.893,5.893,5.9056,5.9232,5.9408,5.9527,5.9527,5.9527,5.9527,5.9527,5.9527,5.9527,5.9527,5.9527,5.9527,5.9527,5.9527,5.9527,5.9527,5.9527,5.9527,5.9527,5.9527,5.9527,5.9527,5.9527,5.9527,5.9502,5.9307,5.9081,5.8905,5.8975,5.888,5.9031,5.9232,5.9583,5.9583,5.9678,5.9628,5.9533,5.9307,5.8961,5.851,5.8133,5.7807,5.743,5.723,5.7154,5.6853,5.6677,5.6577,5.6319,5.6219,5.6219,5.6219,5.6451,5.6652,5.6953,5.7029,5.691,5.6684,5.6477,5.6394,5.6344,5.6577,5.6652,5.6634,5.6408,5.6477,5.6577,5.6928,5.6652,5.6376,5.6728,5.7305,5.7832,5.8027,5.8478,5.9182,5.9527,5.9527,5.9527,5.9527,5.9527,5.9527,5.9527,5.9527,5.9527,5.9527,5.9527,5.9527,5.9527,5.9527,5.9527,5.9527,5.9684,5.9985,6.0211,6.0392,6.0211,5.9935,6.0085,6.0211,6.0111,6.0035,5.9991,6.0091,6.0392,6.0563,6.0487,6.0261,6.0085,6.0286,6.0568,5.7901,5.7901,5.7926,5.8303,5.8761,5.9282,5.9527,5.9527,5.9527,5.9527,5.9527,5.9527,5.9527,5.9527,5.9527,5.9527,5.9527,5.9527,5.9527,5.9527,5.9527,5.9527,5.9527,5.9527,5.9527,5.9527,5.9527,5.9502,5.9433,5.9081,5.8579,5.8202,5.8227,5.8278,5.8529,5.893,5.9257,5.9182,5.9282,5.9207,5.9081,5.8855,5.8384,5.7932,5.7506,5.7054,5.6677,5.6445,5.6394,5.6294,5.6269,5.6244,5.6219,5.6219,5.6219,5.6344,5.6659,5.6784,5.6985,5.7004,5.7004,5.6835,5.6928,5.6677,5.6477,5.6477,5.6559,5.6634,5.6627,5.6784,5.696,5.6677,5.6376,5.6527,5.6803,5.733,5.7932,5.8378,5.883,5.9257,5.9452,5.9527,5.9527,5.9527,5.9527,5.9527,5.9527,5.9527,5.9527,5.9527,5.9527,5.9527,5.9527,5.9527,5.9527,5.9527,5.9734,6.001,5.9935,6.0016,5.9834,5.991,6.0136,6.0261,6.0186,6.0136,6.0091,6.0191,6.0367,6.0537,6.0914,6.0858,6.0708,6.0939,6.119,5.7506,5.7926,5.8328,5.856,5.8761,5.9257,5.9527,5.9527,5.9527,5.9527,5.9527,5.9527,5.9527,5.9527,5.9527,5.9527,5.9527,5.9527,5.9527,5.9527,5.9527,5.9527,5.9527,5.9527,5.9527,5.9527,5.9527,5.9502,5.9382,5.8961,5.8685,5.8504,5.8033,5.8127,5.8403,5.8761,5.8679,5.8654,5.883,5.878,5.8554,5.8252,5.7782,5.738,5.7085,5.6652,5.6326,5.6219,5.6219,5.6219,5.6219,5.6219,5.6219,5.6219,5.6219,5.6219,5.6401,5.6552,5.6928,5.7029,5.7054,5.706,5.706,5.6728,5.6451,5.6426,5.6577,5.6728,5.6803,5.6928,5.6979,5.6753,5.6753,5.7079,5.728,5.7531,5.8108,5.861,5.9081,5.9307,5.9502,5.9527,5.9527,5.9527,5.9527,5.9527,5.9527,5.9527,5.9527,5.9527,5.9527,5.9527,5.9527,5.9527,5.9527,5.9527,5.9784,5.9991,5.9865,5.9985,6.0286,6.0387,6.0362,6.0261,6.006,6.0136,6.0242,6.0342,6.0392,6.117,6.1592,6.1461,6.1411,6.1587,6.1743,5.6878,5.7255,5.7556,5.7957,5.8485,5.9182,5.9527,5.9527,5.9527,5.9527,5.9527,5.9527,5.9527,5.9527,5.9527,5.9527,5.9527,5.9527,5.9527,5.9527,5.9527,5.9527,5.9527,5.9527,5.9527,5.9527,5.9527,5.9502,5.9357,5.9006,5.8654,5.8303,5.8001,5.8127,5.8353,5.8529,5.8428,5.8334,5.8309,5.8284,5.8052,5.77,5.7305,5.7104,5.6903,5.6552,5.6301,5.6269,5.6244,5.6219,5.6219,5.6344,5.6426,5.6527,5.6527,5.6577,5.6602,5.6753,5.7004,5.728,5.7305,5.733,5.7305,5.723,5.6953,5.6853,5.6928,5.7004,5.7004,5.7004,5.6979,5.7004,5.7399,5.7775,5.7801,5.7782,5.8303,5.883,5.9156,5.9427,5.9527,5.9527,5.9527,5.9527,5.9527,5.9527,5.9527,5.9527,5.9527,5.9527,5.9527,5.9527,5.9527,5.9527,5.9527,5.9527,5.9659,5.9809,5.9759,5.996,6.0532,6.0462,6.0111,5.996,5.9859,5.9985,6.0141,6.0267,6.0468,6.117,6.1597,6.1441,6.1512,6.1969,6.2124,5.6326,5.6426,5.6394,5.7248,5.8102,5.9106,5.9527,5.9527,5.9527,5.9527,5.9527,5.9527,5.9527,5.9527,5.9527,5.9527,5.9527,5.9527,5.9527,5.9527,5.9527,5.9527,5.9527,5.9527,5.9527,5.9527,5.9527,5.9502,5.9357,5.9006,5.8485,5.7976,5.7901,5.8027,5.8252,5.8535,5.8485,5.8328,5.8384,5.8434,5.7926,5.7455,5.706,5.7054,5.6778,5.6445,5.6445,5.6376,5.6326,5.6369,5.647,5.6721,5.6778,5.6784,5.6809,5.6784,5.6684,5.6835,5.7029,5.7305,5.7531,5.7656,5.7782,5.7675,5.7399,5.7255,5.7323,5.7424,5.7449,5.7474,5.7449,5.7154,5.7305,5.7675,5.7851,5.8033,5.8485,5.8981,5.9307,5.9527,5.9527,5.9527,5.9527,5.9527,5.9527,5.9527,5.9527,5.9527,5.9527,5.9527,5.9527,5.9527,5.9527,5.9527,5.9527,5.9527,5.9527,5.9578,5.9603,5.9653,5.9979,5.991,5.9734,5.9709,5.9709,5.9834,5.9985,6.006,6.0166,6.0518,6.0894,6.1115,6.1466,6.1918,6.2199,5.7079,5.7524,5.7951,5.8529,5.9106,5.9382,5.9527,5.9527,5.9527,5.9527,5.9527,5.9527,5.9527,5.9527,5.9527,5.9527,5.9527,5.9527,5.9527,5.9527,5.9527,5.9527,5.9527,5.9527,5.9527,5.9527,5.9527,5.9502,5.9408,5.9012,5.8685,5.8485,5.8278,5.8202,5.8504,5.8761,5.866,5.8554,5.861,5.8554,5.8102,5.7901,5.7656,5.7606,5.7424,5.7349,5.7374,5.7424,5.7449,5.7499,5.7499,5.7374,5.7029,5.6652,5.6451,5.6383,5.6609,5.6784,5.7079,5.7355,5.7506,5.7405,5.743,5.7581,5.7631,5.7656,5.775,5.7876,5.7926,5.7951,5.7826,5.7455,5.7305,5.7675,5.7926,5.8284,5.866,5.9081,5.9477,5.9527,5.9527,5.9527,5.9527,5.9527,5.9527,5.9527,5.9527,5.9527,5.9527,5.9527,5.9527,5.9527,5.9527,5.9527,5.9527,5.9527,5.9527,5.9527,5.9552,5.9552,5.9527,5.9578,5.9608,5.9583,5.9608,5.9709,5.9734,5.9678,5.9834,6.0091,6.0292,6.0537,6.0858,6.1285,6.1692,5.7581,5.7951,5.8485,5.8861,5.9156,5.9382,5.9527,5.9527,5.9527,5.9527,5.9527,5.9527,5.9527,5.9527,5.9527,5.9527,5.9527,5.9527,5.9527,5.9527,5.9527,5.9527,5.9527,5.9527,5.9527,5.9527,5.9527,5.9502,5.9433,5.9307,5.9062,5.9006,5.8704,5.8704,5.9056,5.9056,5.9056,5.9037,5.9031,5.8855,5.8472,5.8252,5.7951,5.7901,5.7901,5.7926,5.7901,5.7901,5.7901,5.7876,5.7826,5.775,5.7474,5.7248,5.7223,5.7255,5.728,5.7079,5.7355,5.7556,5.7637,5.7663,5.8008,5.8554,5.8629,5.8654,5.8453,5.8529,5.8359,5.8359,5.8058,5.7732,5.8033,5.8428,5.8227,5.8252,5.878,5.9307,5.9502,5.9527,5.9527,5.9527,5.9527,5.9527,5.9527,5.9527,5.9527,5.9527,5.9527,5.9527,5.9527,5.9527,5.9527,5.9527,5.9527,5.9527,5.9527,5.9527,5.9527,5.9527,5.9527,5.9527,5.9527,5.9508,5.9533,5.9552,5.9527,5.9527,5.9552,5.9784,5.991,6.001,6.0356,6.0607,6.0839,5.7983,5.8077,5.8585,5.8811,5.8861,5.9282,5.9527,5.9527,5.9527,5.9527,5.9527,5.9527,5.9527,5.9527,5.9527,5.9527,5.9527,5.9527,5.9527,5.9527,5.9527,5.9527,5.9527,5.9527,5.9527,5.9527,5.9527,5.9527,5.9502,5.9408,5.9408,5.9502,5.9527,5.9502,5.9527,5.9502,5.9433,5.9382,5.9382,5.9452,5.9081,5.8635,5.8353,5.8177,5.8121,5.8121,5.8102,5.8127,5.8127,5.8102,5.8177,5.8077,5.7951,5.7801,5.7926,5.7976,5.7782,5.7782,5.8027,5.8284,5.844,5.871,5.9232,5.9382,5.9357,5.9232,5.9031,5.893,5.8761,5.861,5.8334,5.8208,5.8604,5.8755,5.8453,5.8353,5.8956,5.9477,5.9502,5.9527,5.9527,5.9527,5.9527,5.9527,5.9527,5.9527,5.9527,5.9527,5.9527,5.9527,5.9527,5.9527,5.9527,5.9527,5.9527,5.9527,5.9527,5.9527,5.9527,5.9527,5.9527,5.9527,5.9527,5.9527,5.9527,5.9527,5.9527,5.9527,5.9552,5.9558,5.9633,5.9778,5.9778,6.0004,5.996,5.8554,5.8585,5.9112,5.9332,5.9357,5.9458,5.9527,5.9527,5.9527,5.9527,5.9527,5.9527,5.9527,5.9527,5.9527,5.9527,5.9527,5.9527,5.9527,5.9527,5.9527,5.9527,5.9527,5.9527,5.9527,5.9527,5.9527,5.9527,5.9527,5.9527,5.9527,5.9527,5.9527,5.9527,5.9527,5.9527,5.9527,5.9527,5.9527,5.9527,5.9527,5.9257,5.9282,5.9207,5.9182,5.9182,5.9207,5.9182,5.9207,5.9081,5.8755,5.8554,5.8378,5.8202,5.8227,5.8378,5.8202,5.8309,5.8535,5.871,5.8836,5.8836,5.9106,5.9081,5.9037,5.9012,5.8911,5.8981,5.8886,5.893,5.8704,5.8485,5.8635,5.8535,5.8309,5.8755,5.9282,5.9458,5.9502,5.9527,5.9527,5.9527,5.9527,5.9527,5.9527,5.9527,5.9527,5.9527,5.9527,5.9527,5.9527,5.9527,5.9527,5.9527,5.9527,5.9527,5.9527,5.9527,5.9527,5.9527,5.9527,5.9527,5.9527,5.9527,5.9527,5.9527,5.9527,5.9527,5.9527,5.9552,5.9527,5.9552,5.9527,5.9552,5.9659]},{"header":{"parameterUnit":"m.s-1","parameterCategory":1,"la1":31.0,"la2":29.5877,"lo1":-88.7671,"lo2":-86.6584,"dx":0.0162,"dy":0.0185,"nx":115,"ny":88,"refTime":"2022-11-09T06:00:00:Z","depth":0,"parameterNumber":3,"parameterNumberName":"V-component_of_WINDS"},"data":[0.0,0.0,0.0,0.0,0.0,0.0,0.0,0.0,0.0,0.0,0.0,0.0,0.0,0.0,0.0,0.0,0.0,0.0,0.0,0.0,0.0,0.0,0.0,0.0,0.0,0.0,0.0,0.0,0.0,0.0,0.0,0.0,0.0,0.0,0.0,0.0,0.0,0.0,0.0,0.0,0.0,0.0,0.0,0.0,0.0,0.0,0.0,0.0,0.0,0.0,0.0,0.0,0.0,0.0,0.0,0.0,0.0,0.0,0.0,0.0,0.0,0.0,0.0,0.0,0.0,0.0,0.0,0.0,0.0,0.0,0.0,0.0,0.0,0.0,0.0,0.0,0.0,0.0,0.0,0.0,0.0,0.0,0.0,0.0,0.0,0.0,0.0,0.0,0.0,0.0,0.0,0.0,0.0,0.0,0.0,0.0,0.0,0.0,0.0,0.0,0.0,0.0,0.0,0.0,0.0,0.0,0.0,0.0,0.0,0.0,0.0,0.0,0.0,0.0,0.0,0.0,0.0,0.0,0.0,0.0,0.0,0.0,0.0,0.0,0.0,0.0,0.0,0.0,0.0,0.0,0.0,0.0,0.0,0.0,0.0,0.0,0.0,0.0,0.0,0.0,0.0,0.0,0.0,0.0,0.0,0.0,0.0,0.0,0.0,0.0,0.0,0.0,0.0,0.0,0.0,0.0,0.0,0.0,0.0,0.0,0.0,0.0,0.0,0.0,0.0,0.0,0.0,0.0,0.0,0.0,0.0,0.0,0.0,0.0,0.0,0.0,0.0,0.0,0.0,0.0,0.0,0.0,0.0,0.0,0.0,0.0,0.0,0.0,0.0,0.0,0.0,0.0,0.0,0.0,0.0,0.0,0.0,0.0,0.0,0.0,0.0,0.0,0.0,0.0,0.0,0.0,0.0,0.0,0.0,0.0,0.0,0.0,0.0,0.0,0.0,0.0,0.0,0.0,0.0,0.0,0.0,0.0,0.0,0.0,0.0,0.0,0.0,0.0,0.0,0.0,0.0,0.0,0.0,0.0,0.0,0.0,0.0,0.0,0.0,0.0,0.0,0.0,0.0,0.0,0.0,0.0,0.0,0.0,0.0,0.0,0.0,0.0,0.0,0.0,0.0,0.0,0.0,0.0,0.0,0.0,0.0,0.0,0.0,0.0,0.0,0.0,0.0,0.0,0.0,0.0,0.0,0.0,0.0,0.0,0.0,0.0,0.0,0.0,0.0,0.0,0.0,0.0,0.0,0.0,0.0,0.0,0.0,0.0,0.0,0.0,0.0,0.0,0.0,0.0,0.0,0.0,0.0,0.0,0.0,0.0,0.0,0.0,0.0,0.0,0.0,0.0,0.0,0.0,0.0,0.0,0.0,0.0,0.0,0.0,0.0,0.0,0.0,0.0,0.0,0.0,0.0,0.0,0.0,0.0,0.0,0.0,0.0,0.0,0.0,0.0,0.0,0.0,0.0,0.0,0.0,0.0,0.0,0.0,0.0,0.0,0.0,0.0,0.0,0.0,0.0,0.0,0.0,0.0,0.0,0.0,0.0,0.0,0.0,0.0,0.0,0.0,0.0,0.0,0.0,0.0,0.0,0.0,0.0,0.0,0.0,0.0,0.0,0.0,0.0,0.0,0.0,0.0,0.0,0.0,0.0,0.0,0.0,0.0,0.0,0.0,0.0,0.0,0.0,0.0,0.0,0.0,0.0,0.0,0.0,0.0,0.0,0.0,0.0,0.0,0.0,0.0,0.0,0.0,0.0,0.0,0.0,0.0,0.0,0.0,0.0,0.0,0.0,0.0,0.0,0.0,0.0,0.0,0.0,0.0,0.0,0.0,0.0,0.0,0.0,0.0,0.0,0.0,0.0,0.0,0.0,0.0,0.0,0.0,0.0,0.0,0.0,0.0,0.0,0.0,0.0,0.0,0.0,0.0,0.0,0.0,0.0,0.0,0.0,0.0,0.0,0.0,0.0,0.0,0.0,0.0,0.0,0.0,0.0,0.0,0.0,0.0,0.0,0.0,0.0,0.0,0.0,0.0,0.0,0.0,0.0,0.0,0.0,0.0,0.0,0.0,0.0,0.0,0.0,0.0,0.0,0.0,0.0,0.0,0.0,0.0,0.0,0.0,0.0,0.0,0.0,0.0,0.0,0.0,0.0,0.0,0.0,0.0,0.0,0.0,0.0,0.0,0.0,0.0,0.0,0.0,0.0,0.0,0.0,0.0,0.0,0.0,0.0,0.0,0.0,0.0,0.0,0.0,0.0,0.0,0.0,0.0,0.0,0.0,0.0,0.0,0.0,0.0,0.0,0.0,0.0,0.0,0.0,0.0,0.0,0.0,0.0,0.0,0.0,0.0,0.0,0.0,0.0,0.0,0.0,0.0,0.0,0.0,0.0,0.0,0.0,0.0,0.0,0.0,0.0,0.0,0.0,0.0,0.0,0.0,0.0,0.0,0.0,0.0,0.0,0.0,0.0,0.0,0.0,0.0,0.0,0.0,0.0,0.0,0.0,0.0,0.0,0.0,0.0,0.0,0.0,0.0,0.0,0.0,0.0,0.0,0.0,0.0,0.0,0.0,0.0,0.0,0.0,0.0,0.0,0.0,0.0,0.0,0.0,0.0,0.0,0.0,0.0,0.0,0.0,0.0,0.0,0.0,0.0,0.0,0.0,0.0,0.0,0.0,0.0,0.0,0.0,0.0,0.0,0.0,0.0,0.0,0.0,0.0,0.0,0.0,0.0,0.0,0.0,0.0,0.0,0.0,0.0,0.0,0.0,0.0,0.0,0.0,0.0,0.0,0.0,0.0,0.0,0.0,0.0,0.0,0.0,0.0,0.0,0.0,0.0,0.0,0.0,0.0,0.0,0.0,0.0,0.0,0.0,0.0,0.0,0.0,0.0,0.0,0.0,0.0,0.0,0.0,0.0,0.0,0.0,0.0,0.0,0.0,0.0,0.0,0.0,0.0,0.0,0.0,0.0,0.0,0.0,0.0,0.0,0.0,0.0,0.0,0.0,0.0,0.0,0.0,0.0,0.0,0.0,0.0,0.0,0.0,0.0,0.0,0.0,0.0,0.0,0.0,0.0,0.0,0.0,0.0,0.0,0.0,0.0,0.0,0.0,0.0,0.0,0.0,0.0,0.0,0.0,0.0,0.0,0.0,0.0,0.0,0.0,0.0,0.0,0.0,0.0,0.0,0.0,0.0,0.0,0.0,0.0,0.0,0.0,0.0,0.0,0.0,0.0,0.0,0.0,0.0,0.0,0.0,0.0,0.0,0.0,0.0,0.0,0.0,0.0,0.0,0.0,0.0,0.0,0.0,0.0,0.0,0.0,0.0,0.0,0.0,0.0,0.0,0.0,0.0,0.0,0.0,0.0,0.0,0.0,0.0,0.0,0.0,0.0,0.0,0.0,0.0,0.0,0.0,0.0,0.0,0.0,0.0,0.0,0.0,0.0,0.0,0.0,0.0,0.0,0.0,0.0,0.0,0.0,0.0,0.0,0.0,0.0,0.0,0.0,0.0,0.0,0.0,0.0,0.0,0.0,0.0,0.0,0.0,0.0,0.0,0.0,0.0,0.0,0.0,0.0,0.0,0.0,0.0,0.0,0.0,0.0,0.0,0.0,0.0,0.0,0.0,0.0,0.0,0.0,0.0,0.0,0.0,0.0,0.0,0.0,0.0,0.0,0.0,0.0,0.0,0.0,0.0,0.0,0.0,0.0,0.0,0.0,0.0,0.0,0.0,0.0,0.0,0.0,0.0,0.0,0.0,0.0,0.0,0.0,0.0,0.0,0.0,0.0,0.0,0.0,0.0,0.0,0.0,0.0,0.0,0.0,0.0,0.0,0.0,0.0,0.0,0.0,0.0,0.0,0.0,0.0,0.0,0.0,0.0,0.0,0.0,0.0,0.0,0.0,0.0,0.0,0.0,0.0,0.0,0.0,0.0,0.0,0.0,0.0,0.0,0.0,0.0,0.0,0.0,0.0,0.0,0.0,0.0,0.0,0.0,0.0,0.0,0.0,0.0,0.0,0.0,0.0,0.0,0.0,0.0,0.0,0.0,0.0,0.0,0.0,0.0,0.0,0.0,0.0,0.0,0.0,0.0,0.0,0.0,0.0,0.0,0.0,0.0,0.0,0.0,0.0,0.0,0.0,0.0,0.0,0.0,0.0,0.0,0.0,0.0,0.0,0.0,0.0,0.0,0.0,0.0,0.0,0.0,0.0,0.0,0.0,0.0,0.0,0.0,1.2734,0.0,0.0,0.0,1.2226,0.0,0.0,0.0,0.0,0.0,0.0,0.0,0.0,0.0,0.0,0.0,0.0,0.0,0.0,0.0,0.0,0.0,0.0,0.0,0.0,0.0,0.0,0.0,0.0,0.0,0.0,0.0,0.0,0.0,0.0,0.0,0.0,0.0,0.0,0.0,0.0,0.0,0.0,0.0,0.0,0.0,0.0,0.0,0.0,0.0,0.0,0.0,0.0,0.0,0.0,0.0,0.0,0.0,0.0,0.0,0.0,0.0,0.0,0.0,0.0,0.0,0.0,0.0,0.0,0.0,0.0,0.0,0.0,0.0,0.0,0.0,0.0,0.0,0.0,0.0,0.0,0.0,0.0,0.0,0.0,0.0,0.0,0.0,0.0,0.0,0.0,0.0,0.0,0.0,0.0,0.0,0.0,0.0,0.0,0.0,0.0,0.0,0.0,0.0,0.0,0.0,0.0,0.0,0.0,0.0,0.0,0.0,0.0,0.0,0.0,1.237,1.133,1.2465,1.2859,1.2231,0.0,0.0,0.0,0.0,0.0,0.0,0.0,0.0,0.0,0.0,0.0,0.0,0.0,0.0,0.0,0.0,0.0,0.0,0.0,0.0,0.0,0.0,0.0,0.0,0.0,0.0,0.0,0.0,0.0,0.0,0.0,0.0,0.0,0.0,0.0,0.0,0.0,0.0,0.0,0.0,0.0,0.0,0.0,0.0,0.0,0.0,0.0,0.0,0.0,0.0,0.0,0.0,0.0,0.0,0.0,0.0,0.0,0.0,0.0,0.0,0.0,0.0,0.0,0.0,0.0,0.0,0.0,0.0,0.0,0.0,0.0,0.0,0.0,0.0,0.0,0.0,0.0,0.0,0.0,0.0,0.0,0.0,0.0,0.0,0.0,0.0,0.0,0.0,0.0,0.0,0.0,0.0,0.0,0.0,0.0,0.0,0.0,0.0,0.0,0.0,0.0,0.0,0.0,0.0,0.0,0.0,0.0,0.0,0.0,0.0,0.0,0.0,1.2819,1.3241,1.2933,0.0,0.0,0.0,0.0,0.0,0.0,0.0,0.0,0.0,0.0,0.0,0.0,0.0,0.0,0.0,0.0,0.0,0.0,0.0,0.0,0.0,0.0,0.0,0.0,0.0,0.0,0.0,0.0,0.0,0.0,0.0,0.0,0.0,0.0,0.0,0.0,0.0,0.0,0.0,0.0,0.0,0.0,0.0,0.0,0.0,0.0,0.0,0.0,0.0,0.0,0.0,0.0,0.0,0.0,0.0,0.0,0.0,0.0,0.0,0.0,0.0,0.0,0.0,0.0,0.0,0.0,0.0,0.0,0.0,0.0,0.0,0.0,0.0,0.0,0.0,0.0,0.0,0.0,0.0,0.0,0.0,0.0,0.0,0.0,0.0,0.0,0.0,0.0,0.0,0.0,0.0,0.0,0.0,0.0,0.0,0.0,0.0,0.0,0.0,0.0,0.0,0.0,0.0,0.0,0.0,0.0,0.0,0.0,0.0,0.0,1.4898,1.4479,1.5639,0.0,1.511,0.0,0.0,0.0,0.0,0.0,0.0,0.0,0.0,0.0,0.0,0.0,0.0,0.0,0.0,0.0,0.0,0.0,0.0,0.0,0.0,0.0,0.0,0.0,0.0,0.0,0.0,0.0,0.0,0.0,0.0,0.0,0.0,0.0,0.0,0.0,0.0,0.0,0.0,0.0,0.0,0.0,0.0,0.0,0.0,0.0,0.0,0.0,0.0,0.0,0.0,0.0,0.0,0.0,0.0,0.0,0.0,0.0,0.0,0.0,0.0,0.0,0.0,0.0,0.0,0.0,0.0,0.0,0.0,0.0,0.0,0.0,0.0,0.0,0.0,0.0,0.0,0.0,0.0,0.0,0.0,0.0,0.0,0.0,0.0,0.0,0.0,0.0,0.0,0.0,0.0,0.0,0.0,0.0,0.0,0.0,0.0,0.0,0.0,0.0,0.0,0.0,0.0,0.0,0.0,0.0,0.0,0.0,0.0,0.0,0.0,1.5296,1.5107,1.5903,1.5891,0.0,0.0,0.0,0.0,0.0,0.0,0.0,0.0,0.0,0.0,0.0,0.0,0.0,0.0,0.0,0.0,0.0,0.0,0.0,0.0,0.0,0.0,0.0,0.0,0.0,0.0,0.0,0.0,0.0,0.0,0.0,0.0,0.0,0.0,0.0,0.0,0.0,0.0,0.0,0.0,0.0,0.0,0.0,0.0,0.0,0.0,0.0,0.0,0.0,0.0,0.0,0.0,0.0,0.0,0.0,0.0,0.0,0.0,0.0,0.0,0.0,0.0,0.0,0.0,0.0,0.0,0.0,0.0,0.0,0.0,0.0,0.0,0.0,0.0,0.0,0.0,0.0,0.0,0.0,0.0,0.0,0.0,0.0,0.0,0.0,0.0,0.0,0.0,0.0,0.0,0.0,0.0,0.0,0.0,0.0,0.0,0.0,0.0,0.0,0.0,0.0,0.0,0.0,0.0,0.0,0.0,0.0,0.0,0.0,0.0,1.5563,1.6158,1.6219,1.6247,1.5992,1.5385,0.0,0.0,0.0,0.0,0.0,0.0,0.0,0.0,0.0,0.0,0.0,0.0,0.0,0.0,0.0,0.0,0.0,0.0,0.0,0.0,0.0,0.0,0.0,0.0,0.0,0.0,0.0,0.0,0.0,0.0,0.0,0.0,0.0,0.0,0.0,0.0,0.0,0.0,0.0,0.0,0.0,0.0,0.0,0.0,0.0,0.0,0.0,0.0,0.0,0.0,0.0,0.0,0.0,0.0,0.0,0.0,0.0,0.0,0.0,0.0,0.0,0.0,0.0,0.0,0.0,0.0,0.0,0.0,0.0,0.0,0.0,0.0,0.0,0.0,0.0,0.0,0.0,0.0,0.0,0.0,0.0,0.0,0.0,0.0,0.0,0.0,0.0,0.0,0.0,0.0,0.0,0.0,0.0,0.0,0.0,0.0,0.0,0.0,0.0,0.0,0.0,0.0,0.0,0.0,0.0,0.0,0.0,0.0,1.77,1.7829,1.806,1.837,1.7311,1.6871,0.0,0.0,0.0,0.0,0.0,0.0,0.0,0.0,0.0,0.0,0.0,0.0,0.0,0.0,0.0,0.0,0.0,0.0,0.0,0.0,0.0,0.0,0.0,0.0,0.0,0.0,0.0,0.0,0.0,0.0,0.0,0.0,0.0,0.0,0.0,0.0,0.0,0.0,0.0,0.0,0.0,0.0,0.0,0.0,0.0,0.0,0.0,0.0,0.0,0.0,0.0,0.0,0.0,0.0,0.0,0.0,0.0,0.0,0.0,0.0,0.0,0.0,0.0,0.0,0.0,0.0,0.0,0.0,0.0,0.0,0.0,0.0,0.0,0.0,0.0,0.0,0.0,0.0,0.0,0.0,0.0,0.0,0.0,0.0,0.0,0.0,0.0,0.0,0.0,0.0,0.0,0.0,0.0,0.0,0.0,0.0,0.0,0.0,0.0,0.0,0.0,0.0,0.0,0.0,0.0,0.0,0.0,0.0,0.0,1.7625,1.8116,1.8596,1.8995,1.8305,1.8127,0.0,0.0,0.0,0.0,0.0,0.0,0.0,0.0,0.0,0.0,0.0,0.0,0.0,0.0,0.0,0.0,0.0,0.0,0.0,0.0,0.0,0.0,0.0,0.0,0.0,0.0,0.0,0.0,0.0,0.0,0.0,0.0,0.0,0.0,0.0,0.0,0.0,0.0,0.0,0.0,0.0,0.0,0.0,0.0,0.0,0.0,0.0,0.0,0.0,0.0,0.0,0.0,0.0,0.0,0.0,0.0,0.0,0.0,0.0,0.0,0.0,0.0,0.0,0.0,0.0,0.0,0.0,0.0,0.0,0.0,0.0,0.0,0.0,0.0,0.0,0.0,0.0,0.0,0.0,0.0,0.0,0.0,0.0,0.0,0.0,0.0,0.0,0.0,0.0,0.0,0.0,0.0,0.0,0.0,0.0,0.0,0.0,0.0,0.0,0.0,0.0,0.0,0.0,0.0,0.0,0.0,0.0,0.0,0.0,1.8044,1.8674,1.919,1.9453,1.9044,1.8908,0.0,0.0,0.0,0.0,0.0,0.0,0.0,0.0,0.0,0.0,0.0,0.0,0.0,0.0,0.0,0.0,0.0,0.0,0.0,0.0,0.0,0.0,0.0,0.0,0.0,0.0,0.0,0.0,0.0,0.0,0.0,0.0,0.0,0.0,0.0,0.0,0.0,0.0,0.0,0.0,0.0,0.0,0.0,0.0,0.0,0.0,0.0,0.0,0.0,0.0,0.0,0.0,0.0,0.0,0.0,0.0,0.0,0.0,0.0,0.0,0.0,0.0,0.0,0.0,0.0,0.0,0.0,0.0,0.0,0.0,0.0,0.0,0.0,0.0,0.0,0.0,0.0,0.0,0.0,0.0,0.0,0.0,0.0,0.0,0.0,0.0,0.0,0.0,0.0,0.0,0.0,0.0,0.0,0.0,0.0,0.0,0.0,0.0,0.0,0.0,0.0,0.0,0.0,0.0,0.0,0.0,0.0,0.0,1.8457,1.9247,1.9678,1.9883,1.9883,1.9492,1.9073,0.0,0.0,0.0,0.0,0.0,0.0,0.0,0.0,0.0,0.0,0.0,0.0,0.0,0.0,0.0,0.0,0.0,0.0,0.0,0.0,0.0,0.0,0.0,0.0,0.0,0.0,0.0,0.0,0.0,0.0,0.0,0.0,0.0,0.0,0.0,0.0,0.0,0.0,0.0,0.0,0.0,0.0,0.0,0.0,0.0,0.0,0.0,0.0,0.0,0.0,0.0,0.0,0.0,0.0,0.0,0.0,0.0,0.0,0.0,0.0,0.0,0.0,0.0,0.0,0.0,0.0,0.0,0.0,0.0,0.0,0.0,0.0,0.0,0.0,0.0,0.0,0.0,0.0,0.0,0.0,0.0,0.0,0.0,0.0,0.0,0.0,0.0,0.0,0.0,0.0,0.0,0.0,0.0,0.0,0.0,0.0,0.0,0.0,0.0,0.0,0.0,0.0,0.0,0.0,0.0,0.0,0.0,0.0,0.0,1.9325,2.0019,2.0381,2.0351,1.9677,1.9365,0.0,0.0,0.0,0.0,0.0,0.0,0.0,0.0,0.0,0.0,0.0,0.0,0.0,0.0,0.0,0.0,0.0,0.0,0.0,0.0,0.0,0.0,0.0,0.0,0.0,0.0,0.0,0.0,0.0,0.0,0.0,0.0,0.0,0.0,0.0,0.0,0.0,0.0,0.0,0.0,0.0,0.0,0.0,0.0,0.0,0.0,0.0,0.0,0.0,0.0,0.0,0.0,0.0,0.0,0.0,0.0,0.0,0.0,0.0,0.0,0.0,0.0,0.0,0.0,0.0,0.0,0.0,0.0,0.0,0.0,0.0,0.0,0.0,0.0,0.0,0.0,0.0,0.0,0.0,0.0,0.0,0.0,0.0,0.0,0.0,0.0,0.0,0.0,0.0,0.0,0.0,0.0,0.0,0.0,0.0,0.0,0.0,0.0,0.0,0.0,0.0,0.0,0.0,0.0,0.0,0.0,0.0,0.0,0.0,2.0781,2.0957,2.1075,2.1075,2.0381,1.9971,1.9883,0.0,0.0,0.0,0.0,0.0,0.0,0.0,0.0,0.0,0.0,0.0,0.0,0.0,0.0,0.0,0.0,0.0,0.0,0.0,0.0,0.0,0.0,0.0,0.0,0.0,0.0,0.0,0.0,0.0,0.0,0.0,0.0,0.0,0.0,0.0,0.0,0.0,0.0,0.0,0.0,0.0,0.0,0.0,0.0,0.0,0.0,0.0,0.0,0.0,0.0,0.0,0.0,0.0,0.0,0.0,0.0,0.0,0.0,0.0,0.0,0.0,0.0,0.0,0.0,0.0,0.0,0.0,0.0,0.0,0.0,0.0,0.0,0.0,0.0,0.0,0.0,0.0,0.0,0.0,0.0,0.0,0.0,0.0,0.0,0.0,0.0,0.0,0.0,0.0,0.0,0.0,0.0,0.0,0.0,0.0,0.0,0.0,0.0,0.0,0.0,0.0,0.0,0.0,0.0,0.0,0.0,0.0,0.0,2.3236,2.2463,2.2013,2.1915,2.1425,2.0791,0.0,0.0,0.0,0.0,0.0,0.0,0.0,0.0,0.0,0.0,0.0,0.0,0.0,0.0,0.0,0.0,0.0,0.0,0.0,0.0,0.0,0.0,0.0,0.0,0.0,0.0,0.0,0.0,0.0,0.0,0.0,0.0,0.0,0.0,0.0,0.0,0.0,0.0,0.0,0.0,0.0,0.0,0.0,0.0,0.0,0.0,0.0,0.0,0.0,0.0,0.0,0.0,0.0,0.0,0.0,0.0,0.0,0.0,0.0,0.0,0.0,0.0,0.0,0.0,0.0,0.0,0.0,0.0,0.0,0.0,0.0,0.0,0.0,0.0,0.0,0.0,0.0,0.0,0.0,0.0,0.0,0.0,0.0,0.0,0.0,0.0,0.0,0.0,0.0,0.0,0.0,0.0,0.0,0.0,0.0,0.0,0.0,0.0,0.0,0.0,0.0,0.0,0.0,0.0,0.0,0.0,0.0,0.0,0.0,2.3624,2.3711,2.3301,2.2383,2.159,2.0957,0.0,0.0,0.0,0.0,0.0,0.0,0.0,0.0,0.0,0.0,0.0,0.0,0.0,0.0,0.0,0.0,0.0,0.0,0.0,0.0,0.0,0.0,0.0,0.0,0.0,0.0,0.0,0.0,0.0,0.0,0.0,0.0,0.0,0.0,0.0,0.0,0.0,0.0,0.0,0.0,0.0,0.0,0.0,0.0,0.0,0.0,0.0,0.0,0.0,0.0,0.0,0.0,0.0,0.0,0.0,0.0,0.0,0.0,0.0,0.0,0.0,0.0,0.0,0.0,0.0,0.0,0.0,0.0,0.0,0.0,0.0,0.0,0.0,0.0,0.0,0.0,0.0,0.0,0.0,0.0,0.0,0.0,0.0,0.0,0.0,0.0,0.0,0.0,0.0,0.0,0.0,0.0,0.0,0.0,0.0,0.0,0.0,0.0,0.0,0.0,0.0,0.0,0.0,0.0,0.0,0.0,0.0,0.0,2.3895,2.4855,2.4559,2.4227,2.3875,2.2685,2.1758,0.0,0.0,0.0,0.0,0.0,0.0,0.0,0.0,0.0,0.0,0.0,0.0,0.0,0.0,0.0,0.0,0.0,0.0,0.0,0.0,0.0,0.0,0.0,0.0,0.0,0.0,0.0,0.0,0.0,0.0,0.0,0.0,0.0,0.0,0.0,0.0,0.0,0.0,0.0,0.0,0.0,0.0,0.0,0.0,0.0,0.0,0.0,0.0,0.0,0.0,0.0,0.0,0.0,0.0,0.0,0.0,0.0,0.0,0.0,0.0,0.0,0.0,0.0,0.0,0.0,0.0,0.0,0.0,0.0,0.0,0.0,0.0,0.0,0.0,0.0,0.0,0.0,0.0,0.0,0.0,0.0,0.0,0.0,0.0,0.0,0.0,0.0,0.0,0.0,0.0,0.0,0.0,0.0,0.0,0.0,0.0,0.0,0.0,0.0,0.0,0.0,0.0,0.0,0.0,0.0,0.0,0.0,0.0,2.4805,2.6399,2.5281,2.5035,2.5757,2.4199,2.2893,0.0,0.0,0.0,0.0,0.0,0.0,0.0,0.0,0.0,0.0,0.0,0.0,0.0,0.0,0.0,0.0,0.0,0.0,0.0,0.0,0.0,0.0,0.0,0.0,0.0,0.0,0.0,0.0,0.0,0.0,0.0,0.0,0.0,0.0,0.0,0.0,0.0,0.0,0.0,0.0,0.0,0.0,0.0,0.0,0.0,0.0,0.0,0.0,0.0,0.0,0.0,0.0,0.0,0.0,0.0,0.0,0.0,0.0,0.0,0.0,0.0,0.0,0.0,0.0,0.0,0.0,0.0,0.0,0.0,0.0,0.0,0.0,0.0,0.0,0.0,0.0,0.0,0.0,0.0,0.0,0.0,0.0,0.0,0.0,0.0,0.0,0.0,0.0,0.0,0.0,0.0,0.0,0.0,0.0,0.0,0.0,0.0,0.0,0.0,0.0,0.0,0.0,0.0,0.0,0.0,0.0,0.0,0.0,2.5808,2.6823,2.6589,2.653,2.6726,2.5047,2.3583,0.0,0.0,0.0,0.0,0.0,0.0,0.0,0.0,0.0,0.0,0.0,0.0,0.0,0.0,0.0,0.0,0.0,0.0,0.0,0.0,0.0,0.0,0.0,0.0,0.0,0.0,0.0,0.0,0.0,0.0,0.0,0.0,0.0,0.0,0.0,0.0,0.0,0.0,0.0,0.0,0.0,0.0,0.0,0.0,0.0,0.0,0.0,0.0,1.7285,0.0,0.0,0.0,0.0,0.0,0.0,0.0,0.0,0.0,0.0,0.0,0.0,0.0,0.0,0.0,0.0,0.0,0.0,0.0,0.0,0.0,0.0,0.0,0.0,0.0,0.0,0.0,0.0,0.0,0.0,0.0,0.0,0.0,0.0,0.0,0.0,0.0,0.0,0.0,0.0,0.0,0.0,0.0,0.0,0.0,0.0,0.0,0.0,0.0,0.0,0.0,0.0,0.0,0.0,0.0,0.0,0.0,0.0,0.0,2.6452,2.7278,2.7237,2.7294,2.7471,2.6742,2.5397,0.0,0.0,0.0,0.0,0.0,0.0,0.0,0.0,0.0,0.0,0.0,0.0,0.0,0.0,0.0,0.0,0.0,0.0,0.0,0.0,0.0,0.0,0.0,0.0,0.0,0.0,0.0,0.0,0.0,0.0,0.0,0.0,0.0,0.0,0.0,0.0,0.0,0.0,0.0,0.0,0.0,0.0,0.0,0.0,0.0,0.0,0.0,0.0,0.0,0.0,0.0,0.0,0.0,0.0,0.0,0.0,0.0,0.0,0.0,0.0,0.0,0.0,0.0,0.0,0.0,0.0,0.0,0.0,0.0,0.0,0.0,0.0,0.0,0.0,0.0,0.0,0.0,0.0,0.0,0.0,0.0,0.0,0.0,0.0,0.0,0.0,0.0,0.0,0.0,0.0,0.0,0.0,0.0,0.0,0.0,0.0,0.0,0.0,0.0,0.0,0.0,0.0,0.0,0.0,0.0,0.0,0.0,2.6731,2.7128,2.7996,2.7877,2.8,2.8449,2.8558,2.7442,2.4965,0.0,0.0,0.0,0.0,0.0,0.0,0.0,0.0,0.0,0.0,0.0,0.0,0.0,0.0,0.0,0.0,0.0,0.0,0.0,0.0,0.0,0.0,0.0,0.0,0.0,0.0,0.0,0.0,0.0,0.0,0.0,0.0,0.0,0.0,0.0,0.0,0.0,0.0,1.4002,1.5374,0.0,0.0,0.0,0.0,0.0,0.0,0.0,0.0,1.9838,0.0,0.0,0.0,0.0,0.0,0.0,0.0,0.0,0.0,0.0,0.0,0.0,0.0,0.0,0.0,0.0,0.0,0.0,0.0,0.0,0.0,0.0,0.0,0.0,0.0,0.0,0.0,0.0,0.0,0.0,0.0,0.0,0.0,0.0,0.0,0.0,0.0,0.0,0.0,0.0,0.0,0.0,0.0,0.0,0.0,0.0,0.0,0.0,0.0,0.0,0.0,0.0,0.0,0.0,0.0,0.0,2.8444,2.8164,2.8532,2.9583,2.9598,2.9763,3.0077,2.9447,2.8438,2.7028,0.0,0.0,0.0,0.0,0.0,0.0,0.0,0.0,0.0,0.0,0.0,0.0,0.0,0.0,0.0,0.0,0.0,0.0,0.0,0.0,0.0,0.0,0.0,0.0,0.0,0.0,0.0,0.0,0.0,0.0,0.0,0.0,0.0,0.0,0.0,0.0,0.0,0.0,0.0,1.758,1.8969,0.0,0.0,0.0,0.0,0.0,0.0,0.0,0.0,2.1629,0.0,0.0,0.0,0.0,0.0,0.0,0.0,0.0,0.0,0.0,0.0,0.0,0.0,0.0,0.0,0.0,0.0,0.0,0.0,0.0,0.0,0.0,0.0,0.0,0.0,0.0,0.0,0.0,0.0,0.0,0.0,0.0,0.0,0.0,0.0,0.0,0.0,0.0,0.0,0.0,0.0,0.0,0.0,0.0,0.0,0.0,0.0,0.0,0.0,0.0,0.0,0.0,0.0,0.0,0.0,2.8791,2.9236,2.9709,3.0266,3.1024,3.1168,3.0729,3.1614,3.1248,0.0,0.0,0.0,0.0,0.0,0.0,0.0,0.0,0.0,0.0,0.0,0.0,0.0,0.0,0.0,0.0,0.0,0.0,0.0,0.0,0.0,0.0,0.0,0.0,0.0,0.0,0.0,0.0,0.0,0.0,0.0,0.0,0.0,0.0,0.0,0.0,0.0,0.0,0.0,0.0,1.9078,2.0007,2.221,0.0,0.0,0.0,0.0,0.0,0.0,2.3292,2.2871,0.0,0.0,0.0,0.0,0.0,0.0,0.0,0.0,0.0,0.0,0.0,0.0,0.0,0.0,0.0,0.0,0.0,0.0,0.0,0.0,0.0,0.0,0.0,0.0,0.0,0.0,0.0,0.0,0.0,0.0,0.0,0.0,0.0,0.0,0.0,0.0,0.0,0.0,0.0,0.0,0.0,0.0,0.0,0.0,0.0,0.0,0.0,0.0,0.0,0.0,0.0,0.0,0.0,0.0,0.0,2.95,3.069,3.1409,3.1602,3.2689,3.2879,3.2034,3.3901,3.3909,0.0,0.0,0.0,0.0,0.0,0.0,0.0,0.0,0.0,0.0,0.0,0.0,0.0,0.0,0.0,0.0,0.0,0.0,0.0,0.0,0.0,0.0,0.0,0.0,0.0,0.0,0.0,0.0,0.0,0.0,0.0,0.0,0.0,0.0,0.0,0.0,0.0,0.0,0.0,0.0,0.0,2.1379,2.3578,2.5086,0.0,0.0,0.0,0.0,2.4492,2.425,0.0,0.0,0.0,0.0,0.0,0.0,0.0,0.0,0.0,0.0,0.0,0.0,0.0,0.0,0.0,0.0,0.0,0.0,0.0,0.0,0.0,0.0,0.0,0.0,0.0,0.0,0.0,0.0,0.0,0.0,0.0,0.0,0.0,0.0,0.0,0.0,0.0,0.0,0.0,0.0,0.0,0.0,0.0,0.0,0.0,0.0,0.0,0.0,0.0,0.0,0.0,0.0,0.0,0.0,0.0,0.0,3.1826,3.3333,3.444,3.5073,3.5282,3.5432,3.5568,3.5472,3.4749,0.0,0.0,0.0,0.0,0.0,0.0,0.0,0.0,0.0,0.0,0.0,0.0,0.0,0.0,0.0,0.0,0.0,0.0,0.0,0.0,0.0,0.0,0.0,0.0,0.0,0.0,0.0,0.0,0.0,0.0,0.0,0.0,0.0,0.0,0.0,0.0,0.0,0.0,0.0,0.0,0.0,2.4423,2.434,2.5757,2.6518,0.0,0.0,2.6687,2.6172,2.5749,0.0,0.0,0.0,0.0,0.0,0.0,0.0,0.0,0.0,0.0,0.0,0.0,0.0,0.0,0.0,0.0,0.0,0.0,0.0,0.0,0.0,0.0,0.0,0.0,0.0,0.0,0.0,0.0,0.0,0.0,0.0,0.0,0.0,0.0,0.0,0.0,0.0,0.0,0.0,0.0,0.0,0.0,0.0,0.0,0.0,0.0,0.0,0.0,0.0,0.0,0.0,0.0,0.0,0.0,0.0,3.1923,3.3374,3.4773,3.5658,3.5986,3.6619,3.67,3.6226,3.73,3.715,0.0,0.0,0.0,0.0,0.0,0.0,0.0,0.0,0.0,0.0,0.0,0.0,0.0,0.0,0.0,0.0,0.0,0.0,0.0,0.0,0.0,0.0,0.0,0.0,0.0,0.0,0.0,0.0,0.0,0.0,0.0,0.0,0.0,0.0,0.0,0.0,0.0,0.0,0.0,0.0,0.0,0.0,2.5728,2.694,0.0,0.0,0.0,2.7441,2.6536,0.0,0.0,0.0,0.0,0.0,0.0,0.0,0.0,0.0,0.0,0.0,0.0,0.0,0.0,0.0,0.0,0.0,0.0,0.0,0.0,0.0,0.0,0.0,0.0,0.0,0.0,0.0,0.0,0.0,0.0,0.0,0.0,0.0,0.0,0.0,0.0,0.0,0.0,0.0,0.0,0.0,0.0,0.0,0.0,0.0,0.0,0.0,0.0,0.0,0.0,0.0,0.0,0.0,0.0,0.0,0.0,0.0,3.5244,3.6577,3.7335,3.7503,3.8308,3.8348,3.7544,3.906,0.0,0.0,0.0,0.0,0.0,0.0,0.0,0.0,0.0,0.0,0.0,0.0,0.0,0.0,0.0,0.0,0.0,0.0,0.0,0.0,0.0,0.0,0.0,0.0,0.0,0.0,0.0,1.6527,0.0,0.0,0.0,0.0,0.0,0.0,0.0,0.0,0.0,0.0,0.0,0.0,0.0,0.0,2.5097,2.6922,2.7812,2.8197,0.0,0.0,2.7982,2.7024,2.718,2.7407,0.0,0.0,0.0,0.0,0.0,0.0,0.0,0.0,0.0,0.0,0.0,0.0,0.0,0.0,0.0,0.0,0.0,0.0,0.0,0.0,0.0,0.0,0.0,0.0,0.0,0.0,0.0,0.0,0.0,0.0,0.0,0.0,0.0,0.0,0.0,0.0,0.0,0.0,0.0,0.0,0.0,0.0,0.0,0.0,0.0,0.0,0.0,0.0,0.0,0.0,0.0,0.0,0.0,0.0,3.7298,3.788,3.9389,4.0423,4.0949,4.1016,4.1054,4.0962,4.0634,4.0147,0.0,0.0,0.0,0.0,0.0,0.0,0.0,0.0,0.0,0.0,0.0,0.0,0.0,0.0,0.0,0.0,0.0,0.0,0.0,0.0,0.0,0.0,0.0,0.0,0.0,0.0,0.0,0.0,0.0,0.0,0.0,0.0,0.0,0.0,0.0,0.0,0.0,0.0,0.0,0.0,0.0,2.6571,2.7513,2.8021,2.8295,0.0,2.8281,2.8275,2.8197,2.8416,2.862,2.8746,0.0,0.0,0.0,0.0,0.0,0.0,0.0,0.0,0.0,0.0,0.0,0.0,0.0,0.0,0.0,0.0,0.0,0.0,0.0,0.0,0.0,0.0,0.0,0.0,0.0,0.0,0.0,0.0,0.0,0.0,0.0,0.0,0.0,0.0,0.0,0.0,0.0,0.0,0.0,0.0,0.0,0.0,0.0,0.0,0.0,0.0,0.0,0.0,0.0,0.0,0.0,0.0,0.0,3.856,3.9076,4.0351,4.1252,4.182,4.187,4.1845,4.1845,4.1644,4.1117,0.0,0.0,0.0,0.0,0.0,0.0,0.0,0.0,0.0,0.0,0.0,0.0,0.0,0.0,0.0,0.0,0.0,0.0,0.0,0.0,0.0,0.0,0.0,0.0,0.0,0.0,0.0,0.0,2.0439,2.0967,2.1113,0.0,0.0,0.0,0.0,0.0,0.0,0.0,0.0,0.0,0.0,2.7773,2.8359,2.8958,0.0,0.0,2.954,2.9643,2.9677,2.9992,3.0395,3.09,3.0938,0.0,0.0,0.0,0.0,0.0,0.0,0.0,0.0,0.0,0.0,0.0,0.0,0.0,0.0,0.0,0.0,0.0,0.0,0.0,0.0,0.0,0.0,0.0,0.0,0.0,0.0,0.0,0.0,0.0,0.0,0.0,0.0,0.0,0.0,0.0,0.0,0.0,0.0,0.0,0.0,0.0,0.0,0.0,0.0,0.0,0.0,0.0,0.0,0.0,0.0,0.0,0.0,4.0292,4.0676,4.1592,4.232,4.2914,4.2914,4.2914,4.29,4.2612,4.2046,0.0,0.0,0.0,0.0,0.0,0.0,0.0,0.0,0.0,0.0,0.0,0.0,0.0,0.0,0.0,0.0,0.0,0.0,0.0,0.0,0.0,0.0,0.0,0.0,0.0,0.0,0.0,0.0,2.2109,2.2971,2.3225,0.0,0.0,0.0,0.0,0.0,0.0,0.0,0.0,0.0,0.0,2.8765,2.9317,2.9958,3.0373,3.038,3.0826,3.1139,3.1111,3.1352,3.17,3.2275,0.0,0.0,0.0,0.0,0.0,0.0,0.0,0.0,0.0,0.0,0.0,0.0,0.0,0.0,0.0,0.0,0.0,0.0,0.0,0.0,0.0,0.0,0.0,0.0,0.0,0.0,0.0,2.4086,0.0,0.0,2.2778,0.0,0.0,0.0,0.0,0.0,0.0,0.0,0.0,0.0,0.0,0.0,0.0,0.0,0.0,0.0,0.0,0.0,0.0,0.0,0.0,0.0,0.0,4.2897,4.2939,4.3438,4.4016,4.4529,4.4554,4.4539,4.4514,4.3539,4.2989,4.29,0.0,0.0,0.0,0.0,0.0,0.0,0.0,0.0,0.0,0.0,0.0,0.0,0.0,0.0,0.0,0.0,0.0,0.0,0.0,0.0,0.0,0.0,0.0,0.0,0.0,0.0,2.0801,2.3275,2.5348,0.0,0.0,0.0,0.0,0.0,0.0,0.0,0.0,0.0,2.977,2.9493,2.9507,3.0345,3.0934,3.1333,3.1246,3.2064,3.264,3.2554,3.2432,3.2333,0.0,0.0,0.0,0.0,0.0,0.0,0.0,0.0,0.0,0.0,0.0,0.0,0.0,0.0,0.0,0.0,0.0,0.0,0.0,0.0,0.0,0.0,0.0,0.0,0.0,0.0,0.0,2.862,2.8477,0.0,0.0,0.0,0.0,0.0,0.0,0.0,0.0,0.0,0.0,0.0,3.3252,3.4961,0.0,0.0,0.0,0.0,0.0,0.0,0.0,0.0,0.0,0.0,0.0,0.0,4.4052,4.4091,4.4644,4.5357,4.622,4.6271,4.611,4.5759,4.5372,4.4669,4.3553,0.0,0.0,0.0,0.0,0.0,0.0,0.0,0.0,0.0,0.0,0.0,0.0,0.0,0.0,0.0,0.0,0.0,0.0,0.0,0.0,0.0,0.0,0.0,0.0,0.0,2.2964,0.0,0.0,0.0,0.0,0.0,0.0,0.0,0.0,0.0,0.0,2.9577,3.0261,3.0674,3.0846,3.1051,3.1319,3.2698,3.369,0.0,0.0,0.0,0.0,0.0,0.0,0.0,0.0,0.0,0.0,0.0,0.0,0.0,0.0,3.4547,3.2409,3.2279,3.2492,3.2499,0.0,0.0,0.0,0.0,0.0,0.0,0.0,0.0,0.0,0.0,0.0,0.0,0.0,0.0,3.2298,3.2135,3.2635,0.0,0.0,0.0,0.0,0.0,0.0,0.0,0.0,3.6415,3.6737,3.6602,3.8282,3.8534,3.7594,3.8469,3.8196,0.0,0.0,0.0,0.0,0.0,0.0,0.0,0.0,4.5468,4.5493,4.605,4.6677,4.7324,4.7375,4.7124,4.6587,4.621,4.5321,4.384,4.2571,4.1982,0.0,0.0,0.0,0.0,0.0,0.0,0.0,0.0,0.0,0.0,0.0,0.0,0.0,0.0,0.0,0.0,0.0,0.0,0.0,0.0,0.0,0.0,0.0,2.5714,0.0,0.0,0.0,0.0,0.0,0.0,0.0,0.0,0.0,3.0143,3.1326,3.2331,3.2166,3.3014,3.3742,3.3919,0.0,0.0,0.0,0.0,0.0,0.0,0.0,3.8724,3.9241,3.8625,3.829,3.8966,3.8894,3.8692,3.8692,0.0,0.0,3.5303,3.5018,3.5184,3.508,3.4937,3.4939,3.5366,3.5133,3.5096,0.0,0.0,0.0,0.0,3.5504,0.0,0.0,0.0,3.5465,3.509,0.0,3.562,0.0,0.0,0.0,0.0,3.5398,3.8272,0.0,0.0,4.1737,4.2624,4.2121,4.2607,4.2699,4.2249,4.2219,4.2507,4.2866,4.1534,0.0,0.0,0.0,0.0,0.0,0.0,4.7124,4.7149,4.7641,4.7933,4.7917,4.7933,4.7666,4.7099,4.6085,4.4995,4.3915,4.3352,4.2788,4.2249,4.0614,0.0,0.0,0.0,0.0,0.0,0.0,0.0,0.0,0.0,0.0,0.0,0.0,0.0,0.0,0.0,0.0,0.0,0.0,0.0,0.0,2.7216,0.0,0.0,0.0,0.0,0.0,0.0,0.0,0.0,0.0,3.4797,3.1519,3.3273,3.4731,3.4312,0.0,0.0,0.0,0.0,3.9749,4.0169,4.1113,4.1729,4.1614,4.1238,4.0983,4.1021,0.0,0.0,4.0287,4.0341,4.0378,4.0365,4.0756,4.0389,3.853,3.8025,3.7859,3.7579,3.7725,3.7839,3.7611,3.7724,3.8037,3.9107,0.0,0.0,0.0,0.0,3.8041,3.8353,3.8743,3.8453,3.855,3.8935,3.9455,0.0,0.0,0.0,0.0,0.0,0.0,4.0479,4.0835,4.112,4.1329,4.1592,4.2548,4.2914,4.2813,4.3994,4.4647,4.4794,4.5101,4.5625,4.6371,0.0,0.0,0.0,0.0,4.7883,4.83,4.8476,4.8551,4.8526,4.8551,4.8083,4.7124,4.6436,4.5723,4.502,4.4468,4.3714,4.2788,4.1542,0.0,0.0,0.0,0.0,0.0,0.0,0.0,0.0,0.0,0.0,0.0,0.0,0.0,0.0,0.0,0.0,0.0,0.0,0.0,2.7209,2.9173,3.0692,0.0,0.0,0.0,0.0,0.0,0.0,0.0,0.0,0.0,3.6272,3.6582,3.7105,0.0,0.0,3.8969,3.9483,4.0871,4.1897,4.204,4.3035,0.0,4.3742,4.3141,4.287,4.3457,4.3315,4.3183,4.3301,4.334,4.3365,4.3311,4.3463,4.3325,4.2752,4.1193,4.0105,3.9934,3.9979,4.0009,3.9934,3.9971,4.0154,4.1292,4.0966,4.0412,3.9923,3.9584,3.9873,4.0136,4.0337,4.0324,4.0512,4.0826,4.1138,4.1127,4.0786,4.0523,0.0,0.0,0.0,4.1681,4.2568,4.227,4.232,4.2657,4.3578,4.398,4.403,4.501,4.5598,4.5824,4.6461,4.7139,4.7757,0.0,4.8058,4.9556,4.8912,4.8761,4.9104,4.9104,4.9104,4.9104,4.8677,4.8109,4.744,4.6687,4.6135,4.5824,4.5271,4.4669,4.4019,4.2911,4.1993,0.0,0.0,0.0,0.0,0.0,0.0,0.0,0.0,0.0,0.0,0.0,2.6736,2.7148,0.0,0.0,0.0,2.9682,3.0208,3.1126,3.2517,0.0,0.0,0.0,0.0,0.0,0.0,0.0,3.7348,3.9262,4.0669,4.0733,4.065,4.044,4.0098,4.0852,4.1654,4.2233,0.0,4.3943,4.4164,4.4799,4.5282,4.5267,4.4878,4.4712,4.5199,4.5282,4.5282,4.5267,4.5267,4.5282,4.5282,4.5282,4.5282,4.5282,4.4029,4.2873,4.246,4.2365,4.2365,4.2365,4.238,4.246,4.314,4.295,4.0966,4.0375,4.0763,4.08,4.1127,4.154,4.1565,4.154,4.1578,4.1565,4.154,4.154,4.1065,0.0,4.3115,4.2626,4.3176,4.4589,4.4589,4.4589,4.4614,4.5196,4.5512,4.5487,4.5638,4.5924,4.6411,4.6552,4.733,4.8843,4.8903,4.9204,4.969,4.969,4.9707,4.9741,4.9707,4.9615,4.9531,4.846,4.7908,4.7908,4.6888,4.6361,4.6361,4.5849,4.5562,4.5462,4.4543,4.3951,4.384,0.0,0.0,0.0,0.0,0.0,0.0,0.0,0.0,0.0,0.0,0.0,0.0,0.0,0.0,3.1388,3.2148,0.0,3.5816,3.6494,0.0,0.0,0.0,3.916,3.8877,3.9661,4.0544,4.1369,0.0,0.0,4.4534,4.4679,4.4151,4.2686,4.3765,4.489,4.5522,4.5578,4.5824,4.6276,4.6436,4.6436,4.6426,4.6376,4.6346,4.6396,4.6411,4.6411,4.6411,4.6411,4.6426,4.6426,4.6411,4.6436,4.6426,4.6321,4.611,4.5013,4.4753,4.4692,4.473,4.4725,4.4731,4.4242,4.4177,4.365,4.3274,4.3062,4.3474,4.37,4.3812,4.3826,4.3812,4.3812,4.3826,4.3826,4.3826,4.3686,4.3851,4.4202,4.4077,4.4227,4.4564,4.4589,4.4589,4.4614,4.5221,4.5512,4.5587,4.6737,4.739,4.7566,4.8385,4.9028,4.9389,4.9816,5.0318,5.0862,5.0444,5.0444,5.0887,5.0444,4.9816,4.9003,4.8259,4.7908,4.7892,4.7265,4.6923,4.6898,4.6386,4.5924,4.5522,4.5623,4.5307,4.4478,4.4995,0.0,0.0,0.0,0.0,0.0,0.0,0.0,0.0,0.0,3.2809,3.3371,0.0,3.4086,0.0,3.5617,3.6262,3.6258,3.7746,0.0,0.0,3.9796,4.0338,4.1614,4.198,4.256,4.3654,4.4008,4.4458,4.5192,4.5296,4.5444,4.5824,4.552,4.5648,4.6562,4.6722,4.6913,4.739,4.749,4.7516,4.7531,4.7531,4.7516,4.7516,4.7531,4.7516,4.749,4.7516,4.7516,4.7531,4.7531,4.7516,4.7516,4.7516,4.744,4.7114,4.6461,4.6035,4.6396,4.6481,4.6637,4.5934,4.5733,4.5719,4.5407,4.488,4.4719,4.4589,4.4589,4.4589,4.4589,4.4589,4.4589,4.4589,4.4589,4.4589,4.4754,4.4995,4.502,4.5257,4.5693,4.5719,4.5859,4.6085,4.6401,4.6592,4.6617,4.7481,4.7908,4.7983,4.9053,4.959,4.9631,5.0419,5.1071,5.1615,5.0804,5.0804,5.1624,5.1096,5.051,4.9907,4.9088,4.9012,4.969,4.8269,4.7801,4.8545,4.7324,4.6737,4.6944,4.7004,4.6728,4.6135,4.6662,4.6662,0.0,0.0,0.0,0.0,0.0,0.0,0.0,0.0,0.0,0.0,0.0,3.7992,3.8298,3.8567,3.8852,3.9187,4.025,4.1241,4.2059,4.2098,4.2478,4.3502,4.3821,4.4274,4.4907,4.5417,4.5819,4.6175,4.6411,4.6778,4.739,4.7179,4.7195,4.7691,4.7857,4.7983,4.8259,4.8485,4.8661,4.8677,4.8661,4.8645,4.8661,4.8661,4.8661,4.8645,4.8661,4.8661,4.8661,4.8661,4.8661,4.8661,4.8661,4.8661,4.8586,4.8184,4.7832,4.7857,4.7857,4.8008,4.76,4.7199,4.7199,4.6938,4.6451,4.5432,4.4955,4.4815,4.483,4.483,4.4815,4.489,4.493,4.493,4.5006,4.5321,4.5788,4.5813,4.6326,4.7174,4.7199,4.745,4.7908,4.7967,4.8008,4.8033,4.8143,4.8218,4.8243,4.9305,4.9888,5.0116,5.1142,5.2025,5.2725,5.1701,5.1461,5.2076,5.1716,5.1448,5.1389,5.0435,5.0619,5.1925,4.9515,4.8796,5.0176,4.8303,4.7666,4.8617,4.8184,4.7883,4.7792,4.7842,4.7456,0.0,4.6461,0.0,0.0,0.0,0.0,0.0,0.0,0.0,0.0,4.1567,4.2332,4.1568,4.099,4.1276,4.276,4.3056,4.36,4.4644,4.474,4.4765,4.4916,4.5382,4.5723,4.5813,4.6637,4.7199,4.7199,4.7616,4.7892,4.8159,4.8626,4.9069,4.9305,4.9179,4.9053,4.9154,4.9681,5.0167,5.0117,5.0092,5.0092,5.0067,5.0117,5.0017,5.0092,5.0092,5.0042,5.0067,5.0092,5.0067,5.0017,5.0042,5.0042,5.0092,5.0067,4.9791,4.9204,4.9104,4.9296,4.7842,4.7757,4.7741,4.7691,4.7581,4.7365,4.6803,4.5969,4.5984,4.5959,4.601,4.6446,4.6622,4.6672,4.7089,4.7315,4.7456,4.744,4.7556,4.7741,4.7741,4.7792,4.7917,4.84,4.8626,4.8677,4.9515,4.9925,4.995,5.0619,5.153,5.2601,5.326,5.4521,5.6332,0.0,0.0,0.0,5.2435,5.2385,5.1933,5.1749,5.1774,5.2051,5.0268,0.0,4.969,4.846,4.7857,4.8058,4.7958,0.0,0.0,0.0,0.0,0.0,0.0,0.0,0.0,0.0,0.0,0.0,4.4662,4.3865,4.2328,4.2532,4.2423,4.1607,4.2383,4.3089,4.3427,4.4392,4.5245,4.5879,4.5598,4.5673,4.6496,4.6737,4.6948,4.7405,4.7631,4.7757,4.7792,4.7857,4.8269,4.9188,4.9741,5.0628,5.1891,5.0946,5.0494,5.1297,5.1833,5.2234,5.2268,5.2234,5.2184,5.2285,5.2285,5.226,5.2209,5.2234,5.226,5.2234,5.2268,5.2243,5.226,5.2285,5.2192,5.2243,5.226,5.1833,5.0427,5.0494,5.0987,4.9414,4.9147,4.9122,4.8971,0.0,4.8736,4.8435,4.7908,4.733,4.7089,4.7104,4.7099,4.7265,4.7475,4.749,4.7641,4.7908,4.8225,4.8485,4.8736,4.8997,4.9273,4.9606,4.9882,5.013,5.0293,5.0668,5.1363,5.2304,5.2743,5.3857,5.5659,5.6235,5.7266,5.8668,5.8308,5.6769,5.4148,5.3999,5.3809,5.3485,5.2582,5.2503,5.3248,5.1465,0.0,0.0,0.0,0.0,0.0,0.0,0.0,0.0,4.872,0.0,4.7541,4.7475,4.7375,4.7139,4.6863,4.6587,4.6311,4.6301,4.5695,4.424,4.4382,4.4343,4.3925,4.453,4.5057,4.5318,4.5899,4.6486,4.6988,4.6853,4.6928,4.739,4.749,4.76,4.7892,4.841,4.8736,4.8736,4.9264,4.9891,5.0695,5.1306,5.2017,5.2945,5.2586,5.2377,5.3173,5.3239,5.3389,5.37,5.3733,5.3733,5.3733,5.3733,5.3733,5.3733,5.3733,5.3733,5.3733,5.3733,5.3733,5.3733,5.3733,5.3733,5.3733,5.3733,5.3549,5.262,5.2495,5.2653,5.1202,5.0569,5.0569,5.0318,4.9891,4.9891,4.9891,4.9816,4.8702,0.0,0.0,4.7842,4.7927,4.8319,4.7992,4.8068,4.8535,4.9028,4.948,4.9933,5.0417,5.0886,5.1306,5.1722,5.2088,5.2472,5.2541,5.3505,5.5268,5.5467,5.6638,5.8645,5.9285,5.9914,6.0662,6.0799,5.9739,5.7665,5.6578,5.5907,5.564,5.403,5.3636,5.4678,5.2679,5.2151,5.3331,5.1147,5.0334,5.1214,5.0309,4.9891,5.0201,4.9741,4.8987,4.7983,4.749,4.7089,4.6778,4.6753,4.6753,4.6737,4.7039,4.6838,4.5849,4.6276,4.6587,4.6587,4.6577,4.6763,4.7199,4.7249,4.74,4.7857,4.7908,4.7942,4.8184,4.8209,4.8309,4.8535,4.9364,4.9907,4.9933,5.0745,5.1624,5.2159,5.2711,5.3439,5.3984,5.4059,5.4059,5.4479,5.4429,5.4361,5.473,5.4881,5.4898,5.4881,5.4881,5.4881,5.4898,5.4898,5.4898,5.4881,5.4898,5.4881,5.4898,5.4881,5.4881,5.4873,5.4898,5.4898,5.4848,5.4504,5.426,5.231,5.1163,5.1188,5.1138,5.1063,5.1063,5.1079,5.0962,4.9882,4.938,4.9389,4.9775,4.9975,5.0076,5.0494,5.0745,5.0837,5.0929,5.0987,5.1079,5.1428,5.1487,5.1397,5.3311,5.4525,5.5152,5.6713,5.8069,5.9086,5.9229,6.0001,6.1279,6.1535,6.2242,6.344,6.3805,6.3613,6.2982,6.1007,5.939,5.8212,5.7585,5.6531,5.5051,5.3512,5.2536,5.2327,5.1515,5.1138,5.1264,5.067,5.0126,4.9715,4.9254,4.8601,4.7942,4.7842,4.7983,4.8416,4.8466,4.8451,4.8426,4.8033,4.7516,4.6948,4.7365,4.7682,4.7666,4.7657,4.7691,4.7792,4.7817,4.7892,4.7983,4.7958,4.8284,4.9238,4.9364,4.9707,5.0561,5.0937,5.1038,5.1096,5.1624,5.2302,5.2812,5.3758,5.4705,5.544,5.544,5.5232,5.5333,5.5616,5.5824,5.5842,5.5968,5.5942,5.5949,5.5968,5.5993,5.5993,5.5993,5.5993,5.5974,5.5974,5.5993,5.5993,5.5974,5.5993,5.5993,5.5993,5.5968,5.5968,5.5849,5.5717,5.3874,5.3336,5.3302,5.3741,5.4331,5.3626,5.3319,5.3168,5.1917,5.1046,5.0535,5.0444,5.0594,5.097,5.1828,5.2385,5.2702,5.3945,5.4511,5.4564,5.5327,5.5636,5.5607,5.6909,5.783,5.8314,5.894,6.0105,6.1488,6.1453,6.2315,6.406,6.4535,6.5035,6.5646,6.5828,6.5843,6.5615,6.2885,6.0782,5.9392,5.8408,5.7032,5.5146,5.442,5.3892,5.3474,5.2628,5.2159,5.2176,5.1348,5.0787,5.0535,4.9992,4.954,4.9273,4.8987,4.8937,4.9204,4.9254,4.9229,4.9229,4.9003,4.8862,4.888,4.8269,4.7908,4.7933,4.82,4.8485,4.8786,4.9072,4.9389,4.9715,4.9741,4.9958,5.0385,5.0535,5.0736,5.1239,5.1565,5.185,5.2151,5.2922,5.3632,5.421,5.4988,5.5767,5.6527,5.6426,5.615,5.5942,5.6025,5.6168,5.6244,5.6477,5.6602,5.6652,5.6903,5.7079,5.7123,5.7104,5.7123,5.7123,5.7123,5.7123,5.7123,5.7123,5.7123,5.7123,5.7104,5.7123,5.7123,5.7104,5.6821,5.6381,5.6143,5.6143,5.6727,5.7563,5.6579,5.6117,5.6027,5.499,5.4036,5.3196,5.2075,5.1999,5.2874,5.3731,5.4457,5.5167,5.68,5.7685,5.7937,5.8859,5.9303,5.933,6.0125,6.0802,6.1168,6.1188,6.2149,6.3712,6.3634,6.4421,6.6115,6.6729,6.6999,6.6999,6.6999,6.6999,6.6817,6.4439,6.2447,6.107,5.9852,5.8253,5.6175,5.593,5.5537,5.4724,5.3855,5.335,5.3239,5.2352,5.1791,5.1649,5.1096,5.0728,5.0578,5.0218,4.9967,4.9967,5.0008,4.9983,4.9983,4.9967,5.0159,5.0444,4.9439,4.8661,4.8711,4.9179,4.9572,4.9958,5.0302,5.0795,5.1239,5.1289,5.1264,5.1465,5.159,5.1724,5.1867,5.2427,5.3038,5.3532,5.4436,5.5315,5.5867,5.6344,5.6753,5.7085,5.7186,5.7004,5.6746,5.6577,5.6627,5.662,5.6928,5.7179,5.723,5.7556,5.7732,5.7801,5.7851,5.7876,5.7819,5.7938,5.7944,5.8001,5.8114,5.8119,5.8131,5.8125,5.8138,5.8157,5.8131,5.7868,6.0586,5.9618,5.9477,5.9586,5.9688,5.9542,5.9449,5.946,5.9357,5.933,5.881,5.6201,5.5852,5.7268,5.744,5.7858,5.8489,5.8743,5.924,5.9797,6.016,6.0199,6.022,6.1636,6.2674,6.331,6.4334,6.5322,6.6334,6.6454,6.6666,6.6909,6.6984,6.7029,6.7029,6.7029,6.7029,6.6999,6.6696,6.5836,6.4531,6.3961,6.2169,5.8931,5.8522,5.7302,5.5256,5.4965,5.4738,5.4431,5.3801,5.3256,5.2762,5.2234,5.1749,5.1314,5.1188,5.1138,5.1163,5.1138,5.1138,5.1138,5.1163,5.1188,5.1264,5.1113,5.0987,5.0987,5.1038,5.1029,5.1138,5.1197,5.1364,5.149,5.149,5.1473,5.2051,5.246,5.2937,5.3457,5.426,5.5132,5.5164,5.6,5.6903,5.7399,5.7474,5.76,5.7775,5.7807,5.7851,5.775,5.7744,5.7738,5.7712,5.775,5.7901,5.7882,5.7876,5.8083,5.8171,5.8108,5.7945,5.8448,5.8321,5.8534,5.8633,5.8711,5.9018,5.9041,5.9034,5.8992,5.8997,5.8999,5.8792,6.169,6.1182,6.1198,6.117,6.1198,6.1182,6.1198,6.1119,6.0336,6.1007,6.2365,6.0507,5.9456,5.9275,6.0215,6.0813,6.1118,6.2097,6.2674,6.2995,6.3497,6.3671,6.3685,6.4667,6.5346,6.5584,6.6137,6.6607,6.6983,6.7373,6.7792,6.8136,6.8166,6.8196,6.8181,6.8196,6.8196,6.8196,6.8166,6.79,6.7184,6.5561,6.3065,6.0114,5.9617,5.8586,5.668,5.5929,5.5573,5.537,5.4671,5.4127,5.3926,5.37,5.3474,5.3265,5.2922,5.2871,5.3223,5.2645,5.2377,5.2695,5.2703,5.2721,5.2746,5.3047,5.3265,5.3122,5.2369,5.1791,5.1825,5.2327,5.2721,5.2771,5.3022,5.3316,5.3549,5.3775,5.4127,5.4655,5.5089,5.5691,5.6276,5.7029,5.7732,5.8202,5.8152,5.8089,5.8303,5.8359,5.8529,5.8818,5.9046,5.8889,5.8479,5.8554,5.8756,5.9008,5.9123,5.9212,5.9395,5.9078,5.8989,5.9421,5.9439,5.9553,5.9832,5.9875,6.0045,6.0031,6.0045,6.0045,6.0045,6.0045,6.0026,6.3379,6.3379,6.3379,6.3379,6.3379,6.335,6.3379,6.3286,6.2314,6.3192,6.5034,6.4182,6.3069,6.2146,6.2832,6.3269,6.3627,6.4738,6.5368,6.5577,6.6071,6.6265,6.634,6.6759,6.7104,6.7254,6.7268,6.7373,6.7567,6.8002,6.8511,6.8944,6.9004,6.9004,6.9004,6.9004,6.9004,6.8974,6.9004,6.9004,6.8712,6.7044,6.4446,6.1463,6.106,5.9945,5.7498,5.6737,5.6264,5.6023,5.5268,5.4805,5.4805,5.4697,5.4597,5.4572,5.4202,5.4127,5.4572,5.3826,5.3515,5.3884,5.3934,5.3934,5.4009,5.4353,5.4572,5.4471,5.3474,5.2804,5.2896,5.3499,5.3926,5.3976,5.4353,5.4597,5.4572,5.4697,5.5006,5.5516,5.5968,5.655,5.7623,5.8366,5.887,5.9015,5.8895,5.8719,5.904,5.9204,5.9445,5.976,6.008,5.9871,5.9141,5.935,5.9794,5.9984,6.0132,6.0272,6.0641,6.0099,5.9869,6.0125,6.0336,6.0514,6.0639,6.0817,6.0989,6.1034,6.1072,6.1058,6.1019,6.1072,6.1405,6.6772,6.6696,6.6741,6.656,6.6726,6.662,6.6681,6.6408,6.6467,6.6696,6.6773,6.6681,6.6665,6.6316,6.5291,6.5218,6.5756,6.5876,6.6281,6.6759,6.6909,6.6969,6.6954,6.7014,6.7343,6.7912,6.7942,6.8271,6.8824,6.8944,6.8974,6.9064,6.9093,6.9064,6.9093,6.9123,6.9034,6.9153,6.9153,6.9064,6.9064,6.8895,6.7048,6.3963,6.3471,6.1541,5.8102,5.7415,5.7004,5.6241,5.5695,5.5383,5.5315,5.4906,5.4672,5.4647,5.4597,5.4572,5.4647,5.4522,5.4496,5.4547,5.4572,5.4547,5.4554,5.4672,5.4748,5.4647,5.4622,5.4496,5.4496,5.4479,5.4579,5.4622,5.4647,5.4723,5.4723,5.5333,5.5591,5.6305,5.7241,5.8265,5.9668,6.0329,6.0195,6.0113,6.0291,6.0361,6.0023,6.0272,6.0476,6.0514,6.0584,6.052,6.0157,6.024,6.0526,6.0703,6.0779,6.0737,6.0698,6.066,6.0698,6.0813,6.0984,6.1174,6.1382,6.1552,6.1721,6.1834,6.2022,6.204,6.2164,6.204,6.2574,6.6999,6.6999,6.6999,6.6999,6.6999,6.6999,6.6999,6.6999,6.6999,6.6999,6.6999,6.6999,6.6999,6.6984,6.652,6.643,6.664,6.664,6.6775,6.7044,6.7433,6.7643,6.7688,6.8046,6.8375,6.86,6.8645,6.899,6.9588,6.9648,6.9842,7.0171,7.0231,7.0185,7.0231,7.0201,7.0231,7.0231,7.0231,7.0214,7.0171,7.0231,6.8925,6.642,6.4604,6.2748,6.074,5.8799,5.7616,5.7484,5.6747,5.6171,5.5929,5.5742,5.5616,5.5591,5.5308,5.5257,5.5483,5.4956,5.4773,5.5082,5.5107,5.5125,5.5182,5.5408,5.5616,5.5684,5.5968,5.6118,5.5993,5.5541,5.5257,5.5609,5.5942,5.6262,5.662,5.6897,5.7291,5.8131,5.9066,5.9947,6.0291,6.0622,6.0641,6.0546,6.0622,6.0641,6.0565,6.0622,6.0756,6.0775,6.0946,6.1098,6.1003,6.0996,6.1174,6.1344,6.142,6.1438,6.142,6.1136,6.1053,6.1921,6.2014,6.207,6.2351,6.2425,6.2563,6.2518,6.2704,6.3379,6.3416,6.3682,6.4491,6.6999,6.6999,6.6999,6.6999,6.6999,6.6999,6.6999,6.6999,6.6999,6.6999,6.6999,6.6999,6.6999,6.7029,6.7224,6.7343,6.7284,6.7134,6.7089,6.7343,6.7792,6.8107,6.8361,6.8764,6.9139,6.9333,6.9542,6.9871,7.0247,7.0306,7.0516,7.0859,7.0903,7.0903,7.0903,7.0903,7.0903,7.0903,7.0903,7.0873,7.0903,7.0903,7.0273,6.8699,6.6329,6.4126,6.2393,6.0261,5.8803,5.8224,5.7495,5.6815,5.6299,5.6219,5.6273,5.6333,5.6067,5.607,5.6432,5.5912,5.5605,5.5833,5.584,5.5829,5.5702,5.5993,5.6251,5.6477,5.6734,5.7072,5.7271,5.6841,5.6545,5.696,5.7369,5.7822,5.8238,5.8282,5.8622,5.9343,6.0244,6.0812,6.0946,6.106,6.106,6.0965,6.1022,6.1079,6.0965,6.106,6.1117,6.1136,6.1401,6.1864,6.2231,6.2566,6.1996,6.2022,6.2172,6.2172,6.2444,6.2007,6.2119,6.2918,6.3251,6.3224,6.3242,6.3343,6.3379,6.3361,6.4038,6.4895,6.5182,6.5609,6.6314,6.6999,6.6999,6.6999,6.6999,6.6999,6.6999,6.6999,6.6999,6.6999,6.6999,6.6999,6.6999,6.7044,6.7164,6.7658,6.7958,6.7912,6.7463,6.7523,6.8017,6.8137,6.8481,6.9004,6.9153,6.9498,7.0007,7.056,7.0813,7.0829,7.0799,7.0859,7.0889,7.0903,7.0903,7.0903,7.0903,7.0919,7.0979,7.1009,7.0992,7.0903,7.1009,7.0914,7.0569,6.8791,6.6088,6.2501,6.1942,6.0668,5.8747,5.8024,5.7268,5.6603,5.6379,5.6419,5.6797,5.6819,5.6975,5.7289,5.7231,5.693,5.679,5.675,5.6573,5.6337,5.6321,5.6529,5.6976,5.7184,5.7459,5.8311,5.8518,5.8467,5.8499,5.8748,5.8985,5.9259,5.9289,5.9413,6.021,6.1195,6.1488,6.1589,6.1928,6.2059,6.1827,6.1902,6.204,6.1902,6.2201,6.2172,6.2209,6.2648,6.3242,6.3774,6.4111,6.3306,6.2704,6.2834,6.3001,6.3865,6.3911,6.4174,6.4806,6.4985,6.4985,6.4931,6.5021,6.5253,6.5413,6.6068,6.6374,6.6688,6.7053,6.7719,6.7403,6.6999,6.6999,6.6999,6.6999,6.6999,6.6999,6.6999,6.6999,6.6999,6.6999,6.6999,6.7254,6.7643,6.7928,6.8241,6.8645,6.8465,6.8495,6.875,6.9169,6.9439,6.9708,7.0111,7.041,7.062,7.0799,7.0903,7.0903,7.0903,7.0903,7.0903,7.0903,7.0903,7.0903,7.0919,7.1098,7.1547,7.1577,7.1816,7.2176,7.1833,7.1577,7.1468,7.0495,6.881,6.6646,6.3839,6.2085,6.1287,5.9906,5.8804,5.8199,5.7444,5.7295,5.7659,5.7396,5.7235,5.7379,5.7397,5.7379,5.7235,5.7217,5.7163,5.7055,5.7026,5.7273,5.7801,5.8183,5.876,5.9383,6.0125,6.0275,5.9529,5.9597,6.036,6.1532,6.2792,6.3154,6.2758,6.3848,6.4706,6.459,6.4274,6.3444,6.3334,6.3426,6.3426,6.3481,6.4129,6.4985,6.5021,6.5092,6.4887,6.5431,6.5793,6.5467,6.4851,6.4671,6.4545,6.5271,6.5804,6.6139,6.6549,6.6734,6.6786,6.6734,6.6769,6.7012,6.7099,6.7341,6.7667,6.7992,6.8502,6.9119,6.8122,6.7747,6.7747,6.7747,6.7762,6.7762,6.7747,6.7747,6.7747,6.7747,6.7762,6.7747,6.7972,6.8361,6.863,6.896,6.9379,6.9572,6.9676,6.9692,6.9828,7.0097,7.0336,7.0709,7.0903,7.0903,7.0903,7.0903,7.0903,7.0903,7.0903,7.0903,7.0903,7.1052,7.1218,7.1278,7.1623,7.2176,7.2282,7.2458,7.2727,7.2475,7.2265,7.2206,7.1876,7.1073,6.9738,6.6793,6.4496,6.2956,6.0885,5.9595,5.9068,5.8423,5.8162,5.8264,5.8146,5.7899,5.7826,5.7864,5.7739,5.7649,5.7595,5.7523,5.7485,5.7526,5.8099,5.9225,5.9906,6.0755,6.1961,6.2636,6.2745,6.2415,6.1893,6.2133,6.3465,6.4975,6.518,6.4463,6.5208,6.6191,6.6139,6.5786,6.5021,6.5003,6.5021,6.5003,6.5182,6.5751,6.6262,6.6444,6.6103,6.6297,6.7053,6.7364,6.7547,6.722,6.6873,6.6734,6.6977,6.7209,6.7501,6.8383,6.8801,6.8885,6.8834,6.8666,6.8733,6.8733,6.87,6.9153,6.9599,6.9897,7.0413,6.9034,6.9004,6.8974,6.8914,6.8884,6.8884,6.8854,6.8914,6.8914,6.8854,6.8884,6.8794,6.8944,6.9183,6.9558,6.9858,7.0127,7.05,7.0693,7.059,7.041,7.0366,7.0769,7.0889,7.0873,7.0903,7.0903,7.0903,7.0903,7.0903,7.0903,7.0903,7.0903,7.1218,7.1683,7.1863,7.2222,7.2864,7.2937,7.2997,7.3133,7.2967,7.2967,7.2937,7.2787,7.2408,7.1599,6.9904,6.7308,6.3728,6.1326,6.0049,5.9451,5.9208,5.9069,5.9051,5.8939,5.8799,5.8659,5.8641,5.8534,5.8266,5.8212,5.7906,5.7922,5.8564,5.9558,6.1121,6.1969,6.3244,6.4977,6.5472,6.5667,6.6171,6.5161,6.4625,6.4473,6.5821,6.6304,6.5431,6.5751,6.6751,6.7064,6.6821,6.6549,6.6514,6.6559,6.6559,6.6682,6.6943,6.6804,6.7029,6.7513,6.789,6.8704,6.8817,6.8969,6.8935,6.8666,6.8564,6.8497,6.8654,6.8856,6.9781,7.0272,7.0531,7.0547,7.0091,7.0025,7.0058,7.0272,7.0791,7.0903,7.0886,7.1112,6.9453,6.9034,6.9004,6.9004,6.9004,6.9004,6.9004,6.9004,6.9034,6.9093,6.9034,6.9004,6.9333,6.9738,6.9917,7.0217,7.059,7.0813,7.0903,7.0873,7.0769,7.0739,7.0889,7.0903,7.0903,7.0903,7.0903,7.0903,7.0903,7.0903,7.0903,7.0903,7.0949,7.1248,7.1803,7.1953,7.2551,7.3462,7.3642,7.3881,7.4197,7.3821,7.3642,7.3612,7.3193,7.2864,7.2461,7.0732,6.795,6.4354,6.2992,6.1997,6.1171,6.0394,6.0067,6.0263,6.0086,5.9825,5.9777,5.9825,5.9725,5.9606,5.9799,5.9578,5.9523,6.0667,6.1729,6.2873,6.39,6.5164,6.6076,6.6402,6.689,6.7839,6.773,6.7051,6.6507,6.8043,6.9153,6.7992,6.8733,6.9286,6.9236,6.87,6.8112,6.8078,6.8095,6.8095,6.8197,6.8767,6.8952,6.9499,6.9943,6.9996,7.0206,7.0272,7.0383,7.0449,7.0288,7.0124,7.0075,7.0108,7.0305,7.0726,7.0612,7.0743,7.0791,7.0612,7.084,7.0903,7.0903,7.0903,7.0903,7.0903,7.1278,7.0141,6.9812,6.9812,6.9812,6.9812,6.9812,6.9812,6.9796,6.9812,6.9812,6.9812,6.9812,7.0021,7.035,7.038,7.056,7.0873,7.0903,7.0903,7.0903,7.0873,7.0889,7.0903,7.0903,7.0903,7.0903,7.0903,7.0903,7.0903,7.0903,7.0903,7.0962,7.1188,7.1667,7.2325,7.2654,7.324,7.4121,7.43,7.4557,7.4843,7.4527,7.4377,7.4287,7.3911,7.3642,7.3148,7.1584,6.8911,6.5806,6.4218,6.3187,6.2085,6.139,6.1032,6.1155,6.1286,6.1431,6.1344,6.1675,6.2075,6.2164,6.2282,6.2506,6.2738,6.3618,6.4513,6.568,6.6706,6.7696,6.8577,6.8951,6.9535,7.0329,7.0456,6.9615,6.7633,6.9399,6.9963,6.9549,6.9897,7.0903,7.0903,7.0091,6.9748,6.9632,6.9632,6.9615,6.9698,7.0514,7.0903,7.0903,7.0903,7.0694,7.0596,7.0645,7.0661,7.0824,7.0886,7.0903,7.0903,7.0903,7.0903,7.0886,7.0903,7.0903,7.0903,7.0903,7.0903,7.0903,7.0903,7.0903,7.0903,7.0903,7.1278,7.0903,7.0873,7.0873,7.0903,7.0843,7.0873,7.0769,7.0843,7.0753,7.0799,7.0799,7.0843,7.0769,7.0903,7.0783,7.0873,7.0903,7.0903,7.0903,7.0903,7.0903,7.0903,7.0903,7.0903,7.0903,7.0903,7.0903,7.0962,7.1068,7.1068,7.1128,7.1368,7.1787,7.2325,7.2954,7.3522,7.4197,7.4676,7.4766,7.4796,7.4886,7.4796,7.4766,7.4736,7.4736,7.4347,7.3702,7.2553,7.0468,6.7012,6.5461,6.4301,6.298,6.2635,6.2532,6.2528,6.3361,6.3646,6.3469,6.4474,6.5024,6.5083,6.5551,6.5925,6.5771,6.6271,6.7191,6.7968,6.9341,7.0095,7.1172,7.2232,7.2354,7.2404,7.2624,7.157,7.0036,7.0196,7.0459,6.9266,7.0206,7.0726,7.0903,7.0903,7.0824,7.0305,7.0387,7.0354,7.0354,7.0661,7.0903,7.0903,7.0903,7.0903,7.084,7.087,7.084,7.0903,7.0903,7.0903,7.0903,7.0903,7.0903,7.0903,7.0903,7.0903,7.0903,7.0903,7.0903,7.0903,7.0903,7.0903,7.0903,7.0903,7.1128,7.0903,7.0903,7.0903,7.0903,7.0903,7.0903,7.0903,7.0903,7.0903,7.0903,7.0903,7.0903,7.0903,7.0903,7.0903,7.0903,7.0903,7.0903,7.0903,7.0903,7.0903,7.0903,7.0903,7.0903,7.0903,7.0903,7.0903,7.1158,7.1487,7.1564,7.1906,7.2325,7.2415,7.2997,7.3552,7.3821,7.4227,7.4766,7.4886,7.4886,7.4886,7.4886,7.4886,7.4886,7.4886,7.4557,7.4031,7.3612,7.2277,7.0146,6.8498,6.7184,6.611,6.5539,6.5613,6.6143,6.631,6.6637,6.7069,6.7351,6.7615,6.7693,6.7884,6.7618,6.7165,6.8349,6.8818,6.911,6.9862,7.0984,7.196,7.2565,7.2984,7.3103,7.295,7.2538,7.1546,7.1456,7.1152,7.0712,7.0612,7.0903,7.0903,7.0903,7.0903,7.0903,7.0903,7.0903,7.0903,7.0903,7.0903,7.0903,7.0903,7.0903,7.0903,7.0903,7.0903,7.0903,7.0903,7.0903,7.0903,7.0903,7.0903,7.0903,7.0903,7.0903,7.0903,7.0903,7.0903,7.0903,7.0903,7.0903,7.0903,7.0903,7.1112,7.0903,7.0903,7.0903,7.0903,7.0903,7.0903,7.0903,7.0903,7.0903,7.0903,7.0903,7.0903,7.0903,7.0903,7.0903,7.0903,7.0903,7.0919,7.1098,7.1218,7.1128,7.1068,7.1248,7.1022,7.0903,7.0903,7.0903,7.1128,7.1338,7.1517,7.1517,7.2056,7.2595,7.2984,7.3582,7.4031,7.4527,7.4796,7.4886,7.4886,7.4886,7.4886,7.4886,7.4886,7.4886,7.4706,7.4407,7.4031,7.3312,7.2251,7.12,6.9733,6.8206,6.7565,6.778,6.8189,6.8928,6.9026,6.9435,7.01,7.0529,7.0489,7.0744,7.0761,7.0512,7.1024,7.0956,7.0838,7.1173,7.1727,7.2731,7.3462,7.3762,7.3762,7.3505,7.3073,7.2475,7.2086,7.1653,7.1098,7.084,7.0903,7.0903,7.0903,7.0903,7.0903,7.0903,7.0903,7.0903,7.0903,7.0903,7.0903,7.0903,7.0903,7.0903,7.0903,7.0903,7.0903,7.0903,7.0903,7.0903,7.0903,7.0903,7.0903,7.0903,7.0903,7.0903,7.0903,7.0903,7.0903,7.0903,7.0903,7.0903,7.0903,7.1218,7.0903,7.0903,7.0903,7.0903,7.0903,7.0903,7.0903,7.0903,7.0903,7.0903,7.0903,7.0903,7.0903,7.0903,7.0903,7.0903,7.0962,7.1291,7.1637,7.1713,7.1577,7.1697,7.1846,7.1637,7.1381,7.1202,7.1158,7.1248,7.1517,7.1398,7.2026,7.1876,7.2654,7.3432,7.3612,7.4227,7.4856,7.4886,7.4886,7.4886,7.4886,7.4886,7.4886,7.4886,7.4886,7.4886,7.4706,7.4407,7.4027,7.4018,7.3522,7.1858,7.0155,6.9131,6.9302,6.9472,7.0738,7.1248,7.1648,7.2386,7.3044,7.3206,7.3587,7.381,7.358,7.2878,7.2464,7.2279,7.2192,7.2192,7.3479,7.3821,7.4257,7.4317,7.3988,7.3492,7.2834,7.2206,7.1653,7.1068,7.0903,7.0903,7.0903,7.0903,7.0903,7.0903,7.0903,7.0903,7.0903,7.0903,7.0903,7.0903,7.0903,7.0903,7.0903,7.0903,7.0903,7.0903,7.0903,7.0903,7.0903,7.0903,7.0903,7.0903,7.0903,7.0903,7.0903,7.0903,7.0903,7.0903,7.0903,7.0903,7.0903,7.0903,7.1218,7.0903,7.0903,7.0903,7.0903,7.0903,7.0903,7.0903,7.0903,7.0903,7.0903,7.0903,7.0903,7.0903,7.0903,7.0903,7.0903,7.1158,7.1757,7.2206,7.2192,7.2235,7.2548,7.2624,7.2428,7.2445,7.2398,7.2146,7.2265,7.2954,7.3402,7.3133,7.3958,7.4257,7.4377,7.4377,7.4826,7.4886,7.4886,7.4886,7.4886,7.4886,7.4886,7.4886,7.4886,7.4886,7.4886,7.4886,7.4796,7.4736,7.4706,7.4616,7.4206,7.3342,7.2449,7.2508,7.3015,7.3127,7.3239,7.375,7.4181,7.4527,7.4587,7.4616,7.4377,7.3941,7.3326,7.2834,7.2235,7.2042,7.2042,7.2192,7.3013,7.3253,7.3253,7.3163,7.2834,7.2282,7.1893,7.1593,7.1009,7.0903,7.0903,7.0903,7.0903,7.0903,7.0903,7.0903,7.0903,7.0903,7.0903,7.0903,7.0903,7.0903,7.0903,7.0903,7.0903,7.0903,7.0903,7.0903,7.0903,7.0903,7.0903,7.0903,7.0903,7.0903,7.0903,7.0903,7.0903,7.0903,7.0903,7.0903,7.0903,7.0903,7.0903,7.0903,7.0903,7.0903,7.0903,7.0903,7.0903,7.0903,7.0903,7.0903,7.0903,7.0903,7.0903,7.0903,7.0903,7.0903,7.0903,7.1052,7.1547,7.1966,7.2581,7.2821,7.2937,7.3116,7.3313,7.3133,7.3176,7.3223,7.3103,7.2954,7.3343,7.3296,7.3672,7.3821,7.4197,7.4407,7.4497,7.4676,7.4856,7.4886,7.4886,7.4886,7.4886,7.4886,7.4886,7.4886,7.4886,7.4886,7.4826,7.4497,7.4587,7.4736,7.4557,7.4616,7.4587,7.4467,7.418,7.4676,7.4587,7.4527,7.4826,7.4886,7.4856,7.4856,7.4886,7.4766,7.4347,7.3791,7.2924,7.2162,7.1893,7.1893,7.1983,7.2475,7.2834,7.2817,7.2578,7.2235,7.1923,7.1593,7.1248,7.0949,7.0919,7.0903,7.0903,7.0903,7.0903,7.0903,7.0903,7.0903,7.0903,7.0903,7.0903,7.0903,7.0903,7.0903,7.0903,7.0903,7.0903,7.0903,7.0903,7.0903,7.0903,7.0903,7.0903,7.0903,7.0903,7.0903,7.0903,7.0903,7.0903,7.0903,7.0903,7.0903,7.0903,7.0903,7.0903,7.0903,7.0903,7.0903,7.0903,7.0903,7.0903,7.0903,7.0903,7.0903,7.0903,7.0903,7.0903,7.0903,7.0932,7.1098,7.1338,7.1803,7.2013,7.2894,7.3343,7.3522,7.3672,7.3791,7.3702,7.3642,7.4001,7.3762,7.3702,7.3642,7.3552,7.3402,7.3702,7.4018,7.4108,7.4317,7.4706,7.4856,7.4886,7.4886,7.4886,7.4886,7.4886,7.4886,7.4886,7.4886,7.4826,7.4587,7.4257,7.4108,7.4227,7.4168,7.4168,7.4616,7.4826,7.4826,7.4753,7.4826,7.4886,7.4886,7.4886,7.4886,7.4886,7.4886,7.4886,7.4616,7.3958,7.3073,7.2042,7.1683,7.1637,7.1637,7.2146,7.2385,7.2325,7.1966,7.1653,7.1534,7.1308,7.1098,7.0903,7.0903,7.0903,7.0903,7.0903,7.0903,7.0903,7.0903,7.0903,7.0903,7.0903,7.0903,7.0903,7.0903,7.0903,7.0903,7.0903,7.0903,7.0903,7.0903,7.0903,7.0903,7.0903,7.0903,7.0903,7.0903,7.0903,7.0903,7.0903,7.0903,7.0903,7.0903,7.0903,7.0903,7.0903,7.0903,7.0903,7.0903,7.0903,7.0903,7.0903,7.0903,7.0903,7.0903,7.0903,7.0903,7.0903,7.0903,7.0903,7.1009,7.1457,7.1427,7.1667,7.2535,7.3193,7.3373,7.4001,7.4437,7.4706,7.4753,7.4467,7.4587,7.418,7.427,7.4287,7.4377,7.4497,7.4467,7.4437,7.4736,7.4676,7.4796,7.4886,7.4886,7.4886,7.4826,7.4796,7.4796,7.4826,7.4826,7.4856,7.4706,7.4317,7.4001,7.3851,7.3462,7.3762,7.3928,7.4091,7.4616,7.4497,7.4407,7.448,7.4886,7.4826,7.4856,7.4826,7.4796,7.4796,7.4856,7.4437,7.3612,7.2505,7.1172,7.1068,7.1098,7.1142,7.1142,7.1172,7.1262,7.1278,7.1128,7.1038,7.1158,7.0932,7.0903,7.0903,7.0903,7.0903,7.0903,7.0903,7.0903,7.0903,7.0903,7.0903,7.0903,7.0903,7.0903,7.0903,7.0903,7.0903,7.0903,7.0903,7.0903,7.0903,7.0903,7.0903,7.0903,7.0903,7.0903,7.0903,7.0903,7.0903,7.0903,7.0903,7.0903,7.0903,7.0903,7.0903,7.0903,7.0903,7.0903,7.0903,7.0903,7.0903,7.0903,7.0903,7.0903,7.0903,7.0903,7.0903,7.0903,7.0903,7.0903,7.0979,7.1248,7.1398,7.1607,7.2432,7.312,7.3373,7.4048,7.4527,7.4796,7.4886,7.4886,7.4736,7.4646,7.4587,7.4676,7.4168,7.3928,7.4377,7.4407,7.4527,7.4826,7.4886,7.4886,7.4796,7.4527,7.4138,7.3988,7.4121,7.433,7.4377,7.4676,7.4616,7.4377,7.4031,7.4048,7.3851,7.4108,7.4108,7.4407,7.4736,7.4736,7.4557,7.4347,7.4347,7.4347,7.4646,7.4616,7.4407,7.4317,7.4138,7.3719,7.2954,7.2206,7.1577,7.1098,7.0949,7.0903,7.0903,7.0903,7.0903,7.0903,7.0903,7.0903,7.0903,7.0903,7.0903,7.0903,7.0903,7.0903,7.0903,7.0903,7.0903,7.0903,7.0903,7.0903,7.0903,7.0903,7.0903,7.0903,7.0903,7.0903,7.0903,7.0903,7.0903,7.0903,7.0903,7.0903,7.0903,7.0903,7.0903,7.0903,7.0903,7.0903,7.0903,7.0903,7.0903,7.0903,7.0903,7.0903,7.0903,7.0903,7.0903,7.0903,7.0903,7.0903,7.0903,7.0903,7.0903,7.0903,7.0903,7.0903,7.0903,7.0903,7.0903,7.0903,7.0949,7.1158,7.1623,7.1833,7.2461,7.3133,7.3612,7.3911,7.4091,7.4317,7.4317,7.4407,7.3868,7.3868,7.3599,7.3223,7.2984,7.4061,7.4347,7.4497,7.4736,7.4676,7.4557,7.4527,7.4407,7.4078,7.3762,7.3791,7.3911,7.4001,7.4197,7.4317,7.4108,7.3659,7.3629,7.3419,7.3419,7.3419,7.3778,7.4018,7.4018,7.3791,7.3479,7.3163,7.3313,7.3582,7.3971,7.3851,7.3582,7.3402,7.2774,7.2146,7.1743,7.1534,7.1188,7.0949,7.0903,7.0903,7.0903,7.0903,7.0903,7.0903,7.0873,7.0813,7.0843,7.0903,7.0903,7.0903,7.0903,7.0903,7.0903,7.0903,7.0903,7.0903,7.0903,7.0903,7.0903,7.0903,7.0903,7.0903,7.0903,7.0903,7.0903,7.0903,7.0903,7.0903,7.0903,7.0903,7.0903,7.0903,7.0903,7.0903,7.0903,7.0903,7.0903,7.0903,7.0903,7.0903,7.0903,7.0903,7.0903,7.0903,7.0903,7.0903,7.0903,7.0903,7.0903,7.0903,7.0903,7.0903,7.0903,7.0903,7.0903,7.0903,7.0903,7.0903,7.0949,7.1038,7.1607,7.1983,7.2295,7.2654,7.3027,7.3283,7.3313,7.3223,7.3103,7.3,7.2641,7.2162,7.2206,7.2924,7.4437,7.4138,7.4604,7.4616,7.4168,7.3898,7.3958,7.4018,7.4287,7.4018,7.3928,7.3702,7.3642,7.3283,7.2774,7.2176,7.2325,7.2176,7.1923,7.2146,7.2222,7.2551,7.2834,7.2804,7.2505,7.2222,7.1846,7.1787,7.2385,7.2877,7.2967,7.2727,7.2309,7.1697,7.1833,7.1564,7.0949,7.059,7.0679,7.0723,7.0873,7.0739,7.056,7.053,7.0679,7.0679,7.0709,7.0739,7.0843,7.0903,7.0903,7.0903,7.0903,7.0903,7.0903,7.0903,7.0903,7.0903,7.0903,7.0903,7.0903,7.0903,7.0903,7.0903,7.0903,7.0903,7.0903,7.0903,7.0903,7.0903,7.0903,7.0903,7.0903,7.0903,7.0903,7.0903,7.0903,7.0903,7.0903,7.0903,7.0903,7.0903,7.0903,7.0903,7.0903,7.0903,7.0903,7.0903,7.0903,7.0903,7.0903,7.0903,7.0903,7.0903,7.0903,7.0903,7.0903,7.0903,7.0903,7.0903,7.0932,7.1128,7.1517,7.1863,7.2192,7.2505,7.2714,7.2834,7.2924,7.2787,7.2565,7.2505,7.2535,7.1966,7.2488,7.3373,7.3329,7.3373,7.3343,7.3492,7.3163,7.2851,7.291,7.294,7.2505,7.2701,7.2654,7.2611,7.3013,7.2757,7.2578,7.2535,7.2132,7.1713,7.1683,7.1504,7.1278,7.1547,7.1487,7.1188,7.0965,7.0576,7.0516,7.1068,7.1487,7.1038,7.0739,7.047,7.035,7.0201,7.0067,6.9782,6.9826,6.9991,6.9782,7.0051,7.0217,7.0007,7.0021,7.026,7.041,7.047,7.0679,7.0829,7.0873,7.0903,7.0903,7.0903,7.0903,7.0903,7.0903,7.0903,7.0903,7.0903,7.0903,7.0903,7.0903,7.0903,7.0903,7.0903,7.0903,7.0903,7.0903,7.0903,7.0903,7.0903,7.0903,7.0903,7.0903,7.0903,7.0903,7.0903,7.0903,7.0903,7.0903,7.0903,7.0903,7.0903,7.0903,7.0903,7.0903,7.0903,7.0903,7.0903,7.0903,7.0903,7.0903,7.0903,7.0903,7.0903,7.0903,7.0903,7.0903,7.0903,7.0903,7.0903,7.0962,7.1218,7.1427,7.1637,7.1906,7.2176,7.2265,7.2099,7.2309,7.2309,7.2189,7.2086,7.2265,7.2219,7.2069,7.1936,7.2206,7.2834,7.2864,7.2565,7.2072,7.2072,7.1996,7.1727,7.1787,7.1757,7.1683,7.1816,7.1607,7.1411,7.1248,7.1158,7.0889,7.0799,7.0696,7.047,7.032,7.032,7.0111,6.9828,6.9454,6.9558,6.9887,7.0141,6.9871,6.9512,6.9243,6.9004,6.9153,6.9648,6.9528,6.9393,6.9243,6.9213,6.9648,6.9648,6.9423,6.9512,6.9738,7.0037,7.0187,7.05,7.0799,7.0859,7.0903,7.0903,7.0903,7.0903,7.0903,7.0903,7.0903,7.0903,7.0903,7.0903,7.0903,7.0903,7.0903,7.0903,7.0903,7.0903,7.0903,7.0903,7.0903,7.0903,7.0962,7.0932,7.0903,7.0903,7.0903,7.0903,7.0919,7.0903,7.0903,7.0903,7.0903,7.0903,7.0903,7.0903,7.0873,7.0903,7.0903,7.0903,7.0903,7.0903,7.0903,7.0903,7.0903,7.0903,7.0903,7.0903,7.0903,7.0903,7.0903,7.0903,7.0903,7.0903,7.0962,7.1068,7.1128,7.1052,7.1082,7.1202,7.1351,7.1022,7.1172,7.1291,7.1128,7.1291,7.1202,7.1172,7.1248,7.1547,7.2744,7.2877,7.2535,7.2072,7.2445,7.2445,7.2295,7.1906,7.1457,7.0995,7.0696,7.0456,6.9991,6.9871,6.9752,6.9528,6.9439,6.9273,6.9064,6.9004,6.9004,6.8974,6.8451,6.8167,6.8151,6.875,6.8944,6.8914,6.8585,6.8645,6.8974,6.9319,6.9439,6.899,6.9319,6.9558,6.9558,6.9379,6.9034,6.8824,6.887,6.9229,6.9528,6.9768,7.0081,7.0679,7.0843,7.0903,7.0903,7.0903,7.0903,7.0903,7.0903,7.0903,7.0903,7.0903,7.0903,7.0903,7.0903,7.0903,7.0903,7.0903,7.0903,7.0903,7.1022,7.1188,7.1278,7.1427,7.1308,7.1022,7.1038,7.1188,7.1038,7.0919,7.1158,7.1398,7.0962,7.0903,7.0903,7.0992,7.1128,7.053,7.0903,7.0903,7.0903,7.0903,7.0903,7.0903,7.0903,7.0903,7.0903,7.0903,7.0903,7.0903,7.0903,7.0903,7.0903,7.0903,7.0903,7.0903,7.0903,7.0903,7.0903,7.0903,7.0903,7.0903,7.0903,7.0903,7.0903,7.0932,7.0843,7.0873,7.0903,7.0723,7.1128,7.1457,7.1577,7.1398,7.1308,7.1457,7.1531,7.1577,7.1338,7.0935,7.0336,7.0037,6.9558,6.8914,6.8824,6.869,6.8391,6.8331,6.8166,6.7897,6.7807,6.7747,6.7747,6.7403,6.7583,6.7822,6.8241,6.8092,6.7942,6.7867,6.7897,6.7747,6.7837,6.7972,6.8151,6.8391,6.8331,6.7837,6.8271,6.8151,6.7822,6.7942,6.863,6.9019,6.9213,6.9526,7.0424,7.0903,7.0903,7.0903,7.0903,7.0903,7.0903,7.0903,7.0903,7.0903,7.0903,7.0903,7.0903,7.0903,7.0903,7.0903,7.0903,7.1052,7.1218,7.1517,7.1893,7.1936,7.1727,7.1667,7.1398,7.1427,7.1457,7.1308,7.1278,7.1787,7.1936,7.1547,7.1202,7.1218,7.1398,7.1607,6.9887,7.0231,7.0231,7.038,7.059,7.0799,7.0903,7.0903,7.0903,7.0903,7.0903,7.0903,7.0903,7.0903,7.0903,7.0903,7.0903,7.0903,7.0903,7.0903,7.0903,7.0903,7.0903,7.0903,7.0903,7.0903,7.0903,7.0903,7.0873,7.0679,7.041,7.0201,7.0244,7.0171,7.035,7.059,7.1009,7.1009,7.1082,7.1022,7.0949,7.0679,7.0306,6.9768,6.9319,6.893,6.8481,6.8241,6.8151,6.7792,6.7583,6.7463,6.7119,6.6999,6.6999,6.6999,6.7313,6.7553,6.7912,6.8002,6.7898,6.7628,6.7343,6.7208,6.7148,6.7463,6.7553,6.7568,6.7299,6.7343,6.7463,6.7882,6.7553,6.7224,6.7643,6.8331,6.896,6.9153,6.9692,7.053,7.0903,7.0903,7.0903,7.0903,7.0903,7.0903,7.0903,7.0903,7.0903,7.0903,7.0903,7.0903,7.0903,7.0903,7.0903,7.0903,7.1128,7.1487,7.1757,7.2013,7.1757,7.1427,7.1607,7.1757,7.1637,7.1547,7.1534,7.1653,7.2013,7.2176,7.2086,7.1816,7.1607,7.1846,7.2222,6.9004,6.9004,6.9034,6.9482,7.0067,7.0649,7.0903,7.0903,7.0903,7.0903,7.0903,7.0903,7.0903,7.0903,7.0903,7.0903,7.0903,7.0903,7.0903,7.0903,7.0903,7.0903,7.0903,7.0903,7.0903,7.0903,7.0903,7.0873,7.0829,7.041,6.9812,6.9363,6.9393,6.9453,6.9752,7.0231,7.062,7.053,7.0649,7.056,7.041,7.0141,6.9618,6.9079,6.8571,6.8032,6.7583,6.7268,6.7208,6.7089,6.7059,6.7029,6.6999,6.6999,6.6999,6.7148,6.7598,6.7748,6.7987,6.7972,6.7972,6.7808,6.7882,6.7583,6.7343,6.7343,6.7479,6.7568,6.7523,6.7748,6.7958,6.7583,6.7224,6.7403,6.7732,6.8361,6.9079,6.9572,7.0111,7.062,7.0813,7.0903,7.0903,7.0903,7.0903,7.0903,7.0903,7.0903,7.0903,7.0903,7.0903,7.0903,7.0903,7.0903,7.0903,7.0903,7.1188,7.1517,7.1427,7.1564,7.1308,7.1398,7.1667,7.1816,7.1727,7.1667,7.1653,7.1773,7.1983,7.2146,7.2595,7.2488,7.2309,7.2624,7.2924,6.8571,6.9034,6.9512,6.9828,7.0067,7.062,7.0903,7.0903,7.0903,7.0903,7.0903,7.0903,7.0903,7.0903,7.0903,7.0903,7.0903,7.0903,7.0903,7.0903,7.0903,7.0903,7.0903,7.0903,7.0903,7.0903,7.0903,7.0873,7.0769,7.0306,6.9977,6.9722,6.9199,6.9273,6.9602,7.0067,6.9931,6.9901,7.0111,7.0051,6.9782,6.9423,6.89,6.8421,6.8107,6.7553,6.7164,6.6999,6.6999,6.6999,6.6999,6.6999,6.6999,6.6999,6.6999,6.6999,6.7254,6.7433,6.7882,6.8002,6.8032,6.8077,6.8077,6.7643,6.7313,6.7284,6.7463,6.7643,6.7732,6.7882,6.7942,6.7673,6.7673,6.8062,6.8301,6.86,6.9289,6.9887,7.041,7.0679,7.0873,7.0903,7.0903,7.0903,7.0903,7.0903,7.0903,7.0903,7.0903,7.0903,7.0903,7.0903,7.0903,7.0903,7.0903,7.0903,7.1248,7.1534,7.1384,7.1487,7.1846,7.1966,7.1936,7.1816,7.1577,7.1667,7.1833,7.1953,7.2013,7.294,7.3402,7.3206,7.3146,7.3356,7.3582,6.7822,6.8271,6.863,6.9109,6.9738,7.053,7.0903,7.0903,7.0903,7.0903,7.0903,7.0903,7.0903,7.0903,7.0903,7.0903,7.0903,7.0903,7.0903,7.0903,7.0903,7.0903,7.0903,7.0903,7.0903,7.0903,7.0903,7.0873,7.0739,7.032,6.9901,6.9482,6.9123,6.9273,6.9542,6.9752,6.9632,6.9558,6.9528,6.9498,6.9183,6.8764,6.8331,6.8092,6.7852,6.7433,6.7134,6.7059,6.7029,6.6999,6.6999,6.7148,6.7284,6.7403,6.7403,6.7463,6.7493,6.7673,6.7972,6.8301,6.8331,6.8361,6.8331,6.8241,6.7912,6.7792,6.7882,6.7972,6.7972,6.7972,6.7942,6.7972,6.8405,6.8854,6.8884,6.89,6.9482,7.0111,7.05,7.0783,7.0903,7.0903,7.0903,7.0903,7.0903,7.0903,7.0903,7.0903,7.0903,7.0903,7.0903,7.0903,7.0903,7.0903,7.0903,7.0903,7.1098,7.1278,7.1218,7.1457,7.2099,7.2056,7.1637,7.1457,7.1338,7.1487,7.1713,7.1863,7.2102,7.294,7.3449,7.3223,7.3266,7.3851,7.4078,6.7164,6.7284,6.7208,6.8226,6.9243,7.044,7.0903,7.0903,7.0903,7.0903,7.0903,7.0903,7.0903,7.0903,7.0903,7.0903,7.0903,7.0903,7.0903,7.0903,7.0903,7.0903,7.0903,7.0903,7.0903,7.0903,7.0903,7.0873,7.0739,7.032,6.9738,6.9093,6.9004,6.9153,6.9423,6.9798,6.9738,6.9512,6.9618,6.9678,6.9034,6.8511,6.8077,6.8032,6.7703,6.7268,6.7268,6.7224,6.7164,6.7178,6.7298,6.7597,6.7703,6.7748,6.7778,6.7748,6.7628,6.7808,6.8002,6.8331,6.86,6.875,6.89,6.8734,6.8405,6.8271,6.8315,6.8435,6.8465,6.8495,6.8465,6.8151,6.8331,6.8734,6.8944,6.9199,6.9738,7.029,7.0679,7.0903,7.0903,7.0903,7.0903,7.0903,7.0903,7.0903,7.0903,7.0903,7.0903,7.0903,7.0903,7.0903,7.0903,7.0903,7.0903,7.0903,7.0903,7.0962,7.0992,7.1052,7.1441,7.1398,7.1188,7.1158,7.1158,7.1308,7.1487,7.1577,7.1743,7.2162,7.2611,7.2834,7.3253,7.3791,7.4168,6.8062,6.8555,6.9064,6.9752,7.044,7.0769,7.0903,7.0903,7.0903,7.0903,7.0903,7.0903,7.0903,7.0903,7.0903,7.0903,7.0903,7.0903,7.0903,7.0903,7.0903,7.0903,7.0903,7.0903,7.0903,7.0903,7.0903,7.0873,7.0799,7.0366,6.9977,6.9738,6.9453,6.9363,6.9722,7.0067,6.9947,6.9782,6.9887,6.9782,6.9243,6.9004,6.875,6.869,6.8435,6.8345,6.8375,6.8435,6.8465,6.8525,6.8525,6.8375,6.8002,6.7553,6.7313,6.7269,6.7538,6.7748,6.8062,6.8391,6.8571,6.8451,6.8481,6.866,6.872,6.875,6.8824,6.8974,6.9034,6.9064,6.8914,6.8511,6.8331,6.8734,6.9034,6.9498,6.9947,7.041,7.0843,7.0903,7.0903,7.0903,7.0903,7.0903,7.0903,7.0903,7.0903,7.0903,7.0903,7.0903,7.0903,7.0903,7.0903,7.0903,7.0903,7.0903,7.0903,7.0903,7.0932,7.0932,7.0903,7.0962,7.1038,7.1009,7.1038,7.1158,7.1188,7.1082,7.1308,7.1653,7.1893,7.2146,7.2488,7.2997,7.3522,6.866,6.9064,6.9738,7.0187,7.05,7.0769,7.0903,7.0903,7.0903,7.0903,7.0903,7.0903,7.0903,7.0903,7.0903,7.0903,7.0903,7.0903,7.0903,7.0903,7.0903,7.0903,7.0903,7.0903,7.0903,7.0903,7.0903,7.0873,7.0829,7.0679,7.0426,7.032,6.9961,6.9961,7.038,7.038,7.038,7.0396,7.035,7.0141,6.9646,6.9423,6.9064,6.9004,6.9004,6.9034,6.9004,6.9004,6.9004,6.8974,6.8914,6.8824,6.8495,6.8226,6.8196,6.8271,6.8301,6.8062,6.8391,6.863,6.8766,6.8796,6.9169,6.9782,6.9871,6.9901,6.9662,6.9752,6.9588,6.9588,6.9229,6.884,6.9199,6.9632,6.9393,6.9423,7.0051,7.0679,7.0873,7.0903,7.0903,7.0903,7.0903,7.0903,7.0903,7.0903,7.0903,7.0903,7.0903,7.0903,7.0903,7.0903,7.0903,7.0903,7.0903,7.0903,7.0903,7.0903,7.0903,7.0903,7.0903,7.0903,7.0903,7.0919,7.0949,7.0932,7.0903,7.0903,7.0932,7.1248,7.1398,7.1517,7.189,7.2189,7.2505,6.9139,6.9213,6.9858,7.0127,7.0187,7.0649,7.0903,7.0903,7.0903,7.0903,7.0903,7.0903,7.0903,7.0903,7.0903,7.0903,7.0903,7.0903,7.0903,7.0903,7.0903,7.0903,7.0903,7.0903,7.0903,7.0903,7.0903,7.0903,7.0873,7.0799,7.0799,7.0873,7.0903,7.0873,7.0903,7.0873,7.0829,7.0769,7.0769,7.0813,7.041,6.9917,6.9542,6.9333,6.9227,6.9227,6.9243,6.9273,6.9273,6.9243,6.9333,6.9213,6.9064,6.8884,6.9034,6.9093,6.89,6.89,6.9153,6.9498,6.9724,7.0007,7.059,7.0769,7.0739,7.059,7.035,7.0231,7.0067,6.9887,6.9558,6.9409,6.9842,7.0021,6.9662,6.9542,7.026,7.0843,7.0873,7.0903,7.0903,7.0903,7.0903,7.0903,7.0903,7.0903,7.0903,7.0903,7.0903,7.0903,7.0903,7.0903,7.0903,7.0903,7.0903,7.0903,7.0903,7.0903,7.0903,7.0903,7.0903,7.0903,7.0903,7.0903,7.0903,7.0903,7.0903,7.0903,7.0932,7.0979,7.1068,7.1202,7.1202,7.1471,7.1457,6.9782,6.9858,7.0486,7.0709,7.0739,7.0859,7.0903,7.0903,7.0903,7.0903,7.0903,7.0903,7.0903,7.0903,7.0903,7.0903,7.0903,7.0903,7.0903,7.0903,7.0903,7.0903,7.0903,7.0903,7.0903,7.0903,7.0903,7.0903,7.0903,7.0903,7.0903,7.0903,7.0903,7.0903,7.0903,7.0903,7.0903,7.0903,7.0903,7.0903,7.0903,7.062,7.0649,7.056,7.053,7.053,7.056,7.053,7.056,7.041,7.0021,6.9782,6.9572,6.9363,6.9393,6.9572,6.9363,6.9528,6.9798,7.0007,7.0157,7.0157,7.044,7.041,7.0396,7.0366,7.0247,7.029,7.0217,7.0231,6.9961,6.9738,6.9917,6.9798,6.9528,7.0021,7.0649,7.0859,7.0873,7.0903,7.0903,7.0903,7.0903,7.0903,7.0903,7.0903,7.0903,7.0903,7.0903,7.0903,7.0903,7.0903,7.0903,7.0903,7.0903,7.0903,7.0903,7.0903,7.0903,7.0903,7.0903,7.0903,7.0903,7.0903,7.0903,7.0903,7.0903,7.0903,7.0903,7.0932,7.0903,7.0932,7.0903,7.0932,7.1098]}]]